[[{"header":{"parameterUnit":"m.s-1","parameterCategory":1,"la1":30.6,"la2":28.766,"lo1":-90.7593,"lo2":-88.6598,"dy":0.0162,"dx":0.0183,"nx":116,"ny":114,"refTime":"2023-09-08T18:00:00:Z","depth":0,"parameterNumber":2,"parameterNumberName":"U-component_of_WINDS"},"data":[0.0,0.0,0.0,0.0,0.0,0.0,0.0,0.0,0.0,0.0,0.0,0.0,0.0,0.0,0.0,0.0,0.0,0.0,0.0,0.0,0.0,0.0,0.0,0.0,0.0,0.0,0.0,0.0,0.0,0.0,0.0,0.0,0.0,0.0,0.0,0.0,0.0,0.0,0.0,0.0,0.0,0.0,0.0,0.0,0.0,0.0,0.0,0.0,0.0,0.0,0.0,0.0,0.0,0.0,0.0,0.0,0.0,0.0,0.0,0.0,0.0,0.0,0.0,0.0,0.0,0.0,0.0,0.0,0.0,0.0,0.0,0.0,0.0,0.0,0.0,0.0,0.0,0.0,0.0,0.0,0.0,0.0,0.0,0.0,0.0,0.0,0.0,0.0,0.0,0.0,0.0,0.0,0.0,0.0,0.0,0.0,0.0,0.0,0.0,0.0,0.0,0.0,0.0,0.0,0.0,0.0,0.0,0.0,0.0,0.0,0.0,0.0,0.0,0.0,0.0,0.0,0.0,0.0,0.0,0.0,0.0,0.0,0.0,0.0,0.0,0.0,0.0,0.0,0.0,0.0,0.0,0.0,0.0,0.0,0.0,0.0,0.0,0.0,0.0,0.0,0.0,0.0,0.0,0.0,0.0,0.0,0.0,0.0,0.0,0.0,0.0,0.0,0.0,0.0,0.0,0.0,0.0,0.0,0.0,0.0,0.0,0.0,0.0,0.0,0.0,0.0,0.0,0.0,0.0,0.0,0.0,0.0,0.0,0.0,0.0,0.0,0.0,0.0,0.0,0.0,0.0,0.0,0.0,0.0,0.0,0.0,0.0,0.0,0.0,0.0,0.0,0.0,0.0,0.0,0.0,0.0,0.0,0.0,0.0,0.0,0.0,0.0,0.0,0.0,0.0,0.0,0.0,0.0,0.0,0.0,0.0,0.0,0.0,0.0,0.0,0.0,0.0,0.0,0.0,0.0,0.0,0.0,0.0,0.0,0.0,0.0,0.0,0.0,0.0,0.0,0.0,0.0,0.0,0.0,0.0,0.0,0.0,0.0,0.0,0.0,0.0,0.0,0.0,0.0,0.0,0.0,0.0,0.0,0.0,0.0,0.0,0.0,0.0,0.0,0.0,0.0,0.0,0.0,0.0,0.0,0.0,0.0,0.0,0.0,0.0,0.0,0.0,0.0,0.0,0.0,0.0,0.0,0.0,0.0,0.0,0.0,0.0,0.0,0.0,0.0,0.0,0.0,0.0,0.0,0.0,0.0,0.0,0.0,0.0,0.0,0.0,0.0,0.0,0.0,0.0,0.0,0.0,0.0,0.0,0.0,0.0,0.0,0.0,0.0,0.0,0.0,0.0,0.0,0.0,0.0,0.0,0.0,0.0,0.0,0.0,0.0,0.0,0.0,0.0,0.0,0.0,0.0,0.0,0.0,0.0,0.0,0.0,0.0,0.0,0.0,0.0,0.0,0.0,0.0,0.0,0.0,0.0,0.0,0.0,0.0,0.0,0.0,0.0,0.0,0.0,0.0,0.0,0.0,0.0,0.0,0.0,0.0,0.0,0.0,0.0,0.0,0.0,0.0,0.0,0.0,0.0,0.0,0.0,0.0,0.0,0.0,0.0,0.0,0.0,0.0,0.0,0.0,0.0,0.0,0.0,0.0,0.0,0.0,0.0,0.0,0.0,0.0,0.0,0.0,0.0,0.0,0.0,0.0,0.0,0.0,0.0,0.0,0.0,0.0,0.0,0.0,0.0,0.0,0.0,0.0,0.0,0.0,0.0,0.0,0.0,0.0,0.0,0.0,0.0,0.0,0.0,0.0,0.0,0.0,0.0,0.0,0.0,0.0,0.0,0.0,0.0,0.0,0.0,0.0,0.0,0.0,0.0,0.0,0.0,0.0,0.0,0.0,0.0,0.0,0.0,0.0,0.0,0.0,0.0,0.0,0.0,0.0,0.0,0.0,0.0,0.0,0.0,0.0,0.0,0.0,0.0,0.0,0.0,0.0,0.0,0.0,0.0,0.0,0.0,0.0,0.0,0.0,0.0,0.0,0.0,0.0,0.0,0.0,0.0,0.0,0.0,0.0,0.0,0.0,0.0,0.0,0.0,0.0,0.0,0.0,0.0,0.0,0.0,0.0,0.0,0.0,0.0,0.0,0.0,0.0,0.0,0.0,0.0,0.0,0.0,0.0,0.0,0.0,0.0,0.0,0.0,0.0,0.0,0.0,0.0,0.0,0.0,0.0,0.0,0.0,0.0,0.0,0.0,0.0,0.0,0.0,0.0,0.0,0.0,0.0,0.0,0.0,0.0,0.0,0.0,0.0,0.0,0.0,0.0,0.0,0.0,0.0,0.0,0.0,0.0,0.0,0.0,0.0,0.0,0.0,0.0,0.0,0.0,0.0,0.0,0.0,0.0,0.0,0.0,0.0,0.0,0.0,0.0,0.0,0.0,0.0,0.0,0.0,0.0,0.0,0.0,0.0,0.0,0.0,0.0,0.0,0.0,0.0,0.0,0.0,0.0,0.0,0.0,0.0,0.0,0.0,0.0,0.0,0.0,0.0,0.0,0.0,0.0,0.0,0.0,0.0,0.0,0.0,0.0,0.0,0.0,0.0,0.0,0.0,0.0,0.0,0.0,0.0,0.0,0.0,0.0,0.0,0.0,0.0,0.0,0.0,0.0,0.0,0.0,0.0,0.0,0.0,0.0,0.0,0.0,0.0,0.0,0.0,0.0,0.0,0.0,0.0,0.0,0.0,0.0,0.0,0.0,0.0,0.0,0.0,0.0,0.0,0.0,0.0,0.0,0.0,0.0,0.0,0.0,0.0,0.0,0.0,0.0,0.0,0.0,0.0,0.0,0.0,0.0,0.0,0.0,0.0,0.0,0.0,0.0,0.0,0.0,0.0,0.0,0.0,0.0,0.0,0.0,0.0,0.0,0.0,0.0,0.0,0.0,0.0,0.0,0.0,0.0,0.0,0.0,0.0,0.0,0.0,0.0,0.0,0.0,0.0,0.0,0.0,0.0,0.0,0.0,0.0,0.0,0.0,0.0,0.0,0.0,0.0,0.0,0.0,0.0,0.0,0.0,0.0,0.0,0.0,0.0,0.0,0.0,0.0,0.0,0.0,0.0,0.0,0.0,0.0,0.0,0.0,0.0,0.0,0.0,0.0,0.0,0.0,0.0,0.0,0.0,0.0,0.0,0.0,0.0,0.0,0.0,0.0,0.0,0.0,0.0,0.0,0.0,0.0,0.0,0.0,0.0,0.0,0.0,0.0,0.0,0.0,0.0,0.0,0.0,0.0,0.0,0.0,0.0,0.0,0.0,0.0,0.0,0.0,0.0,0.0,0.0,0.0,0.0,0.0,0.0,0.0,0.0,0.0,0.0,0.0,0.0,0.0,0.0,0.0,0.0,0.0,0.0,0.0,0.0,0.0,0.0,0.0,0.0,0.0,0.0,0.0,0.0,0.0,0.0,0.0,0.0,0.0,0.0,0.0,0.0,0.0,0.0,0.0,0.0,0.0,0.0,0.0,0.0,0.0,0.0,0.0,0.0,0.0,0.0,0.0,0.0,0.0,0.0,0.0,0.0,0.0,0.0,0.0,0.0,0.0,0.0,0.0,0.0,0.0,0.0,0.0,0.0,0.0,0.0,0.0,0.0,0.0,0.0,0.0,0.0,0.0,0.0,0.0,0.0,0.0,0.0,0.0,0.0,0.0,0.0,0.0,0.0,0.0,0.0,0.0,0.0,0.0,0.0,0.0,0.0,0.0,0.0,0.0,0.0,0.0,0.0,0.0,0.0,0.0,0.0,0.0,0.0,0.0,0.0,0.0,0.0,0.0,0.0,0.0,0.0,0.0,0.0,0.0,0.0,0.0,0.0,0.0,0.0,0.0,0.0,0.0,0.0,0.0,0.0,0.0,0.0,0.0,0.0,0.0,0.0,0.0,0.0,0.0,0.0,0.0,0.0,0.0,0.0,0.0,0.0,0.0,0.0,0.0,0.0,0.0,0.0,0.0,0.0,0.0,0.0,0.0,0.0,0.0,0.0,0.0,0.0,0.0,0.0,0.0,0.0,0.0,0.0,0.0,0.0,0.0,0.0,0.0,0.0,0.0,0.0,0.0,0.0,0.0,0.0,0.0,0.0,0.0,0.0,0.0,0.0,0.0,0.0,0.0,0.0,0.0,0.0,0.0,0.0,0.0,0.0,0.0,0.0,0.0,0.0,0.0,0.0,0.0,0.0,0.0,0.0,0.0,0.0,0.0,0.0,0.0,0.0,0.0,0.0,0.0,0.0,0.0,0.0,0.0,0.0,0.0,0.0,0.0,0.0,0.0,0.0,0.0,0.0,0.0,0.0,0.0,0.0,0.0,0.0,0.0,0.0,0.0,0.0,0.0,0.0,0.0,0.0,0.0,0.0,0.0,0.0,0.0,0.0,0.0,0.0,0.0,0.0,0.0,0.0,0.0,0.0,0.0,0.0,0.0,0.0,0.0,0.0,0.0,0.0,0.0,0.0,0.0,0.0,0.0,0.0,0.0,0.0,0.0,0.0,0.0,0.0,0.0,0.0,0.0,0.0,0.0,0.0,0.0,0.0,0.0,0.0,0.0,0.0,0.0,0.0,0.0,0.0,0.0,0.0,0.0,0.0,0.0,0.0,0.0,0.0,0.0,0.0,0.0,0.0,0.0,0.0,0.0,0.0,0.0,0.0,0.0,0.0,0.0,0.0,0.0,0.0,0.0,0.0,0.0,0.0,0.0,0.0,0.0,0.0,0.0,0.0,0.0,0.0,0.0,0.0,0.0,0.0,0.0,0.0,0.0,0.0,0.0,0.0,0.0,0.0,0.0,0.0,0.0,0.0,0.0,0.0,0.0,0.0,0.0,0.0,0.0,0.0,0.0,0.0,0.0,0.0,0.0,0.0,0.0,0.0,0.0,0.0,0.0,0.0,0.0,0.0,0.0,0.0,0.0,0.0,0.0,0.0,0.0,0.0,0.0,0.0,0.0,0.0,0.0,0.0,0.0,0.0,0.0,0.0,0.0,0.0,0.0,0.0,0.0,0.0,0.0,0.0,0.0,0.0,0.0,0.0,0.0,0.0,0.0,0.0,0.0,0.0,0.0,0.0,0.0,0.0,0.0,0.0,0.0,0.0,0.0,0.0,0.0,0.0,0.0,0.0,0.0,0.0,0.0,0.0,0.0,0.0,0.0,0.0,0.0,0.0,0.0,0.0,0.0,0.0,0.0,0.0,0.0,0.0,0.0,0.0,0.0,0.0,0.0,0.0,0.0,0.0,0.0,0.0,0.0,0.0,0.0,0.0,0.0,0.0,0.0,0.0,0.0,0.0,0.0,0.0,0.0,0.0,0.0,0.0,0.0,0.0,0.0,0.0,0.0,0.0,0.0,0.0,0.0,0.0,0.0,0.0,0.0,0.0,0.0,0.0,0.0,0.0,0.0,0.0,0.0,0.0,0.0,0.0,0.0,0.0,0.0,0.0,0.0,0.0,0.0,0.0,0.0,0.0,0.0,0.0,0.0,0.0,0.0,0.0,0.0,0.0,0.0,0.0,0.0,0.0,0.0,0.0,0.0,0.0,0.0,0.0,0.0,0.0,0.0,0.0,0.0,0.0,0.0,0.0,0.0,0.0,0.0,0.0,0.0,0.0,0.0,0.0,0.0,0.0,0.0,0.0,0.0,0.0,0.0,0.0,0.0,0.0,0.0,0.0,0.0,0.0,0.0,0.0,0.0,0.0,0.0,0.0,0.0,0.0,0.0,0.0,0.0,0.0,0.0,0.0,0.0,0.0,0.0,0.0,0.0,0.0,0.0,0.0,0.0,0.0,0.0,0.0,0.0,0.0,0.0,0.0,0.0,0.0,0.0,0.0,0.0,0.0,0.0,0.0,0.0,0.0,0.0,0.0,0.0,0.0,0.0,0.0,0.0,0.0,0.0,0.0,0.0,0.0,0.0,0.0,0.0,0.0,0.0,0.0,0.0,0.0,0.0,0.0,0.0,0.0,0.0,0.0,0.0,0.0,0.0,0.0,0.0,0.0,0.0,0.0,0.0,0.0,0.0,0.0,0.0,0.0,0.0,2.5608,2.5031,0.0,0.0,0.0,0.0,0.0,0.0,0.0,0.0,0.0,0.0,0.0,0.0,0.0,0.0,0.0,0.0,0.0,0.0,0.0,0.0,0.0,0.0,0.0,0.0,0.0,0.0,0.0,0.0,0.0,0.0,0.0,0.0,0.0,0.0,0.0,0.0,0.0,0.0,2.3632,2.4055,2.4454,2.5533,2.6133,2.6331,0.0,0.0,0.0,0.0,0.0,0.0,0.0,0.0,0.0,0.0,0.0,0.0,0.0,0.0,0.0,0.0,0.0,0.0,0.0,0.0,0.0,0.0,0.0,0.0,0.0,0.0,0.0,0.0,0.0,0.0,0.0,0.0,0.0,0.0,0.0,0.0,0.0,0.0,0.0,0.0,0.0,0.0,0.0,0.0,0.0,0.0,0.0,0.0,0.0,0.0,0.0,0.0,0.0,0.0,0.0,0.0,0.0,0.0,0.0,0.0,0.0,0.0,0.0,0.0,0.0,0.0,0.0,0.0,0.0,0.0,2.7981,2.726,0.0,0.0,0.0,0.0,0.0,0.0,0.0,0.0,0.0,0.0,0.0,0.0,0.0,0.0,0.0,0.0,0.0,0.0,0.0,0.0,0.0,0.0,0.0,0.0,0.0,0.0,0.0,0.0,0.0,0.0,0.0,0.0,0.0,0.0,0.0,0.0,0.0,2.3725,2.4,2.4629,2.5572,2.6772,2.6999,2.6392,2.6956,0.0,0.0,0.0,0.0,0.0,0.0,0.0,0.0,0.0,0.0,0.0,0.0,0.0,0.0,0.0,0.0,0.0,0.0,0.0,0.0,0.0,0.0,0.0,0.0,0.0,0.0,0.0,0.0,0.0,0.0,0.0,0.0,0.0,0.0,0.0,0.0,0.0,0.0,0.0,0.0,0.0,0.0,0.0,0.0,0.0,0.0,0.0,0.0,0.0,0.0,0.0,0.0,0.0,0.0,0.0,0.0,0.0,0.0,0.0,0.0,0.0,0.0,0.0,3.2606,3.3007,3.3227,3.3781,3.3043,3.1359,3.1072,3.0247,2.9064,2.8662,0.0,0.0,0.0,0.0,0.0,0.0,0.0,0.0,0.0,0.0,0.0,0.0,0.0,0.0,0.0,0.0,0.0,0.0,0.0,0.0,0.0,0.0,2.4393,2.4937,2.5203,2.5298,0.0,0.0,0.0,0.0,0.0,0.0,0.0,2.4253,2.4347,2.3876,2.4709,2.5865,2.7342,2.6933,2.6984,2.752,2.813,2.828,2.812,0.0,0.0,0.0,0.0,0.0,0.0,0.0,0.0,0.0,0.0,0.0,0.0,0.0,0.0,0.0,0.0,0.0,0.0,0.0,0.0,0.0,0.0,0.0,0.0,0.0,0.0,0.0,0.0,0.0,0.0,0.0,0.0,0.0,0.0,0.0,0.0,0.0,0.0,0.0,0.0,0.0,2.8128,2.8868,0.0,0.0,0.0,0.0,0.0,0.0,0.0,0.0,0.0,0.0,0.0,0.0,0.0,3.1407,3.1998,3.2852,3.339,3.3592,3.3632,3.3668,3.3739,3.4513,3.4688,3.443,3.4376,0.0,2.9875,2.9083,0.0,0.0,0.0,0.0,0.0,0.0,0.0,0.0,0.0,0.0,0.0,0.0,0.0,0.0,0.0,0.0,0.0,0.0,0.0,0.0,0.0,2.4192,2.4339,2.4707,2.4744,2.4966,0.0,0.0,0.0,0.0,0.0,0.0,2.4266,2.4421,2.4682,2.501,2.6126,2.6805,2.7083,2.7196,2.7435,2.7798,2.8511,2.8626,2.8264,2.8093,0.0,0.0,0.0,0.0,0.0,0.0,0.0,0.0,0.0,0.0,0.0,0.0,0.0,0.0,0.0,0.0,0.0,0.0,0.0,0.0,0.0,0.0,0.0,0.0,0.0,0.0,0.0,0.0,0.0,0.0,0.0,0.0,0.0,0.0,0.0,0.0,0.0,0.0,0.0,2.8576,2.903,2.8544,2.9304,2.9566,0.0,0.0,0.0,0.0,0.0,0.0,0.0,0.0,0.0,3.1893,3.343,3.4189,3.4026,3.5294,3.5937,3.5909,3.6828,3.684,3.6147,3.7253,3.7116,3.5972,3.6278,3.5349,3.345,3.1631,3.1378,3.2029,0.0,0.0,0.0,0.0,3.0635,3.0141,0.0,0.0,0.0,0.0,0.0,0.0,0.0,0.0,0.0,0.0,0.0,0.0,2.4229,2.4229,2.4302,2.4561,2.4542,2.4911,2.578,0.0,0.0,0.0,0.0,2.5162,2.4878,2.5049,2.5775,2.702,2.7894,2.8164,2.7842,2.8227,2.8521,2.8723,2.8925,2.8815,2.8471,2.836,2.8047,2.7678,0.0,0.0,0.0,0.0,0.0,0.0,0.0,0.0,0.0,0.0,0.0,0.0,0.0,0.0,0.0,0.0,0.0,0.0,0.0,0.0,0.0,0.0,0.0,0.0,0.0,0.0,0.0,0.0,0.0,0.0,0.0,0.0,0.0,0.0,0.0,0.0,0.0,2.9439,2.9866,2.8964,3.0088,3.0664,0.0,0.0,0.0,0.0,0.0,0.0,3.35,3.4995,3.5532,3.4916,3.6389,3.693,3.6266,3.7698,3.8414,3.8432,3.9625,3.9688,3.8757,3.9749,3.9356,3.7849,3.8019,3.7812,3.7098,3.4302,3.3372,3.3679,3.3022,3.3056,3.3454,3.3363,3.3033,3.269,0.0,0.0,0.0,0.0,0.0,0.0,0.0,0.0,0.0,0.0,0.0,2.4229,2.421,2.421,2.4504,2.5274,2.5408,2.5799,2.6667,2.6682,2.6521,2.6259,2.6126,2.5919,2.5656,2.6648,2.812,3.0083,3.0075,3.0448,3.1127,3.0411,3.0485,3.1146,2.9659,2.8994,2.8952,2.8694,2.8507,2.8342,2.8291,0.0,0.0,0.0,0.0,0.0,0.0,0.0,0.0,0.0,0.0,0.0,0.0,0.0,0.0,0.0,0.0,0.0,0.0,0.0,0.0,0.0,0.0,0.0,0.0,0.0,0.0,0.0,0.0,0.0,0.0,0.0,0.0,0.0,0.0,0.0,0.0,0.0,0.0,3.1071,3.1946,0.0,0.0,0.0,0.0,3.2587,3.4094,3.5016,3.4999,3.6554,3.7437,3.7342,3.8903,3.9698,3.9643,4.0506,4.0928,4.0928,4.102,4.1001,4.0928,4.102,4.0983,4.0818,4.0084,3.9884,3.9816,3.6306,3.5292,3.5868,3.4984,3.4681,3.4717,3.4717,3.4746,3.4741,0.0,0.0,0.0,0.0,0.0,0.0,0.0,0.0,0.0,2.2701,2.3708,2.4358,2.4339,2.4266,2.432,2.4615,2.4652,2.5039,2.5907,2.63,2.6443,2.6227,2.6892,2.7247,2.7255,2.8645,2.963,3.0229,3.1247,3.1641,3.1384,3.1109,3.1127,3.1366,3.0797,3.054,3.0485,2.9344,2.8743,2.8533,2.85,2.837,0.0,0.0,0.0,0.0,0.0,0.0,0.0,0.0,0.0,0.0,0.0,0.0,0.0,0.0,0.0,0.0,0.0,0.0,0.0,0.0,0.0,0.0,0.0,0.0,0.0,0.0,0.0,0.0,0.0,0.0,0.0,0.0,0.0,0.0,0.0,0.0,0.0,3.3723,3.4926,0.0,3.4633,3.4825,3.5211,3.5754,3.682,3.7665,3.815,3.973,4.0611,4.0579,4.1644,4.1956,4.1442,4.2231,4.2121,4.113,4.2158,4.2103,4.113,4.1644,4.1589,4.1093,4.0799,4.0735,4.0701,3.9436,3.8902,3.8699,3.7709,3.7918,3.8779,3.8279,3.7766,3.7264,0.0,0.0,0.0,0.0,0.0,0.0,0.0,0.0,0.0,2.2937,2.3822,2.4321,2.421,2.4191,2.4191,2.4191,2.4209,2.4687,2.587,2.6258,2.67,2.7247,2.824,2.8791,2.8816,3.0662,3.1667,3.1756,3.3154,3.3587,3.3036,3.3036,3.3036,3.3036,3.2742,3.2614,3.2522,3.1201,3.0204,2.9507,2.921,2.9207,2.9142,0.0,0.0,0.0,0.0,0.0,0.0,0.0,0.0,0.0,0.0,0.0,0.0,0.0,0.0,0.0,0.0,0.0,0.0,0.0,0.0,0.0,0.0,0.0,0.0,0.0,0.0,0.0,0.0,0.0,0.0,0.0,0.0,0.0,0.0,3.4724,3.6266,3.6295,3.7489,3.7973,3.7184,3.7349,3.7734,3.8248,3.9313,4.0157,4.0671,4.2249,4.3112,4.3112,4.3883,4.392,4.313,4.3644,4.3222,4.1919,4.2983,4.2928,4.1937,4.2451,4.2415,4.1919,4.1919,4.1919,4.1901,4.1625,4.1461,4.1243,4.0013,4.0175,4.1056,4.0506,3.9974,3.9368,0.0,0.0,0.0,0.0,0.0,0.0,0.0,0.0,2.2214,2.2684,2.3657,2.4209,2.3873,2.4091,2.4245,2.4245,2.4208,2.4946,2.6685,2.6594,2.7385,2.9366,3.0089,3.0407,3.0309,3.2687,3.4214,3.4783,3.5823,3.634,3.634,3.634,3.634,3.6303,3.5459,3.5045,3.4972,3.4211,3.2981,3.1458,3.0564,3.0625,3.1082,0.0,0.0,0.0,0.0,0.0,0.0,0.0,0.0,0.0,0.0,0.0,0.0,0.0,0.0,0.0,0.0,0.0,0.0,0.0,0.0,0.0,0.0,0.0,0.0,0.0,0.0,0.0,0.0,0.0,0.0,0.0,0.0,0.0,3.5026,3.7209,3.875,3.8724,3.9483,3.9698,3.8927,3.9551,4.001,4.001,4.1479,4.2378,4.2378,4.3883,4.4745,4.4745,4.5498,4.5535,4.4764,4.4727,4.4305,4.3534,4.3497,4.3497,4.3497,4.3497,4.3497,4.3497,4.3497,4.3497,4.3424,4.2653,4.28,4.3332,4.1772,4.1167,4.1185,4.1167,4.113,4.0891,0.0,0.0,0.0,0.0,0.0,0.0,0.0,2.2619,2.2922,2.3505,2.4463,2.4994,2.4711,2.4894,2.5072,2.5072,2.4538,2.4907,2.6544,2.6465,2.7587,3.0366,2.9834,3.0445,3.2483,3.3911,3.4658,3.4783,3.6399,3.7165,3.7165,3.7165,3.7165,3.7147,3.6909,3.6486,3.5936,3.5716,3.5349,3.4761,3.2735,3.203,3.2015,0.0,0.0,0.0,0.0,0.0,0.0,0.0,0.0,0.0,0.0,0.0,0.0,0.0,0.0,0.0,0.0,0.0,0.0,0.0,0.0,0.0,0.0,0.0,0.0,0.0,0.0,0.0,0.0,0.0,0.0,0.0,3.5711,3.7601,3.7589,3.9245,4.0639,4.1225,4.2011,4.2415,4.2194,4.2378,4.2506,4.2506,4.3461,4.4048,4.4048,4.5021,4.5571,4.5571,4.5773,4.5792,4.5571,4.5002,4.4599,4.436,4.3773,4.3497,4.3497,4.3497,4.3497,4.3497,4.3497,4.3497,4.3461,4.3259,4.3296,4.3387,4.2378,4.2323,4.2763,4.2194,4.1607,4.1056,0.0,0.0,0.0,0.0,0.0,0.0,0.0,2.3049,2.3253,2.3977,2.4704,2.5143,2.5224,2.5172,2.522,2.5383,2.5271,2.5583,2.6581,2.7743,2.91,3.063,3.1432,3.257,3.4213,3.5931,3.6914,3.7113,3.8372,3.9001,3.9001,3.9001,3.9001,3.9001,3.9001,3.8744,3.8303,3.8303,3.8303,3.8138,3.6009,3.4734,3.3954,3.28,3.236,3.2258,3.1366,3.1256,3.1476,3.0891,0.0,0.0,0.0,0.0,0.0,0.0,0.0,0.0,0.0,0.0,0.0,0.0,0.0,0.0,0.0,0.0,0.0,0.0,0.0,0.0,0.0,0.0,0.0,0.0,3.8138,3.9983,4.0991,4.1684,4.2415,4.3222,4.3424,4.3754,4.4433,4.4195,4.414,4.447,4.4947,4.5204,4.5204,4.6287,4.6746,4.6416,4.7076,4.7113,4.6416,4.5957,4.5553,4.5204,4.4727,4.4507,4.4488,4.4158,4.3993,4.3975,4.3644,4.3497,4.3497,4.3497,4.3497,4.3442,0.0,0.0,0.0,0.0,4.2506,4.2066,0.0,0.0,0.0,0.0,0.0,0.0,0.0,2.3199,2.35,2.418,2.473,2.5183,2.5463,2.5171,2.5037,2.5322,2.596,2.6527,2.6979,2.974,3.1234,3.093,3.3922,3.5659,3.5774,3.8232,3.9768,4.0312,4.0823,4.1167,4.1258,4.1258,4.1258,4.1258,4.1258,4.1185,4.1111,4.1111,4.1111,4.0983,3.9551,3.801,3.6395,3.4724,3.4127,3.4181,3.4044,3.3269,3.2348,3.2877,0.0,0.0,0.0,0.0,0.0,0.0,0.0,0.0,0.0,0.0,0.0,0.0,0.0,0.0,0.0,0.0,0.0,0.0,0.0,0.0,0.0,0.0,0.0,0.0,4.0683,4.2109,4.4525,4.4213,4.403,4.4764,4.4213,4.436,4.5883,4.5314,4.5168,4.5975,4.6122,4.6177,4.6177,4.7627,0.0,0.0,0.0,4.8728,4.726,4.713,4.6746,4.603,4.5938,4.5902,4.5883,4.5168,4.48,4.4672,4.3956,4.3571,4.3497,4.3497,4.3497,4.3497,4.3497,4.3497,4.3497,4.3497,4.3497,4.3387,0.0,0.0,0.0,0.0,0.0,0.0,0.0,2.4443,2.469,2.4196,2.561,2.6343,2.5587,2.5654,2.5546,2.5045,2.5324,2.6441,2.8667,3.0627,3.2431,3.4037,3.5086,3.6393,3.8018,3.9018,3.9768,4.0312,4.0823,4.1442,4.2066,4.2066,4.2066,4.2066,4.2066,4.1717,4.1111,4.1111,4.1111,4.1075,4.0763,3.968,3.8065,3.6431,3.5807,3.5744,3.5037,3.5468,3.6176,3.5027,3.4963,3.523,3.4473,3.3423,0.0,0.0,0.0,0.0,0.0,0.0,0.0,0.0,0.0,0.0,0.0,0.0,0.0,0.0,0.0,0.0,0.0,0.0,0.0,4.0361,4.1668,4.3177,4.537,4.5535,4.548,4.5645,4.5535,4.581,4.6783,4.614,4.6012,4.6819,4.748,4.7847,4.7847,4.8802,4.926,4.9114,4.8746,4.8398,4.8086,4.7443,4.704,4.6874,4.6214,0.0,4.5883,4.5736,4.5314,4.4709,4.4544,4.4103,4.3497,4.3497,4.3497,4.3497,4.3497,4.3497,4.3497,4.3497,4.3497,4.3461,0.0,0.0,0.0,0.0,0.0,0.0,0.0,2.4608,2.5046,2.4864,2.6169,2.7056,2.6959,2.6727,2.6374,2.5794,2.6036,2.7456,3.0448,3.2037,3.3618,3.5224,3.6593,3.8048,3.9684,4.0323,4.1046,4.1903,4.2166,4.2506,4.2892,4.2892,4.2892,4.2892,4.2892,4.2671,4.2304,4.2304,4.2304,4.2268,4.1864,4.1222,4.0322,3.8707,3.7845,3.7441,3.7019,3.6872,3.6846,3.6423,3.6295,3.6138,3.5331,3.4567,3.371,0.0,0.0,0.0,0.0,0.0,0.0,0.0,0.0,0.0,0.0,0.0,0.0,0.0,0.0,3.6346,3.7384,0.0,4.0182,4.2595,4.3478,4.4624,4.6781,4.7095,4.7095,4.7095,4.6746,4.7168,4.8802,4.8214,4.8086,4.8893,4.9334,4.9554,4.9554,5.0343,5.06,5.0196,5.016,4.9958,4.9572,4.8746,4.8343,4.8343,4.7498,4.7095,4.7095,4.6691,4.6067,4.5278,4.4874,4.425,4.3497,4.3497,4.3497,4.3497,4.3497,4.3497,4.3497,4.3497,4.3497,4.3497,0.0,0.0,0.0,0.0,0.0,0.0,0.0,0.0,2.5236,2.5595,2.6613,2.7546,2.8106,2.7608,2.7097,2.6746,2.7076,2.8664,3.1967,3.3524,3.4865,3.6197,3.8159,3.9718,4.0722,4.1449,4.2306,4.3321,4.3444,4.3497,4.3497,4.3497,4.3497,4.3497,4.3497,4.3497,4.3497,4.3497,4.3497,4.3424,4.2782,4.2525,4.2378,4.091,3.9863,3.9148,3.9001,3.7991,3.6872,3.7496,3.7184,3.6431,3.5899,3.5726,3.5375,3.3497,3.361,0.0,0.0,0.0,0.0,0.0,0.0,0.0,0.0,3.5349,3.569,3.7894,3.8451,3.9182,4.1248,4.1704,4.2539,4.4905,4.5389,4.6214,4.8273,4.8705,4.8838,4.9003,4.8324,4.8673,5.082,5.0306,5.016,5.0967,5.1041,5.1041,5.1041,5.1646,5.1701,5.1041,5.1499,5.1463,5.082,5.016,4.9811,4.9811,4.8948,4.8545,4.8526,4.7719,4.6819,4.5847,4.4892,4.4103,4.3497,4.3497,4.3497,4.3497,4.3497,4.3497,4.3497,4.3497,4.3497,4.3497,0.0,0.0,0.0,0.0,0.0,0.0,0.0,0.0,0.0,2.5707,2.7067,2.7878,2.7385,2.7308,2.7266,2.7224,2.7642,2.9282,3.2562,3.4448,3.6378,3.8531,3.9478,4.0248,4.0874,4.1481,4.2121,4.2788,4.325,4.3497,4.3497,4.3497,4.3497,4.3497,4.3497,4.3497,4.3497,4.3497,4.3497,4.3479,4.3387,4.3369,4.3259,4.2378,4.1534,4.0744,4.001,3.9184,3.845,3.8542,3.8028,3.7459,3.8083,3.7968,3.7084,3.4578,3.4649,3.4805,3.1585,3.2363,3.4585,3.663,3.6546,3.7103,0.0,4.0712,3.9635,4.1372,4.2468,4.2964,4.2544,4.3161,4.4316,4.5953,4.6766,4.7759,4.9306,5.0107,5.0784,5.1499,5.0875,5.0784,5.1756,5.1132,5.1004,5.1793,5.1867,5.1867,5.1867,5.194,5.1958,5.1867,5.1261,5.0894,5.0802,5.071,5.0674,5.0655,4.9829,4.9444,4.9426,4.8563,4.7352,4.581,4.4287,4.3571,4.3497,4.3497,4.3497,4.3497,4.3497,4.3497,4.3497,4.3497,4.3497,4.3497,0.0,0.0,0.0,0.0,0.0,0.0,0.0,0.0,0.0,0.0,2.7538,2.8391,2.7684,2.7482,2.7669,2.83,2.8659,3.0175,3.3218,3.5248,3.711,3.8903,3.9698,4.0514,4.1402,4.1664,4.2244,4.3178,4.341,4.3497,4.3497,4.3497,4.3497,4.3516,4.3993,4.3938,4.3552,4.4488,4.436,4.3534,4.4011,4.392,4.3442,4.313,4.2506,4.1589,3.9763,3.8939,0.0,3.8096,3.7711,3.7521,3.7881,3.7275,3.6096,3.4562,3.4791,3.5609,3.598,3.6427,3.7302,3.9264,3.9711,4.0382,4.2978,4.2708,4.2383,4.4066,4.5095,4.5669,4.5441,4.5784,4.6631,4.8107,4.8304,4.8928,5.0805,5.1279,5.161,5.1958,5.2527,5.3023,5.3353,5.3096,5.3225,5.4014,5.3647,5.339,5.339,5.2949,5.2711,5.2711,5.238,5.2215,5.2215,5.1279,5.0802,5.0784,4.9462,4.86,4.8141,4.7774,4.6728,4.5149,4.3993,4.3497,4.3497,4.3497,4.3497,4.3497,4.3497,4.3497,4.3497,4.3497,4.3497,4.3497,0.0,0.0,0.0,0.0,0.0,0.0,0.0,0.0,0.0,0.0,0.0,0.0,0.0,2.7916,2.8124,2.9094,2.9562,3.1038,3.3945,3.5844,3.7564,3.9225,3.98,4.0466,4.1331,4.1639,4.2226,4.3014,4.3356,4.3608,4.3828,4.3828,4.3938,4.4176,4.4764,4.4709,4.4232,4.5406,4.5223,4.4176,4.4562,4.436,4.3773,4.3332,4.2671,4.1717,3.9658,3.8669,3.8125,3.7302,3.6881,3.6747,3.7055,3.6473,3.5558,3.476,3.4779,3.5669,3.8327,3.9116,3.9528,4.1117,4.2378,4.3408,4.4081,4.4507,4.5095,4.6324,4.7122,4.7679,4.7987,4.799,4.8298,4.9401,4.9639,5.0178,5.1546,5.2078,5.2252,5.2013,5.3023,5.383,5.4051,5.4473,5.4876,5.5225,5.473,5.4399,5.4399,5.3647,5.3316,5.3537,5.3335,5.3206,5.3206,5.183,5.1132,5.1114,4.9444,4.8361,4.7774,4.7095,4.614,4.4984,4.3938,4.3497,4.3497,4.3497,4.3497,4.3497,4.3497,4.3497,4.3497,4.3497,4.3497,4.3497,0.0,0.0,0.0,0.0,0.0,0.0,0.0,0.0,0.0,0.0,0.0,0.0,0.0,2.8554,2.8577,2.9339,3.0099,3.1809,3.4768,3.6161,3.7861,3.9952,4.007,4.0138,4.0171,4.1241,4.181,4.1853,4.294,4.3901,4.4672,4.4672,4.5076,4.5828,4.5847,4.5847,4.5828,4.5883,4.5865,4.5755,4.5002,4.469,4.4507,4.2928,4.1846,4.1005,4.0079,3.8761,3.7284,3.6352,3.5561,3.5117,3.5962,3.648,3.6584,3.5632,3.4835,3.46,3.6247,3.8348,4.0419,4.1995,4.4083,4.5792,4.581,4.704,4.8177,4.8233,4.8514,4.8971,4.9631,4.9216,4.8796,4.8936,5.0605,5.1715,5.12,5.2317,5.2876,5.2087,5.2032,5.238,5.317,5.4638,5.5244,5.4491,5.4418,5.4399,5.4399,5.3647,5.3573,5.4344,5.361,5.3206,5.3206,5.238,5.1958,5.194,5.0325,4.9536,4.9426,4.7021,4.5902,4.5773,4.4176,4.3497,4.3497,4.3497,4.3497,4.3497,4.3497,4.3497,4.3497,4.3497,4.3497,4.3497,0.0,0.0,0.0,0.0,0.0,0.0,0.0,0.0,0.0,0.0,0.0,0.0,0.0,0.0,0.0,0.0,2.9918,3.1414,3.3362,3.5615,3.742,3.8645,3.9596,4.0254,4.0607,4.1013,4.1578,4.24,4.3333,4.4108,4.4727,4.5259,4.5645,4.592,4.6471,4.6416,4.5975,4.704,4.6874,4.5883,4.5608,4.5186,4.4544,4.2842,4.1445,4.0088,0.0,3.7387,3.6346,3.5495,3.5009,3.4874,3.5367,3.5272,3.4959,3.4785,3.4872,3.5706,3.8847,4.0609,4.2206,4.4873,4.6507,4.7645,4.8214,4.9187,4.9958,4.9958,4.9076,4.8424,4.8675,4.8568,4.8572,4.9135,5.0455,5.1484,5.1656,5.1692,5.1351,5.0505,5.1334,5.2105,5.238,5.3371,5.4344,5.5133,5.4693,5.4399,5.4399,5.3647,5.3335,5.361,5.3353,5.3206,5.3206,5.2399,5.172,5.1187,4.8985,4.7939,4.7902,4.6526,4.5902,4.5847,4.4764,4.4305,4.425,4.3718,4.3497,4.3497,4.3497,4.3497,4.3497,4.3497,4.3497,4.3497,0.0,0.0,0.0,0.0,0.0,0.0,0.0,0.0,0.0,0.0,0.0,0.0,0.0,0.0,0.0,0.0,0.0,3.1042,3.2664,3.4677,3.6355,3.7492,3.8427,3.9134,3.9658,3.9905,4.0403,4.1161,4.223,4.3066,4.3627,4.4709,4.5331,4.5661,4.636,4.6379,4.5975,4.7003,4.6598,4.5168,4.4766,4.3961,4.2886,4.111,3.9639,0.0,3.6876,3.583,3.5064,3.4535,3.4381,3.4428,3.4587,3.476,3.4884,3.5039,3.6014,3.772,4.0843,4.2423,4.3899,4.6801,4.8159,4.8985,4.9829,5.0637,5.1151,5.0857,4.9419,4.8288,4.859,4.7971,4.7643,4.8418,4.9415,5.0333,5.1042,5.0682,5.038,5.045,5.1114,5.1665,5.1958,5.2472,5.3445,5.5042,5.4693,5.4399,5.4399,5.3647,5.3335,5.3628,5.3353,5.3206,5.3206,5.2399,5.1444,5.0343,4.8453,4.7535,4.7517,4.6709,4.6342,4.6287,4.548,4.4984,4.4672,4.414,4.3754,4.3497,4.3497,4.3497,4.3497,4.3497,4.3497,4.3497,0.0,0.0,0.0,0.0,0.0,0.0,0.0,0.0,0.0,0.0,0.0,0.0,0.0,0.0,0.0,0.0,0.0,0.0,3.2628,3.3493,3.4669,3.6485,3.6608,3.6885,3.7416,3.8054,3.8353,3.8315,3.9814,4.0872,4.1556,4.3032,4.4101,4.4899,4.5422,4.5663,4.5663,4.5663,4.4966,4.3733,4.2557,4.1286,3.995,3.7958,3.673,3.6003,3.5122,3.4308,3.3605,3.3605,3.3753,3.3935,3.389,3.5017,3.6368,3.6462,3.8239,4.0486,4.2073,4.3729,4.5515,4.7792,4.904,4.9903,5.0692,5.1426,5.172,5.0967,4.9386,4.8359,4.904,4.7397,4.6173,4.6874,4.7741,4.8662,4.9613,4.9592,5.0094,5.1738,5.1261,5.1114,5.1903,5.1995,5.2656,5.4271,5.4363,5.4344,5.4344,5.361,5.3555,5.4308,5.361,5.3206,5.3206,5.2399,5.1206,4.9627,4.8783,4.8343,4.8269,4.7517,4.7186,4.7131,4.6269,4.548,4.4764,4.4672,4.4195,4.3497,4.3497,4.3497,4.3497,4.3497,4.3497,4.3497,0.0,0.0,0.0,0.0,0.0,0.0,0.0,0.0,0.0,0.0,0.0,0.0,0.0,0.0,0.0,0.0,0.0,0.0,3.0404,3.2659,3.4076,3.4381,3.5477,3.6067,3.6013,3.6372,3.6689,3.697,3.807,3.8889,3.9402,4.042,4.1286,4.1998,4.2271,4.2405,4.2405,4.2555,4.2159,4.1379,4.0539,4.0045,3.9647,3.7858,3.6748,3.6003,3.517,3.4393,3.3753,3.3698,3.4605,3.5837,3.6358,3.7298,3.8324,3.8944,4.0406,4.2128,4.3747,4.5772,4.77,4.8948,5.0325,5.1426,5.1646,5.1389,5.1,5.0739,4.7806,4.5409,4.5563,4.563,4.5914,4.6789,4.8756,5.0486,5.128,5.0882,5.0664,5.1073,5.093,5.1114,5.1903,5.1995,5.2656,5.4271,5.3849,5.3518,5.3518,5.3316,5.3298,5.35,5.3316,5.3206,5.3206,5.2399,5.1481,5.0472,4.9646,4.893,4.8306,4.8104,4.7994,4.7921,4.6507,4.5773,4.5498,4.4287,4.3681,4.3497,4.3497,4.3497,4.3497,4.3497,4.3497,4.3497,0.0,0.0,0.0,0.0,0.0,0.0,0.0,0.0,0.0,0.0,0.0,0.0,0.0,0.0,0.0,0.0,0.0,0.0,0.0,3.1457,3.2715,3.3145,3.4004,3.4474,3.4536,3.4668,3.4866,3.5084,3.5958,3.653,3.6881,3.7897,3.8656,3.9138,3.945,3.9638,3.973,3.9932,3.9464,0.0,0.0,3.7573,3.7054,3.5981,3.5367,3.4997,3.454,3.4614,3.4972,3.5582,3.6234,3.7048,3.8175,3.9093,4.006,4.1618,4.3183,4.4764,4.6434,4.8142,4.9609,5.0435,5.1316,5.1811,5.1136,5.0897,5.0358,4.8852,4.63,4.4325,4.4324,4.4416,4.4781,4.5619,4.7706,4.9586,5.0721,5.0508,5.0623,5.1734,5.1536,5.1646,5.2454,5.2839,5.328,5.383,5.3463,5.3353,5.372,5.339,5.3206,5.3206,5.3206,5.3206,5.3206,5.2399,5.1591,5.0802,4.9976,4.9132,4.8306,4.8306,4.8122,4.7737,4.6838,4.603,4.5296,4.4397,4.3809,4.3497,4.3497,4.3497,4.3497,4.3497,4.3497,4.3497,0.0,0.0,0.0,0.0,0.0,0.0,0.0,0.0,0.0,0.0,0.0,0.0,0.0,0.0,0.0,0.0,0.0,0.0,0.0,0.0,0.0,3.2505,3.2612,3.2786,3.3134,3.3008,3.3025,3.3109,3.3558,3.3872,3.4083,3.518,3.5814,3.599,3.6592,3.6845,3.6897,3.7248,3.6645,3.5492,3.5465,3.4817,3.3824,0.0,0.0,3.3698,3.3698,3.4816,3.6512,3.8076,3.835,3.8352,4.0029,4.0958,4.1953,4.4364,4.6084,4.7569,4.9297,5.0343,5.1096,5.1683,5.183,5.1448,4.991,4.9832,4.9276,4.6342,4.4912,4.4198,4.416,4.3688,4.3652,4.4525,4.6081,4.7769,4.949,4.9746,5.0611,5.2907,5.2582,5.2435,5.3133,5.383,5.4014,5.3408,5.328,5.35,5.4197,5.3592,5.3206,5.3206,5.3206,5.3206,5.3206,5.2399,5.1591,5.0802,4.9976,4.9132,4.8306,4.8306,4.7865,4.7075,4.7003,4.6067,4.4583,4.4563,4.4086,4.341,4.3479,4.3497,4.3497,4.3497,4.3497,4.3497,0.0,0.0,0.0,0.0,0.0,0.0,0.0,0.0,0.0,0.0,2.8202,2.8142,0.0,0.0,0.0,0.0,0.0,0.0,0.0,0.0,0.0,3.2319,3.2511,3.2529,3.2315,3.1917,3.1847,3.2145,3.1042,3.0728,3.1138,3.135,3.1534,3.1718,3.2524,3.2634,3.2247,3.3155,3.3143,3.2513,3.3252,3.3581,3.3586,0.0,0.0,0.0,3.3698,3.4816,3.6633,3.8816,4.0404,4.1754,4.3369,4.438,4.537,4.713,4.7846,4.8433,5.0141,5.1169,5.1665,5.1132,5.1004,5.0582,4.9082,4.7664,4.6304,4.5004,4.398,4.3304,4.3304,4.376,4.4654,4.6283,4.7364,4.8812,5.1202,5.1573,5.1977,5.3078,5.3096,5.3059,5.3206,5.3335,5.3628,5.4161,5.3592,5.328,5.3408,5.3298,5.3206,5.3206,5.3206,5.3206,5.3206,5.2399,5.1591,5.0802,4.9976,4.9132,4.8306,4.8306,4.7865,4.7076,4.6416,4.5314,4.4025,4.3815,4.3378,4.2902,4.3339,4.3497,4.3497,4.3497,4.3497,4.3497,0.0,0.0,0.0,0.0,0.0,0.0,0.0,2.6456,2.7175,2.8414,2.8783,2.8892,2.8776,2.9087,2.9178,0.0,0.0,0.0,0.0,0.0,0.0,0.0,0.0,0.0,3.2351,3.2033,3.1932,3.2055,0.0,3.0697,3.0642,3.0984,3.0798,3.0265,3.1133,3.1149,3.0565,3.1243,3.1578,3.1755,3.2331,3.2984,3.3549,0.0,0.0,0.0,3.3726,3.509,3.7147,3.8601,4.0775,4.3277,4.5314,4.6232,4.6856,4.8489,4.926,4.9866,5.1096,5.2013,5.2435,5.1628,5.1114,5.0199,4.7832,4.6562,4.537,4.3738,4.325,4.316,4.316,4.3797,4.4617,4.5515,4.6742,4.8339,5.0354,5.1055,5.183,5.3059,5.3206,5.3206,5.3206,5.3592,5.3812,5.3794,5.3812,5.383,5.383,5.3445,5.3206,5.3206,5.3206,5.3206,5.3206,5.2821,5.2013,5.0802,5.0398,4.9554,4.8306,4.8306,4.7645,4.6452,4.6067,4.5077,4.367,4.3556,4.3339,4.3142,4.341,4.3497,4.3497,4.3497,4.3497,4.3497,0.0,0.0,0.0,0.0,0.0,0.0,0.0,2.7032,2.7831,2.8875,2.943,2.9683,2.9492,2.9431,2.9286,0.0,0.0,0.0,0.0,0.0,0.0,0.0,0.0,0.0,3.2752,0.0,0.0,3.237,3.176,0.0,0.0,0.0,0.0,0.0,3.0615,3.0501,2.97,3.0101,3.0755,0.0,0.0,3.2726,0.0,0.0,0.0,0.0,0.0,3.508,3.7129,3.8112,4.0354,4.3164,4.5607,4.6618,4.7187,4.8675,4.9814,5.0787,5.1738,5.2582,5.2986,5.1977,5.1004,4.9501,4.6596,4.5642,4.48,4.2827,4.2844,4.3178,4.3214,4.3707,4.4199,4.4418,4.5626,4.7221,4.9182,5.0083,5.1206,5.3004,5.3206,5.3206,5.3206,5.3775,5.3885,5.3261,5.3794,5.4142,5.4142,5.3555,5.3206,5.3206,5.3206,5.3206,5.3206,5.3041,5.2307,5.1041,5.071,4.9848,4.8545,4.8379,4.7425,4.5902,4.5902,4.493,4.3339,4.3444,4.3444,4.3339,4.3463,4.3497,4.3497,4.3497,4.3497,4.3497,0.0,0.0,0.0,0.0,0.0,0.0,0.0,2.7548,2.823,2.9779,2.9927,2.9851,2.9771,2.9551,2.9289,0.0,0.0,0.0,0.0,0.0,0.0,0.0,0.0,0.0,0.0,0.0,0.0,3.293,3.1487,0.0,0.0,0.0,0.0,0.0,0.0,2.9591,2.8421,2.9247,0.0,0.0,0.0,0.0,0.0,0.0,0.0,0.0,0.0,3.432,3.5559,3.7809,3.9368,4.0762,4.3225,4.5031,4.6377,4.7243,4.8604,5.011,5.1614,5.2582,5.2839,5.1298,4.9719,4.7922,4.5637,4.4356,4.341,4.2555,4.2774,4.3141,4.3178,4.3214,4.3524,4.4437,4.473,4.5938,4.915,4.9646,5.0563,5.2931,5.3206,5.3206,5.3206,5.328,5.3298,5.3225,5.328,5.3316,5.3316,5.3243,5.3206,5.3206,5.3206,5.3206,5.3206,5.2472,5.2032,5.1867,5.0398,4.9591,4.9352,4.8636,4.7425,4.5902,4.5902,4.4692,4.2826,4.3286,4.3214,4.2826,4.3286,4.3497,4.3497,4.3497,4.3497,4.3497,0.0,0.0,0.0,0.0,0.0,0.0,2.735,2.7688,2.8358,3.0002,3.0138,3.0015,2.9876,2.9698,2.9495,2.9251,0.0,0.0,0.0,0.0,0.0,0.0,0.0,0.0,0.0,0.0,3.2252,3.3129,3.2427,0.0,0.0,0.0,0.0,0.0,0.0,2.9612,2.8327,2.8703,0.0,0.0,0.0,0.0,0.0,0.0,0.0,0.0,0.0,0.0,3.5303,3.6648,3.8077,3.9527,4.0566,4.2007,4.3749,4.588,4.8015,4.9947,5.1008,5.1867,5.2261,5.1322,4.9012,4.6634,4.5509,4.3966,4.2724,4.2459,4.2878,4.3305,4.3358,4.334,4.3232,4.3158,4.3594,4.4546,4.6341,4.7039,4.8453,5.1408,5.1775,5.2142,5.3115,5.3206,5.3206,5.3206,5.3206,5.3206,5.3206,5.3206,5.3206,5.3206,5.3206,5.3206,5.3206,5.2894,5.2472,5.1977,5.0857,5.005,4.9517,4.8691,4.7425,4.5902,4.5902,4.4858,4.3214,4.341,4.3375,4.3214,4.341,4.3497,4.3497,4.3497,4.3497,4.3497,0.0,0.0,0.0,0.0,0.0,2.5552,2.7071,2.7593,2.8319,2.9761,3.0087,3.0142,3.0022,3.0045,2.9907,2.9547,2.9909,0.0,0.0,0.0,0.0,0.0,0.0,0.0,0.0,0.0,3.1983,3.2606,3.2727,3.2127,0.0,0.0,3.1303,2.908,0.0,0.0,0.0,0.0,0.0,0.0,0.0,0.0,0.0,0.0,0.0,0.0,0.0,0.0,0.0,0.0,0.0,3.8321,3.8859,4.0018,4.1674,4.4269,4.6744,4.8881,4.9871,5.0879,5.1474,5.0785,4.8455,4.6151,4.5251,4.3849,4.264,4.2175,4.2763,4.3356,4.3169,4.3246,4.3138,4.2333,4.2949,4.3791,4.451,4.5424,4.7077,5.0028,5.0134,5.0771,5.2944,5.3384,5.3463,5.3225,5.3206,5.3206,5.3206,5.3206,5.3206,5.3206,5.3206,5.3206,5.3206,5.3206,5.2803,5.1977,5.1187,5.038,4.9554,4.8691,4.7553,4.625,4.5993,4.5112,4.3828,4.3589,4.3497,4.3497,4.3497,4.3497,4.3497,4.3497,4.3497,4.3497,0.0,0.0,0.0,0.0,0.0,0.0,2.6288,2.7194,2.8118,2.9006,2.9743,3.0213,3.0299,3.0658,3.0584,2.9849,2.9506,0.0,0.0,0.0,0.0,0.0,0.0,0.0,0.0,0.0,3.0552,3.1237,3.1936,3.2231,3.2092,3.2155,3.1717,3.0839,0.0,0.0,0.0,0.0,0.0,0.0,0.0,0.0,0.0,0.0,0.0,0.0,0.0,0.0,0.0,0.0,0.0,0.0,0.0,3.9695,4.0736,4.2298,4.4391,4.6576,4.8089,4.9651,5.0517,4.9227,4.8103,4.6742,4.4759,4.3936,4.3137,4.1612,4.2445,4.3156,4.237,4.2864,4.3138,4.2333,4.2983,4.3876,4.4599,4.5496,4.693,4.9139,4.8539,4.9263,5.2688,5.3818,5.4069,5.328,5.3206,5.3206,5.3206,5.3206,5.3206,5.3206,5.3206,5.3206,5.3206,5.3206,5.2803,5.1977,5.1187,5.038,4.9554,4.8691,4.7865,4.702,4.625,4.5443,4.4635,4.3828,4.3497,4.3497,4.3497,4.3497,4.3497,4.3497,4.3497,4.3497,0.0,0.0,0.0,0.0,0.0,0.0,0.0,2.6751,2.7274,2.8088,2.8972,2.9466,2.9366,2.9945,3.0221,2.9888,3.0068,0.0,0.0,0.0,0.0,0.0,0.0,0.0,0.0,0.0,3.0583,3.1393,3.1464,3.1456,3.1428,3.1333,3.0884,3.0122,2.9769,2.9381,0.0,0.0,0.0,0.0,0.0,0.0,3.3868,0.0,0.0,0.0,0.0,0.0,0.0,0.0,0.0,0.0,0.0,0.0,0.0,4.0693,4.3124,4.5648,4.6597,4.7629,4.8439,4.8375,4.6744,4.4879,4.3802,4.3361,4.2656,4.08,4.1632,4.2613,4.2326,4.2491,4.2564,4.2326,4.2983,4.3422,4.3094,4.4744,4.6636,4.8433,5.0332,5.1943,5.3011,5.3402,5.3482,5.3225,5.3206,5.3206,5.3206,5.3206,5.3206,5.3206,5.3206,5.3206,5.3206,5.3206,5.2803,5.1977,5.1187,5.038,4.9554,4.8691,4.7572,4.6269,4.6012,4.5131,4.3864,4.3608,4.3497,4.3497,4.3497,4.3497,4.3497,4.3497,4.3497,4.3497,0.0,0.0,0.0,0.0,0.0,0.0,0.0,2.637,2.6785,2.7323,2.8433,2.9154,2.9017,2.9697,3.01,3.0019,3.0189,0.0,0.0,0.0,0.0,0.0,0.0,0.0,0.0,2.9802,3.0115,3.0577,3.0716,3.0862,3.103,3.0992,3.0695,3.0204,2.9849,2.9442,0.0,0.0,0.0,0.0,0.0,0.0,3.378,0.0,0.0,0.0,0.0,0.0,0.0,0.0,0.0,0.0,0.0,0.0,0.0,0.0,4.1464,4.3651,4.4897,4.584,4.653,4.6746,4.5421,4.3837,4.2725,4.246,4.1938,4.0129,4.0911,4.1816,4.1507,4.1677,4.1879,4.1846,4.2558,4.2999,4.2782,4.4837,4.6929,4.8425,5.1266,5.2865,5.2157,5.303,5.3537,5.3225,5.3206,5.3206,5.3206,5.3206,5.3206,5.3206,5.3206,5.3206,5.3206,5.2913,5.2344,5.1536,5.071,4.9884,4.9077,4.8545,4.759,4.6342,4.603,4.5149,0.0,4.3626,4.3497,4.3497,4.3497,4.3497,4.3497,4.3497,4.3497,4.3497,0.0,0.0,0.0,0.0,0.0,0.0,0.0,2.5986,2.6545,2.661,2.8029,2.9052,2.911,2.9721,3.0158,3.0194,0.0,0.0,0.0,0.0,0.0,0.0,0.0,0.0,0.0,2.8994,2.9296,2.9028,2.9811,3.0423,3.0857,3.0903,3.0912,3.0884,3.0125,2.9834,0.0,0.0,0.0,0.0,0.0,0.0,0.0,0.0,0.0,0.0,0.0,0.0,0.0,0.0,0.0,0.0,0.0,0.0,0.0,0.0,0.0,0.0,0.0,4.4192,4.4786,4.4636,4.4317,4.3583,4.1749,4.155,0.0,3.9618,4.0277,4.0891,4.0154,4.0614,4.1135,4.1199,4.1875,4.2665,4.3495,4.5773,4.7842,4.9154,5.1542,5.237,5.052,5.2724,5.4014,5.328,5.3206,5.3206,5.3206,5.3206,5.3206,5.3206,5.3151,5.3151,5.3206,5.2399,5.1591,5.0802,4.9921,4.9077,4.8306,4.8306,4.7847,4.6985,4.6232,4.5406,4.4562,4.3809,4.3497,4.3497,4.3497,4.3497,4.3497,4.3497,4.3497,4.3497,0.0,0.0,0.0,0.0,0.0,0.0,0.0,0.0,0.0,0.0,2.6641,2.7528,2.8213,2.8981,2.9656,0.0,0.0,0.0,0.0,0.0,0.0,0.0,0.0,0.0,0.0,2.95,2.9522,2.9472,2.9407,2.9753,3.0406,2.9616,2.9891,3.1039,3.0178,3.0186,0.0,0.0,0.0,0.0,0.0,0.0,0.0,0.0,0.0,0.0,3.4099,3.4124,0.0,0.0,0.0,0.0,0.0,0.0,0.0,0.0,3.9194,3.9677,4.0767,0.0,4.3515,4.4308,4.4532,4.407,0.0,4.2422,4.2235,3.9593,3.9804,4.0362,4.0117,4.0228,4.0763,4.1986,4.2257,4.2815,4.4299,4.7628,5.0288,5.1261,5.3004,5.3182,5.0967,5.2417,5.3408,5.3225,5.3206,5.3206,5.3206,5.3206,5.3206,5.3206,5.2601,5.2582,5.3206,5.2399,5.1591,5.0802,4.9958,4.9132,4.8306,4.8306,4.7535,4.6177,4.5975,4.5094,4.3754,4.3571,4.3497,4.3497,4.3497,4.3497,4.3497,4.3497,4.3497,4.3497,0.0,0.0,0.0,0.0,0.0,0.0,0.0,0.0,0.0,0.0,0.0,0.0,0.0,0.0,0.0,0.0,0.0,0.0,0.0,0.0,0.0,0.0,0.0,2.8801,2.9246,2.9565,2.9678,2.9547,2.9455,2.9758,3.0372,2.9734,2.991,3.0716,3.0101,3.0295,0.0,0.0,0.0,0.0,3.3193,0.0,0.0,0.0,0.0,0.0,3.4148,3.4173,0.0,3.4661,3.5627,3.676,0.0,0.0,0.0,0.0,3.9073,3.9314,4.0065,4.1245,4.2348,4.275,4.3149,4.2998,4.1448,4.1343,4.1116,3.9498,3.9723,4.0182,4.0152,4.0418,4.0942,4.181,4.2459,4.3681,4.6084,4.8052,5.0076,5.2357,5.272,5.2739,5.2537,5.2913,5.3206,5.3206,5.3206,5.3206,5.3206,5.3206,5.3206,5.3206,5.2417,5.2197,5.2656,5.1481,5.0674,5.0233,4.9389,4.8765,4.8306,4.8306,4.7425,4.5902,4.5902,4.4984,4.3497,4.3497,4.3497,4.3497,4.3497,4.3497,4.3497,4.3497,4.3497,4.3497,0.0,0.0,0.0,0.0,0.0,0.0,0.0,0.0,0.0,0.0,0.0,0.0,0.0,0.0,0.0,0.0,0.0,0.0,0.0,0.0,0.0,0.0,0.0,2.8588,2.8474,2.9303,2.9626,2.9382,2.9652,2.9976,3.0404,3.0213,3.0268,3.0485,3.0458,3.0785,0.0,0.0,0.0,0.0,3.311,0.0,0.0,0.0,0.0,0.0,0.0,0.0,0.0,3.5101,3.5857,3.6656,3.7326,0.0,0.0,0.0,0.0,0.0,4.0104,4.098,4.1614,4.1205,4.1531,4.1656,4.0463,3.9905,3.9602,3.9439,3.9835,4.0211,4.0211,4.0725,4.1194,4.1274,4.2735,4.5058,4.8524,4.8586,4.9527,5.289,5.221,5.2059,5.3726,5.3463,5.3206,5.3206,5.3206,5.317,5.3023,5.3023,5.2968,5.2858,5.205,5.1628,5.1628,5.027,4.9591,4.9572,4.8728,4.8306,4.8306,4.8306,4.7425,4.5902,4.5902,4.4984,4.3497,4.3497,4.3497,4.3497,4.3497,4.3497,4.3497,4.3497,4.3497,4.3497,0.0,0.0,0.0,0.0,0.0,0.0,0.0,0.0,0.0,0.0,0.0,0.0,0.0,0.0,0.0,0.0,0.0,0.0,0.0,0.0,0.0,3.0062,2.9281,2.855,2.7842,2.8646,2.9007,2.8912,2.9396,2.9719,2.9907,2.9604,3.0123,3.137,3.2393,3.299,3.3184,0.0,0.0,0.0,3.3522,0.0,0.0,0.0,0.0,0.0,0.0,0.0,0.0,3.4554,3.5123,3.5733,3.5973,0.0,0.0,0.0,0.0,0.0,3.9726,4.0966,4.217,4.203,4.2063,4.1978,4.1252,4.0915,4.05,3.9602,3.9908,4.0335,4.023,4.037,4.0704,4.1156,4.364,4.7094,5.1655,5.2284,5.255,5.3222,5.3658,5.3212,5.1621,5.2514,5.3206,5.3206,5.3206,5.2913,5.2215,5.2179,5.1867,5.1187,5.038,4.9958,4.9958,4.9701,4.9591,4.9572,4.8728,4.8306,4.8306,4.8306,4.7425,4.5902,4.5902,4.4984,4.3497,4.3497,4.3497,4.3497,4.3497,4.3497,4.3497,4.3497,4.3497,4.3497,0.0,0.0,0.0,0.0,0.0,0.0,0.0,0.0,0.0,0.0,0.0,0.0,0.0,0.0,0.0,0.0,0.0,0.0,0.0,0.0,0.0,2.8925,2.8924,2.8771,2.8422,2.9192,2.9326,2.8744,2.9529,2.9888,2.9859,3.0058,3.0623,3.1507,3.2456,3.3148,3.3549,3.3481,0.0,0.0,0.0,0.0,0.0,0.0,0.0,0.0,0.0,0.0,0.0,0.0,3.5291,3.5688,3.6189,0.0,0.0,0.0,0.0,0.0,3.8949,3.9924,4.1033,4.1608,4.2427,4.275,4.1623,4.1618,4.1541,4.0446,4.0776,4.1194,4.0985,4.1656,4.2839,4.4741,4.5624,4.7279,5.075,5.0919,5.1219,5.2486,5.2555,5.2592,5.2794,5.3023,5.3206,5.3206,5.3206,5.2858,5.2032,5.1995,5.1628,5.0839,5.0013,4.9591,4.9591,4.9132,4.8893,4.8893,4.8489,4.8086,4.7664,4.7664,4.6783,4.5259,4.5259,4.458,4.3497,4.3497,4.3497,4.3497,4.3497,4.3497,4.3497,4.3497,4.3497,4.3497,0.0,0.0,0.0,0.0,0.0,0.0,0.0,0.0,0.0,0.0,0.0,0.0,0.0,0.0,0.0,0.0,0.0,0.0,0.0,0.0,2.9679,2.8396,2.8772,2.8734,2.8111,2.9249,2.9387,2.8452,2.9544,3.0053,2.9926,3.0808,3.1327,3.1584,3.2228,3.2803,3.3257,3.3247,3.3247,0.0,0.0,0.0,0.0,0.0,0.0,0.0,0.0,0.0,0.0,0.0,0.0,0.0,0.0,0.0,0.0,3.6939,3.7678,3.8474,3.8518,3.9337,4.0336,4.1036,4.2065,4.2709,4.1953,4.2047,4.2112,4.1434,4.1807,4.2181,4.1986,4.2921,4.4626,4.7353,4.7169,4.7629,5.0425,5.0151,5.0411,5.2394,5.1952,5.2151,5.394,5.3573,5.3206,5.3206,5.3206,5.2784,5.1775,5.172,5.1261,5.0251,4.9609,4.9297,4.9297,4.8636,4.8306,4.8306,4.8122,4.7719,4.7075,4.6911,4.6049,4.4709,4.4709,4.425,4.3497,4.3497,4.3497,4.3497,4.3497,4.3497,4.3497,4.3497,4.3497,4.3497,0.0,0.0,0.0,0.0,0.0,0.0,0.0,0.0,0.0,0.0,0.0,0.0,0.0,0.0,0.0,0.0,0.0,0.0,0.0,0.0,3.0222,3.0213,2.9421,2.7896,2.5528,2.7656,2.8446,2.7695,2.9134,2.9857,2.9926,3.1393,3.2088,3.2079,3.2434,3.2588,3.2582,3.2502,3.2529,3.2637,0.0,0.0,0.0,0.0,0.0,0.0,0.0,0.0,0.0,0.0,0.0,0.0,0.0,0.0,3.5787,3.6153,3.7371,3.8645,3.888,4.0232,4.1414,4.0737,4.0424,4.073,4.2485,4.2163,4.1664,4.2351,4.2767,4.3025,4.2997,4.328,4.4136,4.6043,4.7334,4.9438,5.35,5.3353,5.3206,5.4124,5.3518,5.3096,5.328,5.3243,5.3206,5.3206,5.3206,5.2527,5.0967,5.0894,5.016,4.8526,4.8416,4.8398,4.8398,4.8343,4.8306,4.8306,4.7553,4.7186,4.7095,4.6342,4.5516,4.4709,4.4709,4.425,4.3497,4.3497,4.3497,4.3497,4.3497,4.3497,4.3497,4.3497,4.3497,4.3497,0.0,0.0,0.0,0.0,0.0,0.0,0.0,0.0,0.0,0.0,0.0,0.0,0.0,0.0,0.0,0.0,0.0,0.0,0.0,2.9289,2.9481,2.9595,2.921,2.8307,2.6857,2.8042,2.8556,2.8274,2.9888,3.0454,3.0072,3.1558,3.1902,3.1255,3.1797,3.225,3.2621,3.2596,3.2889,3.3419,3.3792,0.0,0.0,0.0,0.0,0.0,0.0,0.0,0.0,0.0,3.4454,3.4599,3.5208,3.5373,3.5437,3.5968,3.7013,3.8004,3.8099,3.9814,4.1513,4.126,4.1129,4.1416,4.2766,4.3555,4.3752,4.285,4.318,4.3545,4.3208,4.4151,4.5441,4.6725,4.8548,5.0541,5.2619,5.3078,5.3316,5.3628,5.339,5.3206,5.3206,5.3206,5.3206,5.3206,5.3206,5.2509,5.0894,5.0802,5.0031,4.8361,4.8306,4.8306,4.8306,4.8306,4.8306,4.8306,4.7994,4.7333,4.6342,4.6049,4.5186,4.3956,4.3956,4.3773,4.3497,4.3497,4.3497,4.3497,4.3497,4.3497,4.3497,4.3497,4.3497,4.3497,0.0,0.0,0.0,0.0,0.0,0.0,0.0,0.0,0.0,0.0,0.0,0.0,0.0,0.0,0.0,0.0,0.0,0.0,2.8169,2.8744,2.9058,2.913,2.9075,2.8895,2.8605,2.8684,2.8745,2.8789,3.019,3.0757,3.0528,3.1528,3.1712,3.1222,3.1402,3.1976,3.2828,3.2599,3.2902,3.3603,3.3988,3.4124,0.0,0.0,0.0,0.0,0.0,0.0,0.0,0.0,3.4498,3.4724,3.535,3.5343,3.5189,3.5647,3.6483,3.7299,3.7565,3.9165,4.0919,4.151,4.189,4.2384,4.3261,4.4162,4.4552,4.3771,4.4019,4.429,4.395,4.5114,4.6391,4.7241,4.9081,5.0784,5.1848,5.2472,5.2931,5.3188,5.3206,5.3115,5.2858,5.2821,5.2729,5.2472,5.2454,5.1848,5.049,5.0417,4.9774,4.8343,4.8067,4.7921,4.7921,4.7682,4.7682,4.7921,4.7664,4.6966,4.5883,4.5645,4.4782,4.3497,4.3497,4.3497,4.3497,4.3497,4.3497,4.3513,4.3631,4.3646,4.3679,4.3791,4.3855,4.3855,0.0,0.0,0.0,0.0,0.0,0.0,0.0,0.0,0.0,0.0,0.0,0.0,0.0,0.0,0.0,0.0,0.0,0.0,2.6612,2.817,2.9137,2.921,2.9133,2.9486,3.0273,2.9325,2.8891,2.9015,2.9817,3.061,3.1401,3.134,3.1661,3.2241,3.1389,3.1788,3.3034,3.2325,3.235,3.2998,3.3999,3.4363,3.4293,0.0,0.0,0.0,0.0,0.0,0.0,0.0,3.4514,3.4561,3.4908,3.4964,3.4927,3.5057,3.5791,3.67,3.7481,3.8427,3.9637,4.1377,4.245,4.3316,4.4124,4.3628,4.3515,4.5259,4.54,4.5255,4.5396,4.6078,4.6778,4.7223,4.8603,5.0181,5.1779,5.2018,5.2289,5.3115,5.3206,5.2894,5.211,5.2036,5.1665,5.0857,5.0802,5.0435,4.9667,4.9572,4.9187,4.8324,4.7517,4.7075,4.7075,4.6305,4.6305,4.7095,4.6287,4.5902,4.5865,4.5076,4.4268,4.3479,4.3479,4.3532,4.3513,4.3513,4.3513,4.3548,4.3881,4.4016,4.4058,4.4447,4.458,4.458,0.0,0.0,0.0,0.0,0.0,0.0,0.0,0.0,0.0,0.0,0.0,0.0,0.0,0.0,0.0,0.0,0.0,0.0,2.7583,2.8589,2.9445,3.0083,2.9464,2.9498,3.0355,3.003,2.9811,2.9708,3.0596,3.1164,3.1401,3.1328,3.1393,3.1514,3.1265,3.1636,3.2478,3.288,3.3377,3.3915,3.4269,3.4316,3.4221,0.0,0.0,0.0,0.0,0.0,0.0,0.0,0.0,0.0,3.6251,3.5932,3.5189,3.5666,3.654,3.7392,3.7583,3.9219,4.1008,4.1524,4.2381,4.3316,4.4124,4.4566,4.5145,4.6278,4.6202,4.5982,4.6187,4.7091,4.7692,4.7343,4.9027,5.0769,5.1836,5.251,5.315,5.4008,5.4102,5.3784,5.2907,5.2832,5.2476,5.1634,5.1303,5.0787,5.0007,4.914,4.8324,4.7498,4.6691,4.6269,4.6269,4.6012,4.6119,4.6616,4.6376,4.6112,4.5865,4.5076,4.4404,4.3849,4.3849,4.3986,4.428,4.428,4.428,4.428,4.4392,4.4401,4.4447,4.4553,4.458,4.458,0.0,0.0,0.0,0.0,0.0,0.0,0.0,0.0,0.0,0.0,0.0,0.0,0.0,0.0,0.0,0.0,0.0,0.0,0.0,2.8443,2.911,2.996,2.9755,2.9858,3.0383,3.0367,3.0267,3.0109,3.0663,3.1102,3.1427,3.1032,3.0985,3.1267,3.0971,3.158,3.2808,3.307,3.3676,3.4454,3.4542,3.4498,3.4386,0.0,0.0,0.0,0.0,0.0,0.0,0.0,0.0,0.0,3.7147,3.6881,3.6249,3.6635,3.6994,3.7405,3.8037,3.9406,4.0927,4.1944,4.2898,4.3797,4.4624,4.522,4.5932,4.7124,4.6895,4.6787,4.7783,4.8262,4.8439,4.8189,4.9334,5.0625,5.1824,5.2428,5.3019,5.3899,5.3994,5.3509,5.2322,5.2208,5.1869,5.1021,5.0697,5.023,4.9388,4.899,4.8243,4.7111,4.6572,4.6197,4.5848,4.5533,4.5642,4.6139,4.5851,4.5749,4.583,4.5347,4.4817,4.4233,4.4233,4.4392,4.458,4.458,4.458,4.4606,4.4751,4.48,4.4806,4.4943,4.5026,4.5087,0.0,0.0,0.0,0.0,0.0,0.0,0.0,0.0,0.0,0.0,0.0,0.0,0.0,0.0,0.0,0.0,0.0,0.0,0.0,0.0,2.8521,2.9187,2.9985,3.0417,3.0386,3.0398,3.0414,3.0432,3.0349,3.0729,3.1484,3.0615,3.0696,3.1508,3.0828,3.1679,3.3578,3.3118,3.3574,3.4595,3.4659,3.4695,3.4666,3.442,0.0,0.0,0.0,0.0,0.0,0.0,0.0,0.0,3.7753,3.7769,3.7712,3.7693,3.7226,3.7079,3.8764,3.9307,4.0008,4.2566,4.3816,4.4624,4.5413,4.5586,4.6067,4.7759,4.7644,4.7818,4.9691,4.9453,4.9086,4.9418,4.9552,5.0185,5.1773,5.2,5.2273,5.3104,5.3218,5.2575,5.0969,5.0818,5.0478,4.9665,4.958,4.9155,4.8305,4.89,4.8532,4.6939,4.6816,4.6447,4.5704,4.4976,4.4983,4.5738,4.499,4.5047,4.5783,4.5712,4.5297,4.465,4.4682,4.4701,4.4701,4.4701,4.4701,4.4745,4.5049,4.5178,4.5199,4.5514,4.5699,4.5815,0.0,0.0,0.0,0.0,0.0,0.0,0.0,0.0,0.0,0.0,0.0,0.0,0.0,0.0,0.0,0.0,0.0,0.0,0.0,0.0,2.9812,2.9303,3.0056,3.0447,3.039,3.0406,3.0755,3.148,3.1354,3.1339,3.1422,3.1206,3.1628,3.257,3.2371,3.2535,3.3068,3.419,3.4333,3.3827,3.3789,3.4126,3.4548,3.3872,3.402,0.0,0.0,0.0,0.0,0.0,0.0,0.0,3.8478,3.8249,3.7697,3.7695,3.7666,3.8,3.9684,4.0175,4.0835,4.3412,4.4682,4.5355,4.5547,4.5586,4.6067,4.7759,4.9048,4.9798,4.9585,4.9969,5.0102,4.9522,4.998,5.0785,5.1782,5.1916,5.2242,5.3104,5.32,5.2797,5.1743,5.1647,5.1303,5.05,5.0159,4.9588,4.8713,4.7943,4.7089,4.61,4.5447,4.5032,4.4863,4.4674,4.4827,4.5251,4.5084,4.5271,4.5783,4.5152,4.4921,4.5007,4.5263,4.5438,4.5534,4.5534,4.5573,4.563,4.5687,4.5725,4.5743,4.5817,4.5853,4.5885,0.0,0.0,0.0,0.0,0.0,0.0,0.0,0.0,0.0,0.0,0.0,0.0,0.0,0.0,0.0,0.0,0.0,0.0,0.0,0.0,2.9981,2.9928,3.0289,3.0469,3.0447,3.0471,3.0702,3.113,3.1515,3.1857,3.2167,3.216,3.2423,3.2897,3.2852,3.301,3.331,3.3796,3.3855,3.3639,3.3676,3.3904,3.4206,3.411,3.4354,3.4864,3.5735,0.0,0.0,0.0,0.0,0.0,0.0,0.0,3.8378,3.841,3.8479,3.8799,4.0098,4.0784,4.172,4.4278,4.5259,4.5586,4.5586,4.5913,4.6471,4.7355,4.8259,4.8856,4.8798,4.949,4.9779,4.8913,4.9856,5.0837,5.1279,5.1664,5.2087,5.2529,5.2587,5.226,5.1414,5.0952,5.0702,5.0702,4.9736,4.8941,4.8482,4.7872,4.6999,4.5856,4.5761,4.5592,4.523,4.523,4.5295,4.5476,4.5476,4.5605,4.5841,4.5419,4.5335,4.5476,4.5685,4.5776,4.5851,4.5849,4.5874,4.5912,4.5912,4.5912,4.5912,4.5912,4.5935,4.6003,0.0,0.0,0.0,0.0,0.0,0.0,0.0,0.0,0.0,0.0,0.0,0.0,0.0,0.0,0.0,0.0,0.0,0.0,0.0,0.0,0.0,3.053,3.051,3.049,3.0471,3.0559,3.0617,3.0645,3.1428,3.2309,3.3265,3.3095,3.3068,3.3166,3.3159,3.3434,3.3872,3.3402,3.342,3.3785,3.3868,3.3944,3.4067,3.4472,3.4756,3.5003,3.5626,3.5985,3.6386,3.8002,0.0,0.0,0.0,0.0,3.9057,3.8975,3.9065,3.9388,4.0258,4.1354,4.2739,4.4855,4.549,4.5586,4.5586,4.6163,4.6682,4.6682,4.6913,4.7278,4.7798,4.8606,4.8894,4.8029,4.9221,5.024,5.024,5.0818,5.1298,5.1452,5.1356,5.1048,5.0529,4.9683,4.9471,5.0202,4.8913,4.8048,4.7932,4.7913,4.7259,4.5873,4.6461,4.6513,4.5912,4.5912,4.5912,4.5912,4.5926,4.5935,4.5949,4.5974,4.5951,4.5912,4.5912,4.5902,4.5945,4.5925,4.5948,4.5974,4.5974,4.5974,4.5974,4.5974,4.6046,4.6134,0.0,0.0,0.0,0.0,0.0,0.0,0.0,0.0,0.0,0.0,0.0,0.0,0.0,0.0,0.0,0.0,0.0,0.0,2.7186,0.0,0.0,3.0386,3.0458,3.0477,3.0402,3.053,3.0926,3.1612,3.1796,3.2712,3.4279,3.3411,3.3437,3.4196,3.4137,3.4185,3.4367,3.4897,3.4705,3.4044,3.3945,3.4287,3.4755,3.4148,3.4357,3.5001,3.5169,3.5665,3.6331,3.6646,3.7051,0.0,0.0,0.0,3.8802,3.8183,3.8556,3.9388,4.0258,4.22,4.4047,4.4393,4.5028,4.5586,4.5586,4.5682,4.5759,4.5759,4.6932,4.7759,4.7182,4.774,4.8009,4.7201,4.7836,4.8452,4.8452,4.8548,4.8894,4.9644,4.9067,4.8856,4.951,4.8798,4.8317,4.8432,4.824,4.7817,4.7182,4.7144,4.6759,4.5911,4.599,4.6008,4.5911,4.5911,4.5911,4.5911,4.6012,4.6061,4.6089,4.6181,4.6124,4.5911,4.5911,4.5977,4.6065,4.6075,4.6143,4.6247,4.6247,4.6247,4.6247,4.6247,4.6262,4.6276,0.0,0.0,0.0,0.0,0.0,0.0,0.0,0.0,0.0,0.0,0.0,0.0,0.0,0.0,0.0,2.6451,2.7039,2.7697,2.823,2.9334,3.0115,3.0451,3.0923,3.0942,3.0471,3.1023,3.1243,3.1081,3.1172,3.2105,3.3766,3.3865,3.4341,3.5136,3.5107,3.5068,3.5024,3.4878,3.452,3.4055,3.409,3.4007,3.3887,3.4523,3.4691,3.4665,3.51,3.5473,3.5815,3.6377,3.6431,3.6375,3.6919,0.0,0.0,0.0,3.7813,3.8919,4.0739,4.2047,4.3239,4.4662,4.4951,4.4989,4.549,4.5586,4.5586,4.5586,4.6182,4.6586,4.624,4.6855,4.7144,4.6317,4.7259,4.7952,4.749,4.7817,4.824,4.8625,4.8336,4.8259,4.8625,4.7932,4.7663,4.8164,4.7336,4.6894,4.7106,4.666,4.6283,4.6025,4.6012,4.6055,4.6117,4.612,4.612,4.6117,4.6177,4.62,4.6215,4.6263,4.6238,4.612,4.612,4.6167,4.6212,4.6212,4.626,4.6308,4.6308,4.6308,4.6308,4.6308,4.6308,4.6308,0.0,0.0,0.0,0.0,0.0,0.0,0.0,0.0,0.0,0.0,0.0,0.0,0.0,0.0,0.0,0.0,2.6926,2.7546,2.8979,2.9792,3.0201,3.0153,3.0944,3.1109,3.0521,3.1194,3.1202,3.0539,3.0642,3.1576,3.3242,3.393,3.4785,3.5754,3.6207,3.6221,3.5869,3.5272,3.4803,3.4436,3.4345,3.3889,3.3355,3.4461,3.4499,3.4109,3.509,3.5411,3.5489,3.6389,3.626,3.5773,3.6185,3.6469,0.0,0.0,0.0,3.818,4.0543,4.1331,4.2043,4.4372,4.4641,4.4545,4.5393,4.5586,4.5586,4.5586,4.5586,4.5586,4.5586,4.6124,4.6355,4.5701,4.6644,4.7259,4.6644,4.7086,4.7548,4.7778,4.7605,4.7548,4.7778,4.7086,4.6913,4.7625,4.6516,4.6147,4.6876,4.6306,4.5999,4.6138,4.6158,4.6191,4.6308,4.6308,4.6308,4.6308,4.6307,4.6293,4.63,4.6292,4.6308,4.6308,4.6308,4.6308,4.6308,4.6308,4.6308,4.6308,4.6308,4.6308,4.6308,4.6308,4.6308,4.6308,0.0,0.0,0.0,0.0,0.0,0.0,0.0,0.0,0.0,0.0,0.0,0.0,2.9606,2.882,2.7936,2.7077,2.6991,2.7329,2.8112,2.8981,2.9373,2.9182,3.0074,0.0,3.0509,3.0559,3.0586,3.0582,3.0668,3.1598,3.3303,3.3343,3.4243,3.5877,3.7592,3.7858,3.7019,3.7034,3.6479,3.5534,3.472,3.4284,3.4051,3.3403,3.3091,3.3275,3.4977,3.5553,3.5616,3.6431,3.6639,3.6378,3.5479,3.584,3.6427,0.0,0.0,0.0,3.8955,4.0029,4.1089,4.2803,4.3824,4.4617,4.543,4.5586,4.5586,4.5586,4.5586,4.5586,4.5586,4.5624,4.5643,4.5605,4.5663,4.572,4.5663,4.5701,4.6028,4.6855,4.622,4.6047,4.6894,4.6278,4.5892,4.593,4.5905,4.596,4.614,4.6102,4.615,4.6285,4.6287,4.6288,4.6308,4.6308,4.6308,4.6308,4.6307,4.6307,4.6307,4.6308,4.6308,4.6308,4.6308,4.6308,4.6308,4.6308,4.6308,4.6308,4.6308,4.6308,4.6308,4.6308,4.6308,4.6308,0.0,0.0,0.0,0.0,0.0,0.0,0.0,0.0,0.0,0.0,0.0,0.0,0.0,2.7981,2.7335,2.7027,2.6992,2.7334,2.8119,2.8938,2.9594,3.0037,3.0907,3.1149,3.0578,3.1118,3.1136,3.0602,3.0668,3.1319,3.2485,3.3608,3.475,3.5924,3.7136,3.7461,3.7136,3.7776,3.7436,3.6406,3.5648,3.4606,3.3529,3.3893,3.3365,3.2713,3.499,3.5418,3.5048,3.5857,3.6483,3.6759,3.5753,3.6059,3.6625,3.5753,3.6113,3.7018,3.8215,3.9166,4.0232,4.1859,4.2919,4.3769,4.4583,4.4759,4.4913,4.547,4.5163,4.4932,4.549,4.5586,4.5586,4.5586,4.5586,4.5586,4.5586,4.5586,4.574,4.6144,4.593,4.5873,4.622,4.6026,4.5911,4.5988,4.602,4.584,4.543,4.5397,4.5425,4.5469,4.4922,4.4629,4.4629,4.5195,4.5469,4.5469,4.6035,4.6308,4.6308,4.6308,4.6308,4.6308,4.6308,4.6308,4.6308,4.6308,4.6308,4.6308,4.6308,4.6308,4.6308,4.6308,4.6308,4.6308,0.0,0.0,0.0,0.0,0.0,0.0,0.0,0.0,0.0,0.0,0.0,0.0,0.0,0.0,2.7192,2.6618,2.6561,2.6773,2.7292,2.8377,2.924,2.9745,3.0845,3.1194,3.0602,3.1155,3.1164,3.0626,3.0676,3.1156,3.2031,3.3193,3.4341,3.547,3.6356,3.6902,3.7164,3.7776,3.7455,3.649,3.5768,3.489,3.4092,3.4475,3.412,3.368,3.5653,3.5994,3.5576,3.6044,3.6423,3.6556,3.5813,3.5987,3.6356,3.577,3.597,3.6595,3.7474,3.8331,3.9399,4.1051,4.2126,4.298,4.3766,4.3943,4.408,4.466,4.4297,4.4162,4.5009,4.5163,4.5259,4.5547,4.5586,4.5586,4.5586,4.5624,4.5699,4.5796,4.5831,4.5849,4.5907,4.5687,4.5566,4.5643,4.5446,4.5079,4.4589,4.4551,4.4551,4.4551,4.4004,4.3691,4.3691,4.4277,4.4707,4.5019,4.5586,4.6016,4.6308,4.6308,4.6308,4.6308,4.6308,4.6308,4.6308,4.6308,4.6308,4.6308,4.6308,4.6308,4.6308,4.6308,4.6308,4.6308,0.0,0.0,0.0,0.0,0.0,0.0,0.0,0.0,0.0,2.9464,0.0,0.0,0.0,0.0,0.0,2.5883,2.574,2.5722,2.5716,2.7293,2.8223,2.8191,2.9734,3.0599,3.0603,3.0537,3.0565,3.069,3.069,3.1137,3.1972,3.1994,3.2861,3.4473,3.5431,3.6333,3.7118,3.715,3.6696,3.5908,3.4994,3.5139,3.5816,3.5,3.5201,3.6046,3.6947,3.7261,3.7226,3.705,3.6536,3.5969,3.5678,3.5588,3.5604,3.5604,3.5604,3.5789,0.0,0.0,0.0,4.0273,4.1388,4.2254,4.2956,4.3138,4.3142,4.3102,4.3085,4.3316,4.4124,4.4297,4.4586,4.5432,4.5586,4.5605,4.5605,4.5719,4.5796,4.5776,4.5835,4.586,4.583,4.5195,4.4757,4.4757,4.4098,4.3691,4.3652,4.3652,4.3652,4.3633,4.3652,4.3652,4.3633,4.3652,4.4101,4.4961,4.498,4.5469,4.6308,4.6308,4.6308,4.6308,4.6308,4.6308,4.6308,4.6308,4.6308,4.6308,4.6308,4.6308,4.6308,4.6308,4.6308,4.6308,0.0,0.0,0.0,0.0,0.0,0.0,2.9701,2.9523,2.9297,0.0,0.0,0.0,2.8647,2.7884,2.7162,2.6683,2.6635,2.7168,2.8408,2.8901,2.9406,3.0039,3.0456,3.0678,3.0664,3.0649,3.0645,3.0629,3.0676,3.0826,3.1059,3.1709,3.226,3.2765,3.4282,3.5085,3.5451,3.7311,3.7956,3.7578,3.6066,3.5585,3.5663,3.4925,3.439,3.4248,3.5806,3.6325,3.6292,3.6289,3.7361,3.8583,3.7845,3.6705,3.5676,3.5676,3.5676,3.5715,3.5969,0.0,0.0,0.0,0.0,0.0,4.1364,4.1832,4.2425,4.3046,4.2618,4.245,4.3338,4.3951,4.4451,4.4876,4.5393,4.5738,4.5738,4.5815,4.568,4.5143,4.5089,4.489,4.4371,4.4126,4.4007,4.4007,4.382,4.3418,4.2793,4.2754,4.248,4.1914,4.2461,4.248,4.1894,4.2461,4.3203,4.4062,4.4707,4.5469,4.6308,4.6308,4.6308,4.6308,4.6308,4.6308,4.6308,4.6308,4.6308,4.6308,4.6308,4.6308,4.6308,4.6308,4.6308,4.6308,0.0,0.0,0.0,0.0,0.0,3.0758,3.0664,3.0295,2.9873,0.0,0.0,0.0,2.8864,2.8064,2.7405,2.7026,2.7313,2.7789,2.8473,2.9134,2.9732,3.0278,3.0552,3.0697,3.0698,3.0664,3.0653,3.0649,3.0653,3.0676,3.071,3.1209,3.1657,3.2045,3.307,3.3924,3.475,3.624,3.7264,3.7775,3.6366,3.6209,3.6743,3.5989,3.56,3.5555,3.6243,3.6735,3.6911,3.6226,3.7204,3.8495,3.722,3.6577,3.6209,3.5854,3.5737,3.5747,3.5747,3.6386,3.7035,3.7045,0.0,0.0,3.9685,4.0011,4.0494,4.0945,4.0596,4.0604,4.1931,4.2508,4.322,4.4491,4.5068,4.5481,4.5786,4.5607,4.5413,4.5355,4.5067,4.4713,4.4276,4.3906,4.3555,4.3183,4.2851,4.2441,4.1933,4.1894,4.168,4.1211,4.1641,4.168,4.1191,4.1992,4.2832,4.3711,4.457,4.5469,4.6308,4.6308,4.6308,4.6308,4.6308,4.627,4.6222,4.628,4.6308,4.6308,4.6308,4.6308,4.6308,4.6308,4.6308,4.6308,0.0,0.0,3.1194,3.1962,3.1531,3.1315,3.2002,3.1432,3.0906,0.0,3.081,3.0492,2.9684,2.8908,2.8138,2.7363,2.7947,2.8093,2.7477,2.8827,2.9668,2.9732,3.0367,3.0728,3.0703,3.0637,3.0645,3.0692,3.0637,3.0626,3.069,3.069,3.1119,3.187,3.1968,3.2945,3.454,3.4586,3.5607,3.7122,3.6165,3.6775,3.8166,3.7332,3.7498,3.8092,3.7448,3.7727,3.821,3.6763,3.6631,3.6808,3.5357,3.5846,3.6813,3.6032,3.5803,3.5812,3.5799,3.637,3.6981,3.7097,3.7688,0.0,3.8228,3.8216,3.8172,3.8053,3.8031,3.8551,4.0284,4.065,4.1532,4.4029,4.4572,4.4916,4.5677,4.5235,4.5063,4.5754,4.5163,4.4707,4.4707,4.3926,4.3105,4.2324,4.1601,4.1191,4.1191,4.1191,4.1191,4.1191,4.1191,4.1191,4.1191,4.1914,4.2754,4.3711,4.4492,4.5351,4.6308,4.6308,4.6308,4.6308,4.6285,4.6205,4.6114,4.6203,4.6264,4.6268,4.6289,4.6289,4.6289,4.6289,4.6308,4.6308,3.0838,3.1365,3.1892,3.2068,3.2547,3.2713,3.2189,3.1906,3.1539,3.088,3.0858,3.054,2.9627,2.9418,2.9273,2.9119,2.9195,2.9499,3.0105,3.0391,3.0582,3.064,3.0786,3.0817,3.0703,3.0691,3.0658,3.061,3.061,3.0626,3.069,3.069,3.0782,3.097,3.1689,3.2583,3.3613,3.4243,3.5554,3.7108,3.613,3.6391,3.7242,3.6289,3.606,3.6324,3.6978,3.7268,3.7461,3.7877,3.7214,3.6289,3.66,3.6446,3.6093,3.5865,3.5849,3.5877,3.5799,3.5956,3.6301,3.7008,3.7319,0.0,3.823,3.8324,3.8268,3.8249,3.8197,3.852,3.9676,4.0377,4.1227,4.2621,4.3366,4.4056,4.4905,4.4984,4.4758,4.4231,4.3413,4.291,4.291,4.2168,4.1621,4.1445,4.1289,4.1191,4.1191,4.1191,4.1191,4.1191,4.1191,4.1191,4.1191,4.1367,4.2207,4.3691,4.3867,4.4785,4.6308,4.6308,4.6308,4.6289,4.6183,4.6132,4.6082,4.6012,4.5983,4.5995,4.6223,4.623,4.6152,4.6269,4.6308,4.6308,3.2182,3.2455,3.2885,3.3319,3.3409,3.3255,3.2815,3.2352,3.1753,3.0911,3.0824,3.0674,3.0203,3.0189,3.0018,2.9591,3.0286,3.0591,3.0217,3.0955,3.1223,3.0875,3.0818,3.0771,3.0697,3.0672,3.0622,3.0602,3.0593,3.0626,3.0704,3.0704,3.0497,3.0166,3.1436,3.2508,3.3427,3.4714,3.6258,3.7732,3.6324,3.6316,3.705,3.6104,3.5765,3.5867,3.6376,3.6552,3.6693,3.7608,3.7633,3.7284,3.7266,3.7235,3.7093,3.664,3.6203,3.5898,3.5852,3.5864,3.6006,3.6484,3.6893,0.0,0.0,3.805,3.8346,3.8305,3.7928,3.789,3.8869,3.8996,3.9574,4.1452,4.2066,4.2617,4.3481,4.3665,4.3691,4.3691,4.293,4.2402,4.2402,4.2031,4.1445,4.0605,4.0547,4.0547,4.0547,4.0086,3.9993,4.0441,4.0004,3.9986,4.0449,4.0879,4.1741,4.3004,4.3911,4.4785,4.5625,4.6094,4.6267,4.6201,4.6143,4.6046,4.595,4.5911,4.558,4.5163,4.5833,4.5835,4.5508,4.6016,4.5976,4.5703,3.3324,3.3282,3.3675,3.4544,3.4128,3.3594,3.3433,3.2654,3.1767,3.0898,3.0789,3.0742,3.0573,3.0567,3.0287,2.9572,3.0594,3.0917,3.0064,3.0944,3.1295,3.082,3.0741,3.065,3.0462,3.0561,3.0618,3.061,3.0621,3.0653,3.0711,3.0698,3.036,2.9794,3.1156,3.2454,3.3697,3.4953,3.6555,3.8103,3.6469,3.6465,3.7333,3.6407,3.6111,3.6098,3.5963,3.6036,3.6347,3.704,3.7769,3.8242,3.7695,3.7987,3.8371,3.7661,3.685,3.6176,3.6153,3.6033,3.5994,3.6378,3.671,3.707,0.0,0.0,0.0,3.8293,3.7637,3.7325,3.8247,3.77,3.7875,4.0214,4.0608,4.0847,4.1557,4.1652,4.2108,4.3319,4.2539,4.2051,4.2363,4.2246,4.1582,4.0213,3.9951,3.9859,3.9839,3.8913,3.8698,3.9397,3.8714,3.8663,3.9415,4.0283,4.1167,4.2058,4.3669,4.4496,4.4643,4.5559,4.593,4.5835,4.5984,4.5853,4.5545,4.5584,4.5007,4.4182,4.543,4.5425,4.4842,4.576,4.5723,4.5312,3.2416,3.2881,3.3676,3.4546,3.4612,3.4281,3.351,3.2608,3.1695,3.084,3.075,3.0505,2.9737,2.9702,2.9704,2.9606,2.9055,2.9594,3.166,3.0532,3.0088,3.0778,3.0788,3.0424,2.9649,3.0325,3.0685,3.0692,3.0695,3.069,3.0697,3.0704,3.0645,3.0567,3.0812,3.2214,3.4332,3.3823,3.5044,3.7253,3.6229,3.6788,3.8146,3.7112,3.6813,3.6864,3.6169,3.6406,3.7087,3.7178,3.7314,3.7547,3.8173,3.8476,3.8554,3.8391,3.7772,3.7128,3.707,3.6484,3.6269,3.7751,3.709,3.664,3.8883,0.0,3.7539,3.8241,0.0,3.745,3.8329,0.0,0.0,3.8614,3.8795,3.8839,3.8938,3.899,3.9903,4.2265,4.1149,4.0762,4.2266,4.1693,4.1142,4.0881,4.0159,3.9708,3.963,3.8792,3.8365,3.8458,3.835,3.835,3.8465,3.9332,4.0205,4.1071,4.2001,4.2834,4.3591,4.4479,4.4868,4.49,4.5538,4.5372,4.4641,4.4545,4.3989,4.3412,4.5199,4.5346,4.467,4.5707,4.6055,4.6016,3.2703,3.3526,3.4223,3.4638,3.5091,3.4959,3.3602,3.2574,3.1829,3.1506,3.1469,3.152,3.1576,3.1579,3.1378,3.0912,3.1428,3.1864,3.2031,3.1831,3.1856,3.2175,3.175,3.1328,3.0968,3.0789,3.0704,3.0697,3.0698,3.073,3.0755,3.0748,3.0495,3.0062,3.1629,3.2888,3.3932,3.5116,3.6791,3.857,3.7624,3.7956,3.8781,3.6969,3.6358,3.6391,3.5948,3.6079,3.6429,3.6356,3.7361,3.8532,3.7922,3.9097,4.0402,3.8927,3.8565,3.8511,3.7983,3.7223,3.6882,3.8092,3.7549,3.7089,3.8598,3.8819,3.8666,3.8487,0.0,0.0,0.0,0.0,0.0,0.0,3.8167,3.8497,3.8495,3.8128,3.8436,4.0006,3.9569,3.9418,4.0137,4.1209,4.0991,3.8954,3.9347,3.9254,3.8255,3.7265,3.6977,3.7525,3.6991,3.6953,3.7486,3.8356,3.9197,4.006,4.1437,4.2261,4.262,4.3531,4.3905,4.384,4.4164,4.4064,4.3679,4.3624,4.3104,4.247,4.3758,4.4068,4.3874,4.4897,4.5019,4.4746,3.24,3.3515,3.4333,3.4625,3.5151,3.5042,3.3595,3.2742,3.2369,3.2613,3.2632,3.2829,3.3306,3.3147,3.2764,3.2181,3.2629,3.2754,3.2326,3.2482,3.2551,3.2469,3.2381,3.2133,3.1645,3.1289,3.1188,3.1412,3.0945,3.0867,3.1125,3.0891,3.0584,3.0276,3.2175,3.34,3.4166,3.5841,3.7501,3.8928,3.8014,3.7966,3.828,3.6787,3.6087,3.5875,3.5797,3.5795,3.5855,3.5989,3.7305,3.8712,3.777,3.9154,4.0777,3.8961,3.8665,3.8868,3.868,3.7877,3.7422,3.8734,3.8137,3.7512,3.8497,3.8904,3.9029,3.8869,3.8654,0.0,0.0,0.0,3.7426,3.6925,0.0,3.8056,3.7817,3.7273,3.732,3.8439,3.8569,3.8651,3.8885,4.0605,4.0656,3.8078,3.8783,3.8677,3.7203,3.6158,3.5919,3.6573,3.5911,3.5872,3.6535,3.7632,3.8464,3.9119,4.0827,4.1671,4.1671,4.2572,4.2903,4.2829,4.3079,4.3006,4.2739,4.2739,4.2239,4.1508,4.2143,4.2569,4.2939,4.3917,4.3962,4.3596,3.0769,3.2175,3.3608,3.4465,3.4627,3.4333,3.3437,3.3274,3.3486,3.4137,3.4226,3.4191,3.4075,3.3427,3.2997,3.2969,3.0818,3.0498,3.2918,3.1622,3.0723,3.0588,3.2305,3.2479,3.0779,3.1595,3.2438,3.3224,3.1588,3.1196,3.1934,3.1168,3.1193,3.1921,3.2004,3.3418,3.5683,3.4986,3.57,3.7204,3.633,3.5991,3.61,3.6789,3.6464,3.563,3.5828,3.5815,3.5828,3.6614,3.696,3.7207,3.7938,3.8288,3.8416,3.833,3.7769,3.7512,3.9053,3.831,3.7684,4.0126,3.8899,3.7544,3.918,3.833,3.7661,3.9313,3.9033,3.8488,3.8463,3.8514,3.7978,3.6226,3.6673,0.0,0.0,3.5958,3.6572,3.8307,3.8491,3.8807,3.9584,3.9862,3.9875,3.9643,3.8889,3.798,3.6964,3.6135,3.5659,3.5545,3.5641,3.568,3.5641,3.7291,3.8176,3.8349,3.985,4.062,4.0773,4.1508,4.1854,4.1893,4.2739,4.2624,4.1854,4.1854,4.1335,4.0527,4.0566,4.1104,4.197,4.2896,4.3236,4.3248,3.2287,3.3293,3.4027,3.3774,3.4685,3.5165,3.4289,3.404,3.4274,3.5116,3.5231,3.5589,3.6568,3.5931,3.5232,3.4713,3.3853,3.3269,3.3114,3.3087,3.2841,3.2308,3.3361,3.348,3.2446,3.2723,3.3023,3.3302,3.2787,3.2648,3.2834,3.204,3.208,3.2869,3.2862,3.3658,3.5022,3.5329,3.6129,3.7153,3.6723,3.6914,3.7328,3.6482,3.6028,3.5784,3.5785,3.5712,3.568,3.5905,3.6768,3.7572,3.6735,3.8052,3.9561,3.7862,3.7924,3.8556,3.8563,3.7789,3.7439,3.9393,3.8443,3.7461,3.9154,3.911,3.854,3.8016,3.8588,3.8675,3.7063,3.7673,3.7851,3.6163,3.664,3.6913,0.0,3.5919,3.588,3.5852,3.691,3.7542,3.7283,3.8822,3.9101,3.7318,3.7944,3.777,3.6304,3.59,3.5718,3.5753,3.5725,3.5688,3.5669,3.7287,3.8131,3.818,3.92,4.0008,4.0562,4.0258,4.0142,4.0181,4.1008,4.0912,4.0181,4.0719,4.0758,4.0489,4.0489,4.0681,4.1046,4.2024,4.2414,4.2337,3.3128,3.391,3.4334,3.381,3.4874,3.569,3.5422,3.5491,3.6003,3.7179,3.734,3.7814,3.9103,3.822,3.7222,3.6393,3.5783,3.499,3.3955,3.4135,3.393,3.308,3.3877,3.3858,3.2813,3.3398,3.3899,3.4213,3.396,3.3965,3.4198,3.3082,3.2999,3.3765,3.3767,3.4245,3.5097,3.5663,3.6249,3.6748,3.6553,3.6842,3.7257,3.6086,3.6106,3.6624,3.5921,3.5654,3.5603,3.5526,3.6252,3.6991,3.5892,3.7088,3.8535,3.6889,3.7145,3.7993,3.805,3.7493,3.729,3.8979,3.8144,3.7281,3.8653,3.8748,3.8338,3.7514,3.8493,3.8833,3.6696,3.7665,3.8148,3.6187,3.6615,3.6816,0.0,3.5506,3.5125,3.4211,3.5657,3.6645,3.6404,3.7919,3.8086,3.6087,3.7219,3.7265,3.553,3.5668,3.582,3.5821,3.5807,3.5803,3.5766,3.7063,3.7732,3.7777,3.8488,3.9123,3.9657,3.9084,3.8834,3.8873,3.9392,3.9488,3.9335,3.9854,4.0239,4.0489,4.0489,4.0489,4.0543,4.0904,4.1043,4.1058,3.3315,3.3981,3.457,3.4614,3.5156,3.5867,3.6679,3.7442,3.8501,4.0089,4.0321,4.063,4.1418,4.0076,3.8767,3.7942,3.6488,3.5542,3.5377,3.477,3.393,3.2847,3.3824,3.3613,3.192,3.3602,3.495,3.5885,3.5071,3.5088,3.5853,3.4228,3.3867,3.4599,3.4612,3.5075,3.5899,3.5899,3.5931,3.5976,3.5788,3.5825,3.5982,3.5695,3.669,3.7958,3.6215,3.5603,3.5603,3.5526,3.5493,3.5493,3.5493,3.5493,3.5493,3.5493,3.5565,3.593,3.7469,3.7358,3.7219,3.8857,3.8009,3.7006,3.7816,3.7462,3.7139,3.7791,3.8728,3.8911,3.7244,3.8369,3.8722,3.6216,3.656,3.6558,3.487,3.4671,3.4359,3.3439,3.4811,3.6114,3.6858,3.7075,3.6816,3.5935,3.6676,3.6426,3.4707,3.5488,3.5906,3.5723,3.5903,3.5962,3.592,3.6645,3.7063,3.7203,3.7695,3.8027,3.8176,3.8007,3.793,3.793,3.7988,3.8469,3.9238,3.9277,3.9758,4.0489,4.045,4.0412,4.0277,3.9604,3.9411,3.9569,3.5059,3.5282,3.5666,3.6326,3.5922,3.5844,3.6742,3.7588,3.8678,4.0226,4.0577,4.0943,4.1635,4.023,3.915,3.8919,3.7954,3.707,3.6387,3.6138,3.51,3.3051,3.3788,3.35,3.1857,3.3583,3.4905,3.5747,3.5626,3.5655,3.5805,3.4768,3.4378,3.4531,3.4528,3.5045,3.5898,3.5898,3.5942,3.5976,3.5788,3.6532,3.7583,3.6092,3.6601,3.7904,3.6215,3.5584,3.5526,3.5526,3.5493,3.5493,3.5493,3.5493,3.5493,3.5493,3.5526,3.5622,3.6026,3.5993,3.6122,3.7151,3.7055,3.6958,0.0,3.7858,3.7616,3.7199,3.7797,3.7899,3.6312,3.6853,3.7182,3.606,3.6118,3.5703,3.3973,3.4291,3.4135,3.2608,3.3964,3.4831,3.4387,3.4964,3.5013,3.4139,3.488,3.5169,3.4707,3.5527,3.5976,3.5929,3.5975,3.5992,3.5981,3.6704,3.7072,3.7049,3.7142,3.7488,3.8027,3.7334,3.7026,3.7065,3.7719,3.8123,3.8373,3.9027,3.9758,4.0431,3.9835,3.92,3.8777,3.9796,4.02,4.0258,3.5753,3.5727,3.593,3.643,3.6619,3.7093,3.8294,3.8498,3.9227,4.1238,4.0992,4.0889,4.1632,4.0588,3.9681,3.9315,3.8854,3.8339,3.7794,3.7064,3.6027,3.4639,3.3972,3.3057,3.1826,3.3132,3.4439,3.5709,3.5775,3.6184,3.6864,3.5703,3.5148,3.5112,3.5108,3.5405,3.5898,3.5925,3.6161,3.6484,3.5924,3.6319,0.0,3.593,3.6111,3.6845,3.5886,3.5545,3.5493,3.5493,3.5493,3.5493,3.5493,3.5493,3.5493,3.5493,3.5493,3.5493,3.5493,3.5493,3.5622,3.6065,3.618,3.6397,3.7213,3.7401,3.7296,3.6815,3.7392,3.7522,3.5913,3.6221,3.6517,3.5872,3.5899,3.5511,3.4156,3.405,3.3773,3.2784,3.3523,3.3939,3.3445,3.4185,3.4171,3.293,3.3999,3.4361,3.36,3.5115,3.582,3.5449,3.6172,3.6387,3.5996,3.6708,3.6844,3.6433,3.6325,3.6512,3.6892,3.6411,3.6372,3.6738,3.7219,3.7853,3.8604,3.9104,3.9758,4.0412,3.9604,3.8988,3.8642,3.92,3.9411,3.9508,3.5921,3.5905,3.5987,3.611,3.7413,3.9007,4.0609,4.0073,4.0272,4.2527,4.1623,4.0984,4.1564,4.0941,4.0219,3.9508,3.945,3.94,3.9282,3.7771,3.6752,3.6466,3.4178,3.2513,3.1637,3.2422,3.3774,3.5669,3.5588,3.6415,3.8082,3.6597,3.5826,3.5721,3.5838,3.5838,3.5749,3.6043,3.6444,3.6796,3.6021,3.5708,3.5699,3.5565,3.5493,3.5493,3.5493,3.5493,3.5493,3.5493,3.5493,3.5493,3.5493,3.5493,3.5493,3.5493,3.5493,3.5493,3.5493,3.5493,3.5493,3.5493,3.5493,3.5671,3.6309,3.6507,3.6536,3.6462,3.7102,3.7238,3.5776,3.6041,3.6271,3.567,3.5798,3.5664,3.4804,3.4023,3.3494,3.3402,3.3474,0.0,3.3246,3.4017,3.3905,3.2382,3.3668,3.3868,3.2348,3.4537,3.5429,3.4551,3.5996,3.6484,3.584,3.6294,3.6246,3.5706,3.5454,3.5411,3.5493,3.5493,3.5892,3.6546,3.6661,3.7623,3.9142,3.9238,3.9642,4.0123,3.9642,3.9315,3.9065,3.8527,3.8257,3.8373,3.653,3.7012,3.7507,3.7743,3.8977,4.0578,4.2441,4.2598,4.2618,4.285,4.2785,4.247,4.1838,4.1008,4.0431,4.0296,4.0277,4.0277,4.0261,3.87,3.7147,3.5748,3.3942,3.2256,3.0678,3.1546,3.3164,3.5534,3.4936,3.5493,3.713,3.6231,3.5433,3.4769,3.5507,3.5441,3.4928,3.6425,3.6324,3.5175,3.5554,3.5708,3.5699,3.5565,3.5493,3.5493,3.5493,3.5493,3.5493,3.5493,3.5493,3.5493,3.5493,3.5493,3.5493,3.5493,3.5493,3.5493,3.5493,3.5493,3.5493,3.5493,3.5493,3.5532,3.5652,3.5705,3.5705,3.5691,3.582,3.5853,3.5551,3.5641,3.5705,3.5476,3.5619,3.546,3.4661,3.4403,3.4066,3.3408,3.3841,3.3735,3.245,3.3125,3.3502,3.319,3.3459,3.35,3.3195,3.4289,3.4537,3.3652,3.3926,3.4355,3.4922,3.4275,3.4546,3.5695,3.4892,3.4853,3.5493,3.5493,3.5584,3.5757,3.6411,3.7276,3.8277,3.8988,3.895,3.8565,3.9796,3.9431,3.8373,3.9604,3.9642,3.9104,3.6631,3.6612,3.6906,3.8007,3.9445,4.0916,4.2272,4.3236,4.3615,4.3092,4.195,4.1139,4.1094,4.0742,4.0489,4.0489,4.0104,3.9873,3.9873,3.8277,3.6776,3.5551,3.3859,3.2359,3.1102,3.1068,3.2499,3.5402,3.466,3.5384,3.7392,3.6701,3.5912,3.5124,3.5124,3.563,3.6484,3.6105,3.5981,3.5987,3.5857,3.5753,3.5699,3.5603,3.5545,3.5493,3.5493,3.5493,3.5493,3.5493,3.5493,3.5493,3.5493,3.5493,3.5493,3.5493,3.5493,3.5493,3.5493,3.5493,3.5493,3.5493,3.5493,3.5493,3.5493,3.5493,3.5493,3.5493,3.5493,3.5479,3.5403,3.5785,3.5959,3.5482,3.5883,3.5998,3.5222,3.4758,3.4351,3.3977,3.3874,3.3713,3.3425,3.3395,3.3014,3.2072,3.3285,3.3467,3.2078,3.3716,3.4094,3.2773,3.3592,3.4062,3.4023,3.3957,3.408,3.4392,3.4289,3.4449,3.4834,3.5295,3.5738,3.6142,3.6526,3.745,3.8738,3.9565,3.9346,3.852,3.9016,3.8351,3.7179,3.7709,3.82,3.8738,3.7332,3.6942,3.7118,3.8692,4.0284,4.152,4.2016,4.3222,4.3758,4.2934,4.1081,3.9985,4.0389,4.0476,4.0489,4.0489,3.9912,3.9469,3.9296,3.7834,3.6526,3.5532,3.3833,3.2526,3.1718,3.0852,3.1834,3.4793,3.4364,3.5347,3.7665,3.7283,3.6613,3.5708,3.5252,3.5863,3.7161,3.5624,3.5624,3.6618,3.6101,3.5827,3.5688,3.563,3.5565,3.5493,3.5493,3.5493,3.5493,3.5493,3.5493,3.5493,3.5493,3.5493,3.5493,3.5493,3.5493,3.5493,3.5493,3.5493,3.5493,3.5493,3.5493,3.5493,3.5493,3.5493,3.5493,3.5493,3.5493,3.5465,3.5308,3.5886,3.6139,3.5496,3.6032,3.6309,3.5738,3.4955,3.4436,3.4469,3.371,3.343,3.3972,3.3757,3.2856,3.1092,3.2923,3.3282,3.1359,3.2908,3.3292,3.2099,3.3231,3.3711,3.3379,3.3567,3.3518,3.3195,3.3513,3.3853,3.4218,3.4911,3.568,3.6469,3.6815,3.792,3.9522,4.0087,3.9697,3.8728,3.8433,3.7611,3.6514,3.6297,3.6964,3.818,3.9871,4.019,4.0762,4.1349,4.2733,4.3617,4.3133,4.3145,4.2893,4.2047,4.172,4.1296,4.0566,4.0489,4.0489,4.0489,4.0431,4.0065,3.9354,3.8411,3.718,3.5584,3.3833,3.2526,3.1718,3.0852,3.1282,3.3109,3.3719,3.5023,3.6929,3.7525,3.7083,3.5825,3.6541,3.5745,0.0,3.5295,3.5508,3.4998,3.5644,3.5815,3.5698,3.5623,3.5565,3.5493,3.5493,3.5493,3.5493,3.5493,3.5493,3.5493,3.5493,3.5493,3.5493,3.5493,3.5493,3.5493,3.5493,3.5493,3.5493,3.5493,3.5493,3.5493,3.5493,3.5493,3.5493,3.5493,3.5493,3.5465,3.5308,3.5469,3.5537,3.5331,3.5479,3.5603,3.5545,3.4776,3.4237,3.4308,3.3506,3.2717,3.2193,3.3405,3.3539,3.1907,3.2086,3.2492,3.3026,3.1799,3.1325,3.189,3.1428,3.1855,3.3301,3.1746,3.1728,3.3195,3.2338,3.2737,3.4199,3.4276,3.4795,3.5699,3.7219,3.8687,4.0005,3.9781,3.9176,3.8433,3.9157,3.8607,3.747,3.8213,3.8276,3.8027,4.096,4.0807,4.1074,4.2357,4.3088,4.3609,4.3915,4.3893,4.3355,4.2098,4.1389,4.0893,4.0527,4.0489,4.0489,4.0489,3.9585,3.8854,3.8546,3.7257,3.5968,3.4776,3.3545,3.2526,3.1718,3.0852,3.1168,3.279,3.4002,3.5229,3.6463,3.6821,3.6229,3.482,0.0,3.3976,3.4078,3.4287,3.4197,3.3984,3.4844,3.4786,3.425,3.4755,3.4859,3.4718,3.4718,3.5064,3.5353,3.4295,3.4641,3.5493,3.5493,3.5493,3.5493,3.5493,3.5493,3.5493,3.5493,3.5493,3.5493,3.5493,3.5493,3.5493,3.5493,3.5493,3.5493,3.5493,3.5493,3.5493,3.5417,3.5791,3.5963,3.5479,3.5791,3.5786,3.4839,3.441,3.3833,3.2852,3.2436,3.2139,3.1865,3.2935,3.36,3.3468,3.3925,3.3944,3.3332,3.2638,3.2679,3.3543,3.1814,3.1651,3.3276,3.1508,3.1188,3.2358,3.2403,3.3045,3.4218,3.4737,3.536,3.6045,3.7032,3.806,3.9056,3.9437,3.8992,3.8053,3.8098,3.737,3.633,3.6521,3.674,3.7009,4.2221,4.1876,4.2026,4.3621,4.3888,4.4023,4.4449,4.4393,4.3737,4.2156,4.1312,4.0777,4.0527,4.0489,4.0489,4.0489,3.92,3.8277,3.8027,3.6661,3.5372,3.4237,3.3372,3.2526,3.1718,3.0852,3.0938,3.2015,3.3506,3.4524,3.515,3.5734,0.0,0.0,3.2638,3.2744,3.3691,3.3138,3.3062,3.3418,3.4043,3.3859,3.3288,3.3892,3.4007,3.3853,3.3814,3.4218,3.4545,3.3314,3.3718,3.4737,3.4737,3.4911,3.5122,3.5122,3.5122,3.518,3.543,3.5493,3.5493,3.5493,3.5493,3.5493,3.5493,3.5493,3.5493,3.5493,3.5493,3.5397,3.5053,3.54,3.5484,3.4769,3.499,3.4901,3.3942,3.3544,3.2935,3.1859,3.1488,3.1341,3.1328,3.2089,3.2875,3.3563,3.456,3.4594,3.3313,3.2767,3.3004,3.4126,3.2229,3.1835,3.3205,3.1941,3.1478,3.1821,3.2564,3.3353,3.4218,3.5264,3.6211,3.7033,3.7244,3.7803,3.8587,3.9114,3.8712,3.7718,3.738,3.6502,3.5477,3.5299,3.5533,3.5961,4.4,4.4113,4.4497,4.5587,4.5776,4.547,4.4626,4.4376,4.3701,4.2027,4.1797,4.147,4.0585,4.0489,4.0489,4.0489,3.9738,3.8911,3.8065,3.718,3.5949,3.4257,3.3372,3.2526,3.1718,3.0852,3.0398,3.0436,3.1705,3.2439,3.2695,0.0,3.4289,3.2825,3.2949,3.2583,3.1931,3.1926,3.2459,3.3301,3.3301,3.3301,3.3298,3.3236,3.3128,3.3019,3.2936,3.291,3.2929,3.291,3.291,3.2929,3.2929,3.3526,3.4218,3.4218,3.4218,3.4391,3.5276,3.5493,3.5493,3.5493,3.5493,3.5493,3.5493,3.5493,3.5493,3.5493,3.5493,3.5163,3.4041,3.3837,3.3554,3.2772,3.2421,3.2419,3.2852,3.1996,3.1441,3.1757,3.0861,3.0218,3.0205,3.0769,3.1245,3.1514,3.2972,3.3623,3.3134,3.148,3.1268,3.2865,3.2259,3.2256,3.2992,3.2976,3.2577,3.1821,3.2564,3.3353,3.4257,3.5646,3.7203,3.8728,3.8139,3.8346,3.9053,3.8833,3.8212,3.7507,3.7507,3.6676,3.5504,3.5485,3.5329,3.5089,4.5111,4.5149,4.5264,4.5605,4.5643,4.5586,4.5413,4.4759,4.3929,4.2893,4.22,4.147,4.0585,4.0489,4.0489,4.0489,3.9219,3.8296,3.8027,3.668,3.5391,3.4237,3.3372,3.2526,3.1718,3.0852,3.0398,3.0398,3.1616,0.0,0.0,3.2826,3.2317,3.091,3.1117,3.1121,3.0979,3.1572,3.169,3.1515,3.2104,3.1985,3.1529,3.2108,3.2269,3.2172,3.216,3.2468,3.2737,3.1583,3.1948,3.2699,3.1564,3.2179,3.3314,3.3314,3.3718,3.4257,3.4545,3.5045,3.5493,3.5493,3.5493,3.5493,3.5493,3.5493,3.5493,3.5493,3.5354,3.492,3.399,3.3648,3.3277,3.2462,3.2416,3.2308,3.1876,3.1678,3.1175,3.009,3.0194,3.0049,2.9313,3.0445,3.1458,3.1993,3.2971,3.3408,3.3191,3.3118,3.3607,3.4766,3.3489,0.0,3.3948,3.332,3.2846,3.2564,3.3391,3.4438,3.563,3.5913,3.6826,3.8158,3.7775,3.8077,3.8778,3.8143,3.7716,3.7397,3.6248,3.5533,3.5116,3.4736,3.4558,3.4417,4.5586,4.5624,4.568,4.568,4.568,4.5603,4.5353,4.4737,4.391,4.2816,4.2162,4.1354,4.0181,4.0046,4.0046,4.0046,3.8796,3.7853,3.7526,3.5949,3.4622,3.3737,3.2891,3.2064,3.1237,3.0679,0.0,3.0398,3.0972,3.111,3.0813,3.1049,3.0694,2.9893,3.0136,3.033,3.0506,3.1037,3.0999,3.0614,3.1167,3.1062,3.066,3.1186,3.1352,3.1306,3.1275,3.1571,3.1795,3.0756,3.1102,3.1775,3.0737,3.1121,3.2025,3.2352,3.2833,3.3391,3.4026,3.4603,3.5084,3.543,3.5493,3.5493,3.5493,3.5493,3.5493,3.5493,3.5289,3.4802,3.3819,3.3185,3.2539,3.1731,3.1486,3.1265,3.0876,3.0953,3.0702,2.9737,3.0028,3.001,2.9238,3.0037,3.0782,3.1167,3.2298,3.2762,3.2357,3.347,3.4375,3.4976,3.407,3.382,3.4315,3.4064,3.3743,3.3391,3.4482,3.5621,3.6747,3.6672,3.7255,3.83,3.7745,3.7771,3.8193,3.7367,3.6853,3.6468,3.5422,3.4807,3.4513,3.4171,3.3937,3.3701,4.5586,4.5699,4.5796,4.5796,4.5796,4.5488,4.4622,4.4333,4.3643,4.2008,4.1758,4.1085,3.9469,3.9296,3.9238,3.9123,3.8373,3.7565,3.6757,3.518,3.3872,3.2949,3.2179,3.1352,3.0417,3.0398,3.0398,3.0367,2.9912,2.9475,2.9021,2.9289,2.9494,2.9696,2.9908,3.0136,3.0355,3.0398,3.0436,3.0463,3.0494,3.0525,3.0583,3.0525,3.0506,3.0487,3.0417,3.0398,3.0398,3.0398,3.0398,3.0398,3.0398,3.0398,3.0552,3.1371,3.166,3.2045,3.366,3.4141,3.441,3.5276,3.5493,3.5493,3.5493,3.5493,3.5493,3.5493,3.5216,3.4656,3.3601,3.2514,3.1517,3.0692,2.9971,2.9626,2.9924,3.0013,3.0122,3.0367,3.0299,3.0094,2.9757,2.9608,2.9532,2.9561,3.1166,3.1845,3.1149,3.2876,3.3849,3.3808,3.4122,3.4257,3.4199,3.5064,3.507,3.4282,3.5589,3.6651,3.7452,3.7652,3.8234,3.9007,3.7893,3.747,3.7422,3.656,3.5734,3.499,3.4935,3.4468,3.3788,3.3733,3.3407,3.292,4.5586,4.5624,4.5643,4.5643,4.5643,4.5353,4.4487,4.3794,4.3002,4.1944,4.1216,4.0412,3.9411,3.9296,3.8757,3.743,3.7142,3.693,3.6719,3.5757,3.4507,3.2968,3.2718,3.1929,3.0417,3.0398,3.0299,3.0089,2.9829,2.957,2.931,2.9372,2.9433,2.9493,2.9845,2.9939,2.988,3.026,3.0299,3.0142,3.033,3.0467,3.0525,3.0506,3.0506,3.0506,3.0487,3.0448,3.0398,3.0398,3.0398,3.0398,3.0398,3.0398,3.0436,3.066,3.1179,3.1929,3.2929,3.368,3.441,3.5276,3.5493,3.5493,3.5493,3.5493,3.5493,3.5493,3.4585,3.3715,3.345,3.2362,3.1231,3.0438,3.0439,3.0358,2.9841,3.008,3.0093,2.9506,2.9982,3.0011,2.9125,2.9406,3.0114,3.1208,3.1481,3.2056,3.3111,3.4022,3.4282,3.3808,3.4717,3.4872,3.4199,3.5064,3.5288,3.4885,3.5217,3.5912,3.6873,3.6317,3.7079,3.873,3.7243,3.6927,3.7397,3.5917,3.5174,3.4935,3.4321,3.3972,3.3733,3.3109,3.2812,3.2514,4.5586,4.5586,4.5586,4.5586,4.5278,4.472,4.3874,4.3044,4.2178,4.1328,4.0793,4.0181,3.9377,3.895,3.8161,3.6815,3.6699,3.6546,3.618,3.5372,3.4314,3.2968,3.2545,3.1737,3.0417,3.0398,3.0267,2.9999,2.9796,2.9607,2.9392,2.9267,2.9289,2.9412,2.9644,2.9713,2.9713,2.9977,3.0007,2.9877,3.0122,3.0228,3.0279,3.0412,3.0448,3.0448,3.0448,3.0417,3.0398,3.0398,3.0398,3.0398,3.0398,3.0398,3.0398,3.0398,3.0737,3.1371,3.2564,3.3256,3.391,3.518,3.5493,3.5493,3.5493,3.5493,3.5493,3.5493,3.4789,3.4131,3.4017,3.2966,3.1813,3.0895,3.0828,3.0621,2.9809,3.008,3.0194,2.9756,3.0121,3.0126,2.9417,2.9888,3.0547,3.1243,3.1811,3.2625,3.3795,3.4375,3.4546,3.4206,3.4942,3.509,3.463,3.4958,3.507,3.4926,3.5171,3.5788,3.6682,3.6496,3.7054,3.8083,3.6835,3.6321,3.6266,3.4981,3.4468,3.4376,3.3568,3.3256,3.3146,3.2357,3.1825,3.1384,4.5586,4.5586,4.5586,4.5586,4.4876,4.403,4.3222,4.2357,4.1489,4.0604,4.0489,4.02,3.9396,3.8512,3.7642,3.6776,3.6603,3.6238,3.5532,3.468,3.3814,3.2949,3.2122,3.1295,3.0417,3.0398,3.0299,3.0061,2.9845,2.9661,2.9474,2.9228,2.9203,2.9412,2.9434,2.9513,2.9607,2.9678,2.9678,2.9678,2.9877,2.9969,3.0028,3.0254,3.0367,3.0398,3.0398,3.0398,3.0398,3.0398,3.0398,3.0398,3.0398,3.0398,3.0398,3.0398,3.0398,3.0775,3.2449,3.3083,3.366,3.5141,3.5493,3.5493,3.5493,3.5493,3.5493,3.5493,3.5159,3.481,3.4715,3.3746,3.2678,3.1893,3.1477,3.0998,3.0186,3.0428,3.0674,3.059,3.0686,3.0695,3.0472,3.0867,3.1111,3.1022,3.2247,3.3295,3.3962,3.4381,3.4689,3.4821,3.5001,3.5162,3.5295,3.5002,3.4919,3.5007,3.5455,3.6068,3.6827,3.7034,3.7239,3.7452,3.6376,3.5569,3.4935,3.4137,3.3733,3.355,3.2871,3.254,3.232,3.1513,3.0797,3.0173,4.5586,4.5586,4.5586,4.5586,4.4874,4.4028,4.322,4.2374,4.1489,4.0604,4.0489,4.0181,3.9392,3.8527,3.7642,3.6776,3.6084,3.5641,3.5526,3.468,3.3814,3.2949,3.2122,3.1295,3.0417,3.0398,3.0367,3.0343,3.0075,2.9939,2.9908,2.9677,2.9514,2.9412,2.957,2.9456,2.9138,2.9533,2.9607,2.9455,2.9661,2.9845,3.0013,3.0061,3.0209,3.0398,3.0398,3.0398,3.0398,3.0398,3.0398,3.0398,3.0398,3.0398,3.0398,3.0398,3.0398,3.0775,3.2449,3.3987,3.5161,3.543,3.5493,3.5493,3.5493,3.5493,3.5493,3.5493,3.4511,3.3885,3.4582,3.3585,3.2831,3.333,3.3198,3.2712,3.1864,3.218,3.2256,3.1583,3.2102,3.2494,3.2449,3.2393,3.2514,3.2918,3.2991,3.3536,3.4743,3.4464,3.4624,3.5352,3.5211,3.5431,3.6099,3.5854,3.5938,3.6391,3.6472,3.6811,3.7327,3.6001,3.6156,3.7367,3.5147,3.4504,3.4935,3.4137,3.3403,3.2779,3.2669,3.2192,3.1476,3.0687,3.032,3.0099,4.5586,4.522,4.4893,4.4893,4.3818,4.2838,4.247,4.1662,4.095,4.0546,4.0489,4.0196,3.9388,3.8507,3.7642,3.6776,3.5968,3.5493,3.5493,3.468,3.3814,3.2949,3.2122,3.1295,3.0417,3.0398,3.0398,3.0398,3.0136,2.9999,2.9999,2.9796,2.9589,2.9412,2.9494,2.9353,2.8998,2.9249,2.927,2.9222,2.9435,2.9589,2.9696,2.9796,2.9912,3.0037,3.0155,3.0177,3.0209,3.0355,3.0398,3.0398,3.0398,3.0398,3.0398,3.0398,3.0737,3.1275,3.2045,3.3506,3.4795,3.4795,3.5488,3.6045,3.5603,3.5853,3.6026,3.5603,3.4882,3.4377,3.4639,3.3657,3.289,3.3117,3.2776,3.2355,3.1984,3.2365,3.256,3.2173,3.2595,3.2891,3.2891,3.3111,3.3289,3.3392,3.3556,3.4056,3.4945,3.4344,3.4375,3.5206,3.53,3.5396,3.5614,3.5957,3.6252,3.65,3.65,3.662,3.6817,3.6046,3.5881,3.6101,3.4945,3.4412,3.4302,3.3495,3.2944,3.2522,3.1659,3.1091,3.065,2.9861,2.9549,2.9512,4.5047,4.447,4.4008,4.4025,4.2799,4.1802,4.1797,4.1046,4.0489,4.0489,4.0489,4.0196,3.9388,3.8507,3.7642,3.6776,3.5968,3.5493,3.5493,3.4487,3.3603,3.2929,3.1948,3.1083,3.0398,3.0398,3.0398,3.0398,3.0196,3.0061,2.9999,2.9912,2.9713,2.9474,2.9474,2.9332,2.9089,2.904,2.8994,2.9017,2.9225,2.9351,2.9433,2.957,2.9661,2.9731,2.9877,2.9969,3.0028,3.0241,3.0355,3.0398,3.0398,3.0398,3.0398,3.0398,3.0871,3.1487,3.1872,3.3064,3.4237,3.4449,3.5468,3.6257,3.5641,3.5988,3.6243,3.5547,3.519,3.4926,3.4653,3.3807,3.3191,3.3154,0.0,3.2307,3.2348,3.273,3.2968,3.2822,3.3164,3.3434,3.3506,3.3921,3.4063,3.3732,3.4258,3.4705,3.4981,3.4412,3.4376,3.4972,3.5269,3.5488,3.5662,3.6287,3.667,3.6853,3.667,3.6578,3.656,3.6174,3.5642,3.499,3.4789,3.4266,3.3476,3.2852,3.2394,3.1935,3.0687,3.0099,2.9861,2.9214,2.8994,2.8994,4.3431,4.3239,4.3181,4.3195,4.2428,4.1797,4.179,4.1062,4.0489,4.0489,4.0489,4.0181,3.9392,3.8527,3.7642,3.6776,3.5968,3.5493,3.5493,3.393,3.2968,3.2891,3.1371,3.0456,3.0398,3.0398,3.0398,3.0398,3.0367,3.0254,3.0013,3.0241,3.0114,2.9678,2.9678,2.957,2.9351,2.9112,2.8994,2.9017,2.9017,2.9178,2.9412,2.9433,2.9551,2.9713,2.9731,2.9845,2.9999,3.0013,3.0196,3.0398,3.0398,3.0398,3.0398,3.0398,3.0436,3.0833,3.2391,3.3487,3.4391,3.5199,3.5507,3.557,3.5512,3.5565,3.5508,3.519,3.4926,3.4632,3.4311,3.3956,3.3981,3.4724,0.0,0.0,3.4022,3.4317,3.4339,3.3756,3.4435,3.5031,3.5268,3.5359,3.5143,3.464,3.5313,3.5535,3.5046,3.4935,3.4935,3.499,3.5018,3.5883,3.7679,3.7505,3.779,3.8505,3.7753,3.7404,3.7379,3.5807,3.5045,3.4954,3.4211,3.344,3.2687,3.2632,3.1733,3.0375,3.0246,2.9751,2.9067,2.9012,2.8994,2.8994,4.3073,4.2502,4.2046,4.2261,4.143,4.0801,4.0969,4.0584,4.0321,4.0473,3.9912,3.9176,3.8333,3.7455,3.6613,3.579,3.559,3.5493,3.5493,3.4891,3.3583,3.1448,3.0737,3.0398,3.0398,3.0398,3.0398,3.0398,3.0398,3.0355,3.0254,3.0355,3.0228,2.9893,2.9893,2.9713,2.9392,2.9289,2.9156,2.8994,2.8994,2.9044,2.9156,2.9156,2.9203,2.9293,2.9455,2.9551,2.9661,2.9924,3.0075,3.0182,3.0355,3.0398,3.0398,3.0398,3.0794,3.1448,3.2583,3.3141,3.3603,3.4487,3.5488,3.6122,3.5622,3.5892,3.6027,3.5269,3.4889,3.4612,3.4246,3.358,3.333,3.4137,0.0,3.3382,3.3899,3.4213,3.4292,3.4081,3.4508,3.4889,3.4999,3.4999,3.4832,3.4423,3.5165,3.546,3.5018,3.5514,3.6028,3.6523,3.6541,3.6893,3.7626,3.8033,3.8395,3.8689,3.7863,3.7221,3.6707,3.555,3.4715,3.4247,3.3935,3.3241,3.2247,3.1756,3.0749,2.9476,2.8981,2.8577,2.8334,2.854,2.8633,2.8633,4.1973,4.1341,4.0841,4.1074,4.0463,4.0003,4.0175,4.0062,3.9908,3.9849,3.9204,3.8309,3.7186,3.6539,3.5836,3.5038,3.5138,3.5239,3.5239,3.4757,3.3451,3.1187,3.0502,3.0188,3.0188,3.0188,3.0188,3.0188,3.0188,3.0188,3.0188,3.0241,3.0136,2.9908,2.9908,2.9731,2.9392,2.931,2.9178,2.8994,2.8994,2.8994,2.8994,2.8994,2.8994,2.9021,2.9203,2.933,2.9434,2.9731,2.9893,3.0028,3.0209,3.0323,3.0398,3.0398,3.1025,3.1891,3.2679,3.3103,3.3526,3.4391,3.5468,3.6166,3.5518,3.5791,3.594,3.5002,3.4675,3.4464,3.4123,3.3467,3.3164,3.3715,3.355,3.3568,3.41,3.4589,3.4897,3.4976,3.5184,3.5362,3.5466,3.5447,3.5227,3.4652,3.5634,3.6133,3.5789,3.6358,3.6927,3.7489,3.7734,3.7863,3.7863,3.8414,3.8707,3.8689,3.7624,3.6817,3.6266,3.5147,3.4238,3.3606,3.3606,3.2809,3.1451,3.0912,2.9926,2.8652,2.8138,2.7897,2.7926,2.8156,2.8237,2.8237,3.9769,3.9599,3.9599,3.9599,3.9599,3.9599,3.9599,3.9599,3.9297,3.8508,3.8395,3.7734,3.6073,3.5885,3.5564,3.4769,3.4694,3.4694,3.4694,3.3128,3.2332,3.2584,3.0739,2.9696,2.9696,2.9696,2.9696,2.9696,2.9696,2.9696,2.9713,2.9908,2.9893,2.9696,2.9696,2.9589,2.9392,2.9112,2.9017,2.8994,2.8994,2.8994,2.8994,2.8994,2.8994,2.8994,2.8994,2.916,2.9392,2.9412,2.9661,2.9999,2.9999,3.0182,3.0398,3.0398,3.1025,3.1891,3.2679,3.3526,3.441,3.5276,3.5493,3.5432,3.5155,3.5105,3.4925,3.4315,3.42,3.4123,3.3868,3.3807,3.3807,3.3807,3.4486,3.499,3.499,3.5752,3.6408,3.6675,3.6682,3.6789,3.7077,3.7099,3.6648,3.5584,3.6987,3.7775,3.7507,3.7507,3.7507,3.7526,3.8285,3.8707,3.8707,3.8689,3.8689,3.867,3.7055,3.6285,3.6229,3.4559,3.3578,3.3196,3.3196,3.2038,3.0198,3.0198,2.9296,2.7897,2.7897,2.7897,2.7897,2.7897,2.7897,2.7897,3.9561,3.9414,3.9314,3.9552,3.9408,3.9314,3.9576,3.8901,3.8402,3.8411,3.722,3.6162,3.5675,3.5071,3.46,3.4375,3.4551,3.4694,3.4694,3.2949,3.195,3.2031,3.0527,2.9696,2.9696,2.9696,2.9696,2.9696,2.9696,2.9696,2.9696,2.9746,2.9765,2.9696,2.9696,2.9589,2.9392,2.931,2.916,2.8994,2.8994,2.8994,2.8994,2.8994,2.8994,2.8994,2.8994,2.9044,2.9156,2.933,2.9474,2.9644,2.9908,3.0042,3.015,3.0336,3.1025,3.1891,3.2679,3.3393,3.4163,3.5235,3.5493,3.5432,3.5155,3.5105,3.4925,3.4315,3.42,3.4123,3.3868,3.3807,3.3807,3.3807,3.4486,3.499,3.499,3.5752,3.6313,3.6408,3.6436,3.6445,3.6535,3.6535,3.6157,3.5219,3.5579,3.6343,3.7452,3.7507,3.7753,3.8322,3.8579,3.8707,3.8707,3.8138,3.7845,3.7826,3.6193,3.5404,3.5339,3.3996,3.3042,3.2401,3.2097,3.0818,2.9001,2.9001,2.8219,2.7051,2.7051,2.7051,2.7083,2.7378,2.747,2.747,3.9591,3.9305,3.9017,3.9216,3.91,3.9017,3.9216,3.8393,3.7708,3.758,3.6236,3.518,3.4872,3.4365,3.4043,3.4043,3.4213,3.433,3.433,3.2664,3.164,3.164,3.0232,2.9436,2.9436,2.9436,2.9436,2.9436,2.9436,2.9475,2.9589,2.9589,2.9589,2.9589,2.9589,2.9455,2.9246,2.9246,2.9156,2.8994,2.8994,2.8994,2.8994,2.8994,2.8994,2.8994,2.8994,2.8994,2.9021,2.92,2.931,2.9454,2.978,2.9939,3.0028,3.0196,3.1168,3.2263,3.2645,3.3521,3.4454,3.504,3.519,3.5105,3.4813,3.4736,3.4615,3.4123,3.4043,3.3986,3.3815,3.3807,3.3807,3.3807,3.4761,3.5404,3.5045,3.6028,3.6652,3.634,3.6303,3.6303,3.6303,3.6303,3.6083,3.5569,3.5514,3.6101,3.7422,3.7507,3.7716,3.8212,3.823,3.8101,3.7908,3.7314,3.7184,3.7459,3.5645,3.4754,3.4707,3.3484,3.2411,3.1538,3.1253,3.0016,2.8217,2.8217,2.7622,2.6691,2.6691,2.6691,2.6725,2.6954,2.7051,2.7051,3.9662,3.9258,3.8781,3.8707,3.8707,3.8707,3.8707,3.801,3.7202,3.6413,3.5624,3.4798,3.3899,3.3862,3.388,3.3807,3.3807,3.3807,3.3807,3.2284,3.1384,3.1384,2.9861,2.8994,2.8994,2.8994,2.8994,2.8994,2.8994,2.9134,2.9372,2.9372,2.9372,2.9372,2.9372,2.9225,2.8994,2.8994,2.8994,2.8994,2.8994,2.8994,2.8994,2.8994,2.8994,2.8994,2.8994,2.8994,2.8994,2.8994,2.9178,2.9394,2.9607,2.9796,2.9954,2.9969,3.1278,3.2678,3.2527,3.3682,3.4868,3.4695,3.4632,3.4569,3.4246,3.42,3.4123,3.3868,3.3807,3.3807,3.3807,3.3807,3.3807,3.3807,3.5147,3.5936,3.521,3.6431,3.7129,3.6486,3.634,3.6303,3.6303,3.6303,3.6303,3.6303,3.6303,3.6652,3.7441,3.7507,3.7477,3.7448,3.7503,3.7215,3.6564,3.6279,3.6545,3.7223,3.5229,3.4266,3.4186,3.2986,3.1774,3.0595,3.0578,2.9471,2.7688,2.7688,2.7317,2.6691,2.6691,2.6691,2.6691,2.6691,2.6691,2.6691,3.9056,3.9331,3.9441,3.8817,3.8707,3.8707,3.8707,3.801,3.7202,3.6413,3.6138,3.5459,3.3954,3.4376,3.4504,3.3844,3.3807,3.3807,3.3807,3.2284,3.1384,3.1384,2.9861,2.8994,2.8994,2.8994,2.8994,2.8994,2.8994,2.904,2.9089,2.9089,2.9089,2.9089,2.9089,2.9044,2.8994,2.8994,2.8994,2.8994,2.8994,2.8994,2.8994,2.8994,2.8994,2.8994,2.8994,2.8994,2.8994,2.8994,2.904,2.9134,2.9394,2.9494,2.9551,2.9731,3.0516,3.146,3.2107,3.2861,3.3571,3.4184,3.4141,3.4037,3.4171,3.42,3.4123,3.3868,3.3807,3.3807,3.3807,3.3807,3.3807,3.3807,3.4633,3.5459,3.5954,3.6321,3.6725,3.7184,3.667,3.6303,3.6303,3.6303,3.6303,3.6303,3.6303,3.6652,3.7441,3.7507,3.7339,3.6953,3.7519,3.7012,3.5312,3.5168,3.5202,3.5363,3.4083,3.3265,3.2897,3.2249,3.1185,2.9832,2.9521,2.8438,2.6945,2.6945,2.6843,2.6691,2.6691,2.6691,2.6691,2.6691,2.6691,2.6691,3.9276,3.9294,3.9184,3.8781,3.8707,3.8707,3.8707,3.801,3.7331,3.6927,3.6174,3.5349,3.4486,3.4412,3.4266,3.3844,3.3615,3.3597,3.3788,3.1919,3.1,3.1384,2.9512,2.8651,2.8994,2.8815,2.8815,2.8994,2.8994,2.8994,2.8994,2.8994,2.8994,2.8994,2.8994,2.9195,2.9549,2.914,2.9237,2.9549,2.914,2.8994,2.8994,2.8994,2.8994,2.8994,2.8994,2.8994,2.8994,2.8994,2.8994,2.9021,2.916,2.9289,2.9414,2.9532,3.049,3.1582,3.1917,3.2761,3.3626,3.3951,3.3902,3.3842,3.3986,3.3993,3.3961,3.3815,3.3807,3.3807,3.3807,3.3807,3.3807,3.3807,3.4816,3.5642,3.5679,3.6046,3.6303,3.6303,3.5605,3.511,3.511,3.5459,3.5679,3.5679,3.6413,3.693,3.713,3.7116,3.6888,3.6397,3.6738,3.6327,3.5054,3.5241,3.4918,3.4116,3.3037,3.24,3.2127,3.1696,3.0722,2.9299,2.9102,2.8112,2.6691,2.6691,2.6691,2.6691,2.6691,2.6691,2.6691,2.6691,2.6691,2.6657,3.9588,3.9276,3.8854,3.8726,3.8707,3.8707,3.8707,3.812,3.7672,3.7514,3.6285,3.5302,3.5027,3.4284,3.3762,3.3707,3.3378,3.3314,3.356,3.1456,3.0499,3.117,2.908,2.8174,2.8791,2.8616,2.8685,2.8994,2.8994,2.8994,2.8994,2.8994,2.8994,2.8994,2.8994,2.9384,2.9953,2.9292,2.9402,2.9953,2.925,2.8994,2.8994,2.8994,2.8994,2.8994,2.8994,2.9085,2.9177,2.9049,2.9085,2.9177,2.903,2.9156,2.933,2.933,3.054,3.1803,3.1589,3.2692,3.387,3.3647,3.3697,3.3807,3.3807,3.3807,3.3807,3.3807,3.3807,3.3807,3.3807,3.3807,3.3844,3.399,3.5165,3.5936,3.5495,3.5807,3.5917,3.5495,3.4596,3.3954,3.3807,3.4669,3.5164,3.5089,3.6607,3.7348,3.6802,3.6802,3.647,3.5821,3.5925,3.5644,3.4898,3.5388,3.4896,3.3389,3.2385,3.1817,3.1696,3.1351,3.0378,2.9011,2.9011,2.8112,2.6691,2.6691,2.6691,2.6691,2.6691,2.6691,2.6691,2.6691,2.6691,2.6624,3.8982,3.9331,3.9515,3.8817,3.8707,3.8707,3.8707,3.8615,3.8285,3.7569,3.7294,3.6615,3.5155,3.4284,3.3652,3.3302,3.3237,3.3051,3.2713,3.1142,3.0242,3.035,2.877,2.7954,2.8037,2.8621,2.8945,2.8994,2.8994,2.8994,2.8994,2.8994,2.8994,2.8994,2.8994,2.9049,2.914,2.9049,2.9049,2.914,2.903,2.8994,2.8994,2.8994,2.8994,2.8994,2.8994,2.9457,2.9934,2.9214,2.9475,2.9934,2.9237,2.9021,2.9044,2.9044,2.9734,3.0457,3.0428,3.1581,3.2812,3.2761,3.3293,3.3807,3.3807,3.3807,3.3807,3.3807,3.3807,3.3807,3.3807,3.3807,3.4027,3.4715,3.5027,3.5642,3.6964,3.6028,3.5679,3.7,3.5789,3.4578,3.3862,3.5202,3.5937,3.548,3.6913,3.7646,3.718,3.7126,3.66,3.5431,3.5977,3.5473,3.3643,3.4321,3.4287,3.3389,3.2608,3.1902,3.1291,3.123,3.0378,2.9011,2.9011,2.8112,2.6691,2.6691,2.6691,2.6691,2.6691,2.6691,2.6691,2.6691,2.6691,2.6624,3.8781,3.9001,3.9129,3.8762,3.8707,3.8707,3.8707,3.8707,3.8579,3.8212,3.7771,3.7037,3.5862,3.4392,3.339,3.3214,3.2755,3.2497,3.2517,3.0641,2.9719,3.0168,2.8289,2.7439,2.7897,2.8012,2.8158,2.8404,2.9011,2.9112,2.8658,2.8887,2.8994,2.8994,2.8994,2.9255,2.9641,2.92,2.925,2.9641,2.9177,2.8994,2.8994,2.8994,2.8994,2.8994,2.8994,2.9214,2.9494,2.9104,2.9232,2.9475,2.9104,2.8994,2.8994,2.8994,2.9586,3.021,3.021,3.1054,3.2045,3.2504,3.2871,3.3256,3.3697,3.4156,3.4357,3.3899,3.3807,3.3807,3.3807,3.3807,3.4064,3.4862,3.5422,3.6138,3.7312,3.6486,3.5826,3.6083,3.5881,3.5587,3.522,3.6006,3.6445,3.6182,3.7004,3.7285,3.6764,3.6764,3.6365,3.5489,3.5753,3.5547,3.4658,3.4962,3.4539,3.3406,3.3068,3.2527,3.1782,3.1376,3.0378,2.9011,2.9011,2.8112,2.6691,2.6691,2.6691,2.6691,2.6691,2.6691,2.6691,2.6691,2.6539,2.6227]},{"header":{"parameterUnit":"m.s-1","parameterCategory":1,"la1":30.6,"la2":28.766,"lo1":-90.7593,"lo2":-88.6598,"dy":0.0162,"dx":0.0183,"nx":116,"ny":114,"refTime":"2023-09-08T18:00:00:Z","depth":0,"parameterNumber":3,"parameterNumberName":"V-component_of_WINDS"},"data":[0.0,0.0,0.0,0.0,0.0,0.0,0.0,0.0,0.0,0.0,0.0,0.0,0.0,0.0,0.0,0.0,0.0,0.0,0.0,0.0,0.0,0.0,0.0,0.0,0.0,0.0,0.0,0.0,0.0,0.0,0.0,0.0,0.0,0.0,0.0,0.0,0.0,0.0,0.0,0.0,0.0,0.0,0.0,0.0,0.0,0.0,0.0,0.0,0.0,0.0,0.0,0.0,0.0,0.0,0.0,0.0,0.0,0.0,0.0,0.0,0.0,0.0,0.0,0.0,0.0,0.0,0.0,0.0,0.0,0.0,0.0,0.0,0.0,0.0,0.0,0.0,0.0,0.0,0.0,0.0,0.0,0.0,0.0,0.0,0.0,0.0,0.0,0.0,0.0,0.0,0.0,0.0,0.0,0.0,0.0,0.0,0.0,0.0,0.0,0.0,0.0,0.0,0.0,0.0,0.0,0.0,0.0,0.0,0.0,0.0,0.0,0.0,0.0,0.0,0.0,0.0,0.0,0.0,0.0,0.0,0.0,0.0,0.0,0.0,0.0,0.0,0.0,0.0,0.0,0.0,0.0,0.0,0.0,0.0,0.0,0.0,0.0,0.0,0.0,0.0,0.0,0.0,0.0,0.0,0.0,0.0,0.0,0.0,0.0,0.0,0.0,0.0,0.0,0.0,0.0,0.0,0.0,0.0,0.0,0.0,0.0,0.0,0.0,0.0,0.0,0.0,0.0,0.0,0.0,0.0,0.0,0.0,0.0,0.0,0.0,0.0,0.0,0.0,0.0,0.0,0.0,0.0,0.0,0.0,0.0,0.0,0.0,0.0,0.0,0.0,0.0,0.0,0.0,0.0,0.0,0.0,0.0,0.0,0.0,0.0,0.0,0.0,0.0,0.0,0.0,0.0,0.0,0.0,0.0,0.0,0.0,0.0,0.0,0.0,0.0,0.0,0.0,0.0,0.0,0.0,0.0,0.0,0.0,0.0,0.0,0.0,0.0,0.0,0.0,0.0,0.0,0.0,0.0,0.0,0.0,0.0,0.0,0.0,0.0,0.0,0.0,0.0,0.0,0.0,0.0,0.0,0.0,0.0,0.0,0.0,0.0,0.0,0.0,0.0,0.0,0.0,0.0,0.0,0.0,0.0,0.0,0.0,0.0,0.0,0.0,0.0,0.0,0.0,0.0,0.0,0.0,0.0,0.0,0.0,0.0,0.0,0.0,0.0,0.0,0.0,0.0,0.0,0.0,0.0,0.0,0.0,0.0,0.0,0.0,0.0,0.0,0.0,0.0,0.0,0.0,0.0,0.0,0.0,0.0,0.0,0.0,0.0,0.0,0.0,0.0,0.0,0.0,0.0,0.0,0.0,0.0,0.0,0.0,0.0,0.0,0.0,0.0,0.0,0.0,0.0,0.0,0.0,0.0,0.0,0.0,0.0,0.0,0.0,0.0,0.0,0.0,0.0,0.0,0.0,0.0,0.0,0.0,0.0,0.0,0.0,0.0,0.0,0.0,0.0,0.0,0.0,0.0,0.0,0.0,0.0,0.0,0.0,0.0,0.0,0.0,0.0,0.0,0.0,0.0,0.0,0.0,0.0,0.0,0.0,0.0,0.0,0.0,0.0,0.0,0.0,0.0,0.0,0.0,0.0,0.0,0.0,0.0,0.0,0.0,0.0,0.0,0.0,0.0,0.0,0.0,0.0,0.0,0.0,0.0,0.0,0.0,0.0,0.0,0.0,0.0,0.0,0.0,0.0,0.0,0.0,0.0,0.0,0.0,0.0,0.0,0.0,0.0,0.0,0.0,0.0,0.0,0.0,0.0,0.0,0.0,0.0,0.0,0.0,0.0,0.0,0.0,0.0,0.0,0.0,0.0,0.0,0.0,0.0,0.0,0.0,0.0,0.0,0.0,0.0,0.0,0.0,0.0,0.0,0.0,0.0,0.0,0.0,0.0,0.0,0.0,0.0,0.0,0.0,0.0,0.0,0.0,0.0,0.0,0.0,0.0,0.0,0.0,0.0,0.0,0.0,0.0,0.0,0.0,0.0,0.0,0.0,0.0,0.0,0.0,0.0,0.0,0.0,0.0,0.0,0.0,0.0,0.0,0.0,0.0,0.0,0.0,0.0,0.0,0.0,0.0,0.0,0.0,0.0,0.0,0.0,0.0,0.0,0.0,0.0,0.0,0.0,0.0,0.0,0.0,0.0,0.0,0.0,0.0,0.0,0.0,0.0,0.0,0.0,0.0,0.0,0.0,0.0,0.0,0.0,0.0,0.0,0.0,0.0,0.0,0.0,0.0,0.0,0.0,0.0,0.0,0.0,0.0,0.0,0.0,0.0,0.0,0.0,0.0,0.0,0.0,0.0,0.0,0.0,0.0,0.0,0.0,0.0,0.0,0.0,0.0,0.0,0.0,0.0,0.0,0.0,0.0,0.0,0.0,0.0,0.0,0.0,0.0,0.0,0.0,0.0,0.0,0.0,0.0,0.0,0.0,0.0,0.0,0.0,0.0,0.0,0.0,0.0,0.0,0.0,0.0,0.0,0.0,0.0,0.0,0.0,0.0,0.0,0.0,0.0,0.0,0.0,0.0,0.0,0.0,0.0,0.0,0.0,0.0,0.0,0.0,0.0,0.0,0.0,0.0,0.0,0.0,0.0,0.0,0.0,0.0,0.0,0.0,0.0,0.0,0.0,0.0,0.0,0.0,0.0,0.0,0.0,0.0,0.0,0.0,0.0,0.0,0.0,0.0,0.0,0.0,0.0,0.0,0.0,0.0,0.0,0.0,0.0,0.0,0.0,0.0,0.0,0.0,0.0,0.0,0.0,0.0,0.0,0.0,0.0,0.0,0.0,0.0,0.0,0.0,0.0,0.0,0.0,0.0,0.0,0.0,0.0,0.0,0.0,0.0,0.0,0.0,0.0,0.0,0.0,0.0,0.0,0.0,0.0,0.0,0.0,0.0,0.0,0.0,0.0,0.0,0.0,0.0,0.0,0.0,0.0,0.0,0.0,0.0,0.0,0.0,0.0,0.0,0.0,0.0,0.0,0.0,0.0,0.0,0.0,0.0,0.0,0.0,0.0,0.0,0.0,0.0,0.0,0.0,0.0,0.0,0.0,0.0,0.0,0.0,0.0,0.0,0.0,0.0,0.0,0.0,0.0,0.0,0.0,0.0,0.0,0.0,0.0,0.0,0.0,0.0,0.0,0.0,0.0,0.0,0.0,0.0,0.0,0.0,0.0,0.0,0.0,0.0,0.0,0.0,0.0,0.0,0.0,0.0,0.0,0.0,0.0,0.0,0.0,0.0,0.0,0.0,0.0,0.0,0.0,0.0,0.0,0.0,0.0,0.0,0.0,0.0,0.0,0.0,0.0,0.0,0.0,0.0,0.0,0.0,0.0,0.0,0.0,0.0,0.0,0.0,0.0,0.0,0.0,0.0,0.0,0.0,0.0,0.0,0.0,0.0,0.0,0.0,0.0,0.0,0.0,0.0,0.0,0.0,0.0,0.0,0.0,0.0,0.0,0.0,0.0,0.0,0.0,0.0,0.0,0.0,0.0,0.0,0.0,0.0,0.0,0.0,0.0,0.0,0.0,0.0,0.0,0.0,0.0,0.0,0.0,0.0,0.0,0.0,0.0,0.0,0.0,0.0,0.0,0.0,0.0,0.0,0.0,0.0,0.0,0.0,0.0,0.0,0.0,0.0,0.0,0.0,0.0,0.0,0.0,0.0,0.0,0.0,0.0,0.0,0.0,0.0,0.0,0.0,0.0,0.0,0.0,0.0,0.0,0.0,0.0,0.0,0.0,0.0,0.0,0.0,0.0,0.0,0.0,0.0,0.0,0.0,0.0,0.0,0.0,0.0,0.0,0.0,0.0,0.0,0.0,0.0,0.0,0.0,0.0,0.0,0.0,0.0,0.0,0.0,0.0,0.0,0.0,0.0,0.0,0.0,0.0,0.0,0.0,0.0,0.0,0.0,0.0,0.0,0.0,0.0,0.0,0.0,0.0,0.0,0.0,0.0,0.0,0.0,0.0,0.0,0.0,0.0,0.0,0.0,0.0,0.0,0.0,0.0,0.0,0.0,0.0,0.0,0.0,0.0,0.0,0.0,0.0,0.0,0.0,0.0,0.0,0.0,0.0,0.0,0.0,0.0,0.0,0.0,0.0,0.0,0.0,0.0,0.0,0.0,0.0,0.0,0.0,0.0,0.0,0.0,0.0,0.0,0.0,0.0,0.0,0.0,0.0,0.0,0.0,0.0,0.0,0.0,0.0,0.0,0.0,0.0,0.0,0.0,0.0,0.0,0.0,0.0,0.0,0.0,0.0,0.0,0.0,0.0,0.0,0.0,0.0,0.0,0.0,0.0,0.0,0.0,0.0,0.0,0.0,0.0,0.0,0.0,0.0,0.0,0.0,0.0,0.0,0.0,0.0,0.0,0.0,0.0,0.0,0.0,0.0,0.0,0.0,0.0,0.0,0.0,0.0,0.0,0.0,0.0,0.0,0.0,0.0,0.0,0.0,0.0,0.0,0.0,0.0,0.0,0.0,0.0,0.0,0.0,0.0,0.0,0.0,0.0,0.0,0.0,0.0,0.0,0.0,0.0,0.0,0.0,0.0,0.0,0.0,0.0,0.0,0.0,0.0,0.0,0.0,0.0,0.0,0.0,0.0,0.0,0.0,0.0,0.0,0.0,0.0,0.0,0.0,0.0,0.0,0.0,0.0,0.0,0.0,0.0,0.0,0.0,0.0,0.0,0.0,0.0,0.0,0.0,0.0,0.0,0.0,0.0,0.0,0.0,0.0,0.0,0.0,0.0,0.0,0.0,0.0,0.0,0.0,0.0,0.0,0.0,0.0,0.0,0.0,0.0,0.0,0.0,0.0,0.0,0.0,0.0,0.0,0.0,0.0,0.0,0.0,0.0,0.0,0.0,0.0,0.0,0.0,0.0,0.0,0.0,0.0,0.0,0.0,0.0,0.0,0.0,0.0,0.0,0.0,0.0,0.0,0.0,0.0,0.0,0.0,0.0,0.0,0.0,0.0,0.0,0.0,0.0,0.0,0.0,0.0,0.0,0.0,0.0,0.0,0.0,0.0,0.0,0.0,0.0,0.0,0.0,0.0,0.0,0.0,0.0,0.0,0.0,0.0,0.0,0.0,0.0,0.0,0.0,0.0,0.0,0.0,0.0,0.0,0.0,0.0,0.0,0.0,0.0,0.0,0.0,0.0,0.0,0.0,0.0,0.0,0.0,0.0,0.0,0.0,0.0,0.0,0.0,0.0,0.0,0.0,0.0,0.0,0.0,0.0,0.0,0.0,0.0,0.0,0.0,0.0,0.0,0.0,0.0,0.0,0.0,0.0,0.0,0.0,0.0,0.0,0.0,0.0,0.0,0.0,0.0,0.0,0.0,0.0,0.0,0.0,0.0,0.0,0.0,0.0,0.0,0.0,0.0,0.0,0.0,0.0,0.0,0.0,0.0,0.0,0.0,0.0,0.0,0.0,0.0,0.0,0.0,0.0,0.0,0.0,0.0,0.0,0.0,0.0,0.0,0.0,0.0,0.0,0.0,0.0,0.0,0.0,0.0,0.0,0.0,0.0,0.0,0.0,0.0,0.0,0.0,0.0,0.0,0.0,0.0,0.0,0.0,0.0,0.0,0.0,0.0,0.0,0.0,0.0,0.0,0.0,0.0,0.0,0.0,0.0,0.0,0.0,0.0,0.0,0.0,0.0,0.0,0.0,0.0,0.0,0.0,0.0,0.0,0.0,0.0,0.0,0.0,0.0,0.0,0.0,0.0,0.0,0.0,0.0,0.0,0.0,0.0,0.0,0.0,0.0,0.0,0.0,0.0,0.0,0.0,0.0,0.0,0.0,0.0,0.0,0.0,0.0,0.0,0.0,0.0,0.0,0.0,0.0,0.0,0.0,0.0,0.0,0.0,0.0,0.0,0.0,0.0,0.0,0.0,0.0,0.0,0.0,0.0,0.0,0.0,0.0,0.0,0.0,0.0,0.0,0.0,0.0,0.0,0.0,0.0,0.0,0.0,0.0,0.0,0.0,0.0,0.0,0.0,0.0,0.0,0.0,0.0,0.0,1.0023,1.005,0.0,0.0,0.0,0.0,0.0,0.0,0.0,0.0,0.0,0.0,0.0,0.0,0.0,0.0,0.0,0.0,0.0,0.0,0.0,0.0,0.0,0.0,0.0,0.0,0.0,0.0,0.0,0.0,0.0,0.0,0.0,0.0,0.0,0.0,0.0,0.0,0.0,0.0,0.9548,0.9597,0.9756,1.0576,1.1363,1.2069,0.0,0.0,0.0,0.0,0.0,0.0,0.0,0.0,0.0,0.0,0.0,0.0,0.0,0.0,0.0,0.0,0.0,0.0,0.0,0.0,0.0,0.0,0.0,0.0,0.0,0.0,0.0,0.0,0.0,0.0,0.0,0.0,0.0,0.0,0.0,0.0,0.0,0.0,0.0,0.0,0.0,0.0,0.0,0.0,0.0,0.0,0.0,0.0,0.0,0.0,0.0,0.0,0.0,0.0,0.0,0.0,0.0,0.0,0.0,0.0,0.0,0.0,0.0,0.0,0.0,0.0,0.0,0.0,0.0,0.0,1.0323,1.0464,0.0,0.0,0.0,0.0,0.0,0.0,0.0,0.0,0.0,0.0,0.0,0.0,0.0,0.0,0.0,0.0,0.0,0.0,0.0,0.0,0.0,0.0,0.0,0.0,0.0,0.0,0.0,0.0,0.0,0.0,0.0,0.0,0.0,0.0,0.0,0.0,0.0,0.9888,0.9575,0.9578,1.0009,1.0479,1.0703,1.0797,1.1721,0.0,0.0,0.0,0.0,0.0,0.0,0.0,0.0,0.0,0.0,0.0,0.0,0.0,0.0,0.0,0.0,0.0,0.0,0.0,0.0,0.0,0.0,0.0,0.0,0.0,0.0,0.0,0.0,0.0,0.0,0.0,0.0,0.0,0.0,0.0,0.0,0.0,0.0,0.0,0.0,0.0,0.0,0.0,0.0,0.0,0.0,0.0,0.0,0.0,0.0,0.0,0.0,0.0,0.0,0.0,0.0,0.0,0.0,0.0,0.0,0.0,0.0,0.0,1.1546,1.1285,1.0556,1.1797,1.1539,1.0113,1.108,1.1234,1.0939,1.1435,0.0,0.0,0.0,0.0,0.0,0.0,0.0,0.0,0.0,0.0,0.0,0.0,0.0,0.0,0.0,0.0,0.0,0.0,0.0,0.0,0.0,0.0,0.8818,0.9262,0.8987,0.8896,0.0,0.0,0.0,0.0,0.0,0.0,0.0,1.0295,1.0272,0.9465,0.9423,0.9735,1.0359,1.0003,1.0089,1.0495,1.1294,1.2004,1.252,0.0,0.0,0.0,0.0,0.0,0.0,0.0,0.0,0.0,0.0,0.0,0.0,0.0,0.0,0.0,0.0,0.0,0.0,0.0,0.0,0.0,0.0,0.0,0.0,0.0,0.0,0.0,0.0,0.0,0.0,0.0,0.0,0.0,0.0,0.0,0.0,0.0,0.0,0.0,0.0,0.0,1.003,1.0223,0.0,0.0,0.0,0.0,0.0,0.0,0.0,0.0,0.0,0.0,0.0,0.0,0.0,1.0891,1.1096,1.1553,1.1906,1.1978,1.2158,1.2171,1.2031,1.2477,1.2625,1.2362,1.2512,0.0,1.117,1.1164,0.0,0.0,0.0,0.0,0.0,0.0,0.0,0.0,0.0,0.0,0.0,0.0,0.0,0.0,0.0,0.0,0.0,0.0,0.0,0.0,0.0,0.8626,0.8679,0.881,0.8762,0.878,0.0,0.0,0.0,0.0,0.0,0.0,1.0363,1.0937,1.0925,1.0359,1.0094,0.9955,0.9991,0.9966,1.0053,1.0255,1.0802,1.1421,1.2143,1.2581,0.0,0.0,0.0,0.0,0.0,0.0,0.0,0.0,0.0,0.0,0.0,0.0,0.0,0.0,0.0,0.0,0.0,0.0,0.0,0.0,0.0,0.0,0.0,0.0,0.0,0.0,0.0,0.0,0.0,0.0,0.0,0.0,0.0,0.0,0.0,0.0,0.0,0.0,0.0,1.0401,1.0351,0.9968,1.0162,1.018,0.0,0.0,0.0,0.0,0.0,0.0,0.0,0.0,0.0,1.0982,1.1674,1.2107,1.2216,1.2672,1.2903,1.2981,1.3313,1.3046,1.2182,1.3284,1.3144,1.2211,1.2936,1.2866,1.2257,1.1826,1.1498,1.1421,0.0,0.0,0.0,0.0,1.388,1.3262,0.0,0.0,0.0,0.0,0.0,0.0,0.0,0.0,0.0,0.0,0.0,0.0,0.8402,0.8521,0.8606,0.8577,0.8631,0.8699,0.8877,0.0,0.0,0.0,0.0,1.0551,1.1207,1.1349,1.1543,1.1819,1.0988,1.039,1.0134,1.0274,1.0381,1.0454,1.0528,1.0989,1.1648,1.1965,1.2634,1.3425,0.0,0.0,0.0,0.0,0.0,0.0,0.0,0.0,0.0,0.0,0.0,0.0,0.0,0.0,0.0,0.0,0.0,0.0,0.0,0.0,0.0,0.0,0.0,0.0,0.0,0.0,0.0,0.0,0.0,0.0,0.0,0.0,0.0,0.0,0.0,0.0,0.0,1.0715,1.0797,1.0186,1.0581,1.0708,0.0,0.0,0.0,0.0,0.0,0.0,1.129,1.205,1.2408,1.2279,1.2975,1.3259,1.32,1.3721,1.3981,1.3988,1.4422,1.3957,1.2874,1.4076,1.384,1.2572,1.3463,1.3576,1.3137,1.2485,1.1899,1.1432,1.2676,1.3439,1.3857,1.4076,1.3852,1.3457,0.0,0.0,0.0,0.0,0.0,0.0,0.0,0.0,0.0,0.0,0.0,0.8402,0.8573,0.8573,0.8738,0.9137,0.8935,0.8883,0.9182,0.9318,0.9653,1.0344,1.0622,1.1069,1.176,1.1449,1.2081,1.3631,1.1847,1.1082,1.1329,1.1069,1.1096,1.1336,1.0795,1.0624,1.0681,1.1303,1.1663,1.1958,1.2228,0.0,0.0,0.0,0.0,0.0,0.0,0.0,0.0,0.0,0.0,0.0,0.0,0.0,0.0,0.0,0.0,0.0,0.0,0.0,0.0,0.0,0.0,0.0,0.0,0.0,0.0,0.0,0.0,0.0,0.0,0.0,0.0,0.0,0.0,0.0,0.0,0.0,0.0,1.154,1.1706,0.0,0.0,0.0,0.0,1.154,1.1906,1.2228,1.2394,1.3034,1.3349,1.3499,1.4064,1.4449,1.4429,1.4743,1.4897,1.4897,1.493,1.4923,1.4897,1.493,1.4917,1.4856,1.4589,1.3928,1.3033,1.2857,1.302,1.3321,1.3341,1.3313,1.3327,1.3327,1.3251,1.2989,0.0,0.0,0.0,0.0,0.0,0.0,0.0,0.0,0.0,0.7431,0.7933,0.8268,0.8321,0.8474,0.8672,0.8777,0.879,0.8867,0.9047,0.9573,1.0084,1.053,1.1623,1.2923,1.4264,1.3206,1.3115,1.4016,1.2387,1.1516,1.1423,1.1323,1.1329,1.1416,1.1209,1.1116,1.1096,1.0971,1.1178,1.16,1.1732,1.2042,0.0,0.0,0.0,0.0,0.0,0.0,0.0,0.0,0.0,0.0,0.0,0.0,0.0,0.0,0.0,0.0,0.0,0.0,0.0,0.0,0.0,0.0,0.0,0.0,0.0,0.0,0.0,0.0,0.0,0.0,0.0,0.0,0.0,0.0,0.0,0.0,0.0,1.2191,1.2712,0.0,1.2605,1.2589,1.2729,1.2837,1.322,1.3523,1.3791,1.4362,1.4681,1.477,1.5157,1.5271,1.5084,1.5371,1.5331,1.497,1.5344,1.5324,1.497,1.5157,1.5137,1.4957,1.485,1.4625,1.4313,1.4256,1.3776,1.3231,1.3632,1.4083,1.4402,1.4122,1.3933,1.3655,0.0,0.0,0.0,0.0,0.0,0.0,0.0,0.0,0.0,0.7954,0.8144,0.8374,0.8633,0.8685,0.8685,0.8685,0.8752,0.8864,0.9034,0.9687,1.045,1.1286,1.3244,1.4908,1.6138,1.479,1.4348,1.4808,1.3143,1.2225,1.2024,1.2024,1.2024,1.2024,1.1917,1.187,1.1837,1.1356,1.1293,1.1475,1.1432,1.1652,1.2071,0.0,0.0,0.0,0.0,0.0,0.0,0.0,0.0,0.0,0.0,0.0,0.0,0.0,0.0,0.0,0.0,0.0,0.0,0.0,0.0,0.0,0.0,0.0,0.0,0.0,0.0,0.0,0.0,0.0,0.0,0.0,0.0,0.0,0.0,1.2639,1.32,1.3121,1.3552,1.3821,1.3534,1.3594,1.3734,1.3921,1.4309,1.4616,1.4803,1.5378,1.5691,1.5691,1.5972,1.5985,1.5698,1.5885,1.5732,1.5257,1.5645,1.5625,1.5264,1.5451,1.5438,1.5257,1.5257,1.5257,1.5251,1.515,1.4682,1.4,1.4268,1.4623,1.4943,1.4743,1.4549,1.4329,0.0,0.0,0.0,0.0,0.0,0.0,0.0,0.0,0.7595,0.8651,0.8611,0.8752,0.9524,0.9127,0.8824,0.8824,0.8811,0.8895,0.9188,0.9679,1.0787,1.2693,1.5331,1.6855,1.7148,1.6031,1.5682,1.622,1.4201,1.3227,1.3227,1.3227,1.3227,1.3213,1.2906,1.2842,1.2815,1.2452,1.2004,1.145,1.1276,1.145,1.1621,0.0,0.0,0.0,0.0,0.0,0.0,0.0,0.0,0.0,0.0,0.0,0.0,0.0,0.0,0.0,0.0,0.0,0.0,0.0,0.0,0.0,0.0,0.0,0.0,0.0,0.0,0.0,0.0,0.0,0.0,0.0,0.0,0.0,1.3008,1.3635,1.42,1.4382,1.4468,1.4449,1.4168,1.4396,1.4563,1.4563,1.5097,1.5424,1.5424,1.5972,1.6286,1.6286,1.656,1.6573,1.6293,1.6279,1.6126,1.5845,1.5832,1.5832,1.5832,1.5832,1.5832,1.5832,1.5832,1.5832,1.5805,1.5524,1.5578,1.5772,1.5204,1.4983,1.499,1.4983,1.497,1.4883,0.0,0.0,0.0,0.0,0.0,0.0,0.0,0.7678,0.8174,0.8964,0.9025,0.9221,0.9796,0.9432,0.9064,0.9064,0.8931,0.9004,0.953,1.0027,1.1639,1.4729,1.5946,1.7225,1.866,1.6815,1.5978,1.622,1.4338,1.3527,1.3527,1.3527,1.3527,1.352,1.3434,1.328,1.308,1.2999,1.2866,1.2652,1.1995,1.1817,1.197,0.0,0.0,0.0,0.0,0.0,0.0,0.0,0.0,0.0,0.0,0.0,0.0,0.0,0.0,0.0,0.0,0.0,0.0,0.0,0.0,0.0,0.0,0.0,0.0,0.0,0.0,0.0,0.0,0.0,0.0,0.0,1.3352,1.3872,1.396,1.4381,1.4892,1.5107,1.5291,1.5438,1.5357,1.5424,1.5471,1.5471,1.5818,1.6032,1.6032,1.6386,1.6587,1.6587,1.666,1.6667,1.6587,1.638,1.6233,1.6146,1.5932,1.5832,1.5832,1.5832,1.5832,1.5832,1.5832,1.5832,1.5818,1.5745,1.5758,1.5792,1.5424,1.5404,1.5565,1.5357,1.5144,1.4943,0.0,0.0,0.0,0.0,0.0,0.0,0.0,0.8049,0.8636,0.9993,0.9919,1.0031,1.0707,1.017,0.9618,0.9239,0.926,0.9375,0.9543,1.1209,1.3339,1.5945,1.7423,1.8427,1.877,1.7622,1.6823,1.633,1.4922,1.4195,1.4195,1.4195,1.4195,1.4195,1.4195,1.4102,1.3941,1.3941,1.3941,1.3881,1.3106,1.2728,1.2526,1.2101,1.1938,1.1821,1.1416,1.1145,1.0992,1.0712,0.0,0.0,0.0,0.0,0.0,0.0,0.0,0.0,0.0,0.0,0.0,0.0,0.0,0.0,0.0,0.0,0.0,0.0,0.0,0.0,0.0,0.0,0.0,0.0,1.4164,1.4751,1.5122,1.5275,1.5438,1.5732,1.5805,1.5925,1.6172,1.6086,1.6066,1.6186,1.6359,1.6453,1.6453,1.6847,1.7014,1.6894,1.7134,1.7148,1.6894,1.6727,1.658,1.6453,1.6279,1.6199,1.6192,1.6072,1.6012,1.6005,1.5885,1.5832,1.5832,1.5832,1.5832,1.5812,0.0,0.0,0.0,0.0,1.5471,1.5311,0.0,0.0,0.0,0.0,0.0,0.0,0.0,0.8386,0.9139,1.1275,1.101,1.095,1.1806,1.1076,1.0243,0.9404,0.9706,0.9918,0.982,1.3009,1.5488,1.6794,1.929,1.9868,1.8326,1.8338,1.781,1.6595,1.5569,1.4983,1.5017,1.5017,1.5017,1.5017,1.5017,1.499,1.4963,1.4963,1.4963,1.4917,1.4396,1.3834,1.3247,1.2639,1.2337,1.2188,1.2223,1.1781,1.1217,1.1481,0.0,0.0,0.0,0.0,0.0,0.0,0.0,0.0,0.0,0.0,0.0,0.0,0.0,0.0,0.0,0.0,0.0,0.0,0.0,0.0,0.0,0.0,0.0,0.0,1.511,1.5535,1.6206,1.6092,1.6025,1.6293,1.6092,1.6146,1.67,1.6493,1.644,1.6734,1.6787,1.6807,1.6807,1.7335,0.0,0.0,0.0,1.7736,1.7201,1.7271,1.7014,1.6754,1.672,1.6707,1.67,1.644,1.6306,1.6259,1.5999,1.5858,1.5832,1.5832,1.5832,1.5832,1.5832,1.5832,1.5832,1.5832,1.5832,1.5792,0.0,0.0,0.0,0.0,0.0,0.0,0.0,0.9078,0.985,1.1606,1.1671,1.166,1.1863,1.1288,1.0647,1.0119,0.9784,1.0415,1.2242,1.4773,1.6883,1.8481,1.9851,2.0277,1.9686,1.882,1.781,1.6595,1.5569,1.5084,1.5311,1.5311,1.5311,1.5311,1.5311,1.5184,1.4963,1.4963,1.4963,1.495,1.4836,1.4442,1.3854,1.326,1.3033,1.2921,1.2752,1.2822,1.2989,1.249,1.2553,1.2736,1.2123,1.1754,0.0,0.0,0.0,0.0,0.0,0.0,0.0,0.0,0.0,0.0,0.0,0.0,0.0,0.0,0.0,0.0,0.0,0.0,0.0,1.5191,1.6309,1.7008,1.6626,1.6573,1.6553,1.6613,1.6573,1.6673,1.7027,1.6794,1.6747,1.7041,1.7281,1.7415,1.7415,1.7762,1.7929,1.7876,1.7742,1.7615,1.7502,1.7268,1.7121,1.7061,1.682,0.0,1.67,1.6647,1.6493,1.6273,1.6213,1.6052,1.5832,1.5832,1.5832,1.5832,1.5832,1.5832,1.5832,1.5832,1.5832,1.5818,0.0,0.0,0.0,0.0,0.0,0.0,0.0,0.9631,1.0374,1.1793,1.1857,1.1835,1.1862,1.1414,1.079,1.0031,1.0322,1.1796,1.4605,1.6412,1.8064,1.9726,2.0915,2.0874,1.9462,1.9125,1.8061,1.619,1.5661,1.5471,1.5611,1.5611,1.5611,1.5611,1.5611,1.5531,1.5398,1.5398,1.5398,1.5384,1.5237,1.5003,1.4676,1.4088,1.3774,1.3627,1.3474,1.342,1.332,1.3167,1.3121,1.3153,1.2685,1.2326,1.1937,0.0,0.0,0.0,0.0,0.0,0.0,0.0,0.0,0.0,0.0,0.0,0.0,0.0,0.0,1.4043,1.482,0.0,1.7056,1.6993,1.7676,1.7916,1.7258,1.7141,1.7141,1.7141,1.7014,1.7168,1.7762,1.7549,1.7502,1.7796,1.7956,1.8036,1.8036,1.8323,1.8417,1.827,1.8257,1.8183,1.8043,1.7742,1.7595,1.7595,1.7288,1.7141,1.7141,1.6994,1.6767,1.648,1.6333,1.6106,1.5832,1.5832,1.5832,1.5832,1.5832,1.5832,1.5832,1.5832,1.5832,1.5832,0.0,0.0,0.0,0.0,0.0,0.0,0.0,0.0,1.0777,1.1799,1.1919,1.1835,1.1714,1.1436,1.0879,1.0,1.1493,1.3672,1.6376,1.7825,1.9326,2.0898,2.2031,2.1565,1.9423,1.9438,1.8395,1.6197,1.592,1.5832,1.5832,1.5832,1.5832,1.5832,1.5832,1.5832,1.5832,1.5832,1.5832,1.5805,1.5571,1.5478,1.5424,1.489,1.4509,1.4249,1.4195,1.3828,1.342,1.3647,1.3534,1.326,1.3066,1.2739,1.2267,1.178,1.1573,0.0,0.0,0.0,0.0,0.0,0.0,0.0,0.0,1.2692,1.2726,1.398,1.4664,1.5533,1.7191,1.7918,1.8497,1.9177,1.9033,1.8672,1.8289,1.7968,1.7776,1.7836,1.7589,1.7716,1.8497,1.831,1.8257,1.8551,1.8577,1.8577,1.8577,1.8798,1.8818,1.8577,1.8744,1.8731,1.8497,1.8257,1.813,1.813,1.7816,1.7669,1.7662,1.7368,1.7041,1.6687,1.6339,1.6052,1.5832,1.5832,1.5832,1.5832,1.5832,1.5832,1.5832,1.5832,1.5832,1.5832,0.0,0.0,0.0,0.0,0.0,0.0,0.0,0.0,0.0,1.1648,1.2051,1.205,1.1413,1.1242,1.1086,1.093,1.3631,1.5899,1.7222,1.9193,2.0897,2.2246,2.2793,2.2425,2.1051,2.0008,1.8864,1.7505,1.6386,1.5832,1.5832,1.5832,1.5832,1.5832,1.5832,1.5832,1.5832,1.5832,1.5832,1.5825,1.5792,1.5785,1.5745,1.5424,1.5117,1.483,1.4563,1.4262,1.3995,1.4028,1.3841,1.3634,1.3861,1.3074,1.196,1.1822,1.1175,1.0475,1.0111,1.075,1.174,1.2702,1.2942,1.3413,0.0,1.4919,1.4622,1.5161,1.6622,1.7796,1.784,1.9217,2.0547,2.1428,2.0335,1.9539,2.0297,1.9234,1.8484,1.8744,1.8517,1.8484,1.8838,1.8611,1.8564,1.8851,1.8878,1.8878,1.8878,1.8905,1.8911,1.8878,1.8657,1.8524,1.849,1.8457,1.8444,1.8437,1.8136,1.7996,1.7989,1.7675,1.7235,1.6673,1.6119,1.5858,1.5832,1.5832,1.5832,1.5832,1.5832,1.5832,1.5832,1.5832,1.5832,1.5832,0.0,0.0,0.0,0.0,0.0,0.0,0.0,0.0,0.0,0.0,1.1196,1.1112,1.0558,1.0756,1.139,1.2452,1.4524,1.6384,1.7942,1.9841,2.1426,2.2461,2.292,2.2227,2.0305,1.9761,1.8588,1.6574,1.6015,1.5832,1.5832,1.5832,1.5832,1.5838,1.6012,1.5992,1.5852,1.6192,1.6146,1.5845,1.6019,1.5985,1.5812,1.5698,1.5471,1.5137,1.4669,1.4365,0.0,1.4054,1.3912,1.3749,1.3788,1.2926,1.1903,1.1564,1.1304,1.1313,1.2126,1.2632,1.3027,1.3808,1.4356,1.4798,1.5431,1.5545,1.5636,1.6039,1.6973,1.7875,1.8706,2.0384,2.1497,2.1168,2.1254,2.0895,1.9757,1.9172,1.8784,1.8911,1.9118,1.9299,1.9419,1.9325,1.9372,1.9659,1.9526,1.9432,1.9432,1.9272,1.9185,1.9185,1.9065,1.9005,1.9005,1.8664,1.849,1.8484,1.8003,1.7689,1.7522,1.7388,1.7007,1.6433,1.6012,1.5832,1.5832,1.5832,1.5832,1.5832,1.5832,1.5832,1.5832,1.5832,1.5832,1.5832,0.0,0.0,0.0,0.0,0.0,0.0,0.0,0.0,0.0,0.0,0.0,0.0,0.0,1.0716,1.1721,1.3259,1.4901,1.6677,1.8527,2.0177,2.1578,2.2646,2.2978,2.2315,2.0494,1.9861,1.858,1.6835,1.6103,1.5872,1.5952,1.5952,1.5992,1.6079,1.6293,1.6273,1.6099,1.6526,1.646,1.6079,1.6219,1.6146,1.5932,1.5772,1.5531,1.5184,1.4729,1.4362,1.4255,1.3947,1.3789,1.3648,1.3487,1.2737,1.1725,1.1462,1.1468,1.1762,1.3291,1.3756,1.3998,1.4661,1.5424,1.5906,1.5827,1.6199,1.6637,1.686,1.7853,1.8902,1.9754,2.1241,2.2266,2.1866,2.1712,2.1299,2.0435,1.9601,1.9018,1.8931,1.9299,1.9593,1.9673,1.9826,1.9973,2.01,1.992,1.98,1.98,1.9526,1.9406,1.9486,1.9412,1.9366,1.9366,1.8865,1.8611,1.8604,1.7996,1.7602,1.7388,1.7141,1.6794,1.6373,1.5992,1.5832,1.5832,1.5832,1.5832,1.5832,1.5832,1.5832,1.5832,1.5832,1.5832,1.5832,0.0,0.0,0.0,0.0,0.0,0.0,0.0,0.0,0.0,0.0,0.0,0.0,0.0,1.1392,1.2204,1.2757,1.5007,1.7181,1.8976,2.0251,2.153,2.3066,2.3135,2.3057,2.296,2.0674,1.9497,1.9405,1.7023,1.5979,1.6259,1.6259,1.6406,1.668,1.6687,1.6687,1.668,1.67,1.6693,1.6653,1.638,1.6266,1.6199,1.5625,1.5231,1.5026,1.4885,1.4396,1.394,1.3863,1.3473,1.3042,1.3178,1.2295,1.1272,1.175,1.1487,1.1326,1.2128,1.3111,1.4115,1.4871,1.5936,1.6667,1.6673,1.7121,1.7535,1.7555,2.0219,2.206,2.0685,2.1655,2.3274,2.4934,2.1742,2.0111,2.3199,2.1137,1.9245,1.8958,1.8938,1.9065,1.9352,1.9887,2.0107,1.9833,1.9806,1.98,1.98,1.9526,1.9499,1.978,1.9512,1.9366,1.9366,1.9065,1.8911,1.8905,1.8317,1.8029,1.7989,1.7114,1.6707,1.666,1.6079,1.5832,1.5832,1.5832,1.5832,1.5832,1.5832,1.5832,1.5832,1.5832,1.5832,1.5832,0.0,0.0,0.0,0.0,0.0,0.0,0.0,0.0,0.0,0.0,0.0,0.0,0.0,0.0,0.0,0.0,1.5492,1.6968,1.8209,1.9946,2.1279,2.2087,2.2746,2.2775,2.1933,2.1123,1.9943,1.8326,1.7618,1.6931,1.6279,1.6473,1.6613,1.6714,1.6914,1.6894,1.6734,1.7121,1.7061,1.67,1.66,1.6446,1.6213,1.5805,1.5187,1.469,0.0,1.4165,1.377,1.3536,1.3439,1.33,1.2872,1.2145,1.1359,1.1135,1.1246,1.1774,1.3281,1.4281,1.5153,1.6222,1.6927,1.7341,1.7549,1.7903,1.8183,1.8183,1.9085,1.9564,1.8929,2.0242,2.1372,2.0857,2.1547,2.1721,2.0739,2.0492,1.9969,1.8507,1.8684,1.8965,1.9065,1.9426,1.978,2.0067,1.9907,1.98,1.98,1.9526,1.9412,1.9512,1.9419,1.9366,1.9366,1.9072,1.8824,1.8631,1.7829,1.7448,1.7435,1.6934,1.6707,1.6687,1.6293,1.6126,1.6106,1.5912,1.5832,1.5832,1.5832,1.5832,1.5832,1.5832,1.5832,1.5832,0.0,0.0,0.0,0.0,0.0,0.0,0.0,0.0,0.0,0.0,0.0,0.0,0.0,0.0,0.0,0.0,0.0,1.6419,1.7735,1.9222,2.0464,2.1428,2.2074,2.2254,2.1757,2.1218,2.0254,1.8758,1.8472,1.8059,1.7516,1.7274,1.7288,1.7299,1.7103,1.6881,1.6734,1.7108,1.7191,1.7112,1.6515,1.6436,1.6462,1.5473,1.4722,0.0,1.3971,1.3754,1.346,1.3257,1.3112,1.3044,1.2674,1.2309,1.2012,1.1554,1.1963,1.2896,1.4263,1.5127,1.587,1.7034,1.7528,1.7829,1.8136,1.843,1.8617,1.851,1.8846,1.89,1.8167,1.9381,2.0223,1.9317,2.0595,2.1235,1.9849,1.9964,1.9718,1.8487,1.8604,1.8804,1.8911,1.9098,1.9452,2.0034,1.9907,1.98,1.98,1.9526,1.9412,1.9519,1.9419,1.9366,1.9366,1.9072,1.8724,1.8323,1.7635,1.7301,1.7295,1.7001,1.6867,1.6847,1.6553,1.6373,1.6259,1.6066,1.5925,1.5832,1.5832,1.5832,1.5832,1.5832,1.5832,1.5832,0.0,0.0,0.0,0.0,0.0,0.0,0.0,0.0,0.0,0.0,0.0,0.0,0.0,0.0,0.0,0.0,0.0,0.0,1.7348,1.8091,1.9317,2.1064,2.1242,2.1619,2.2371,2.0985,2.0393,2.0588,1.9418,1.9059,1.9488,1.8488,1.8267,1.8483,1.7322,1.6733,1.6733,1.6733,1.7148,1.7669,1.623,1.6159,1.665,1.4856,1.3916,1.3461,1.3307,1.3084,1.29,1.29,1.262,1.2351,1.2587,1.2919,1.3147,1.3002,1.3541,1.4337,1.5002,1.5593,1.6341,1.7395,1.7849,1.8163,1.845,1.8718,1.8824,1.8551,1.9578,2.0031,1.8579,1.9029,1.9837,2.0381,1.9168,1.8801,2.0677,1.9535,1.8605,1.8831,1.8657,1.8604,1.8891,1.8925,1.9165,1.9753,1.9786,1.978,1.978,1.9512,1.9492,1.9766,1.9512,1.9366,1.9366,1.9072,1.8637,1.8063,1.7756,1.7595,1.7569,1.7295,1.7174,1.7154,1.684,1.6553,1.6293,1.6259,1.6086,1.5832,1.5832,1.5832,1.5832,1.5832,1.5832,1.5832,0.0,0.0,0.0,0.0,0.0,0.0,0.0,0.0,0.0,0.0,0.0,0.0,0.0,0.0,0.0,0.0,0.0,0.0,1.5996,1.7456,1.8695,1.9551,2.0072,2.0614,2.1213,2.0474,1.9817,1.9245,1.8981,1.8549,1.7956,1.7785,1.7951,1.837,1.7834,1.7565,1.7565,1.7301,1.6926,1.6509,1.5765,1.5472,1.5418,1.4627,1.3922,1.3461,1.3237,1.2859,1.2452,1.2599,1.2681,1.2778,1.3233,1.3391,1.3477,1.36,1.4209,1.5022,1.5599,1.6434,1.7361,1.7816,1.8317,1.8718,1.8798,1.8704,1.8689,1.8719,1.8471,1.8002,1.7718,1.7974,1.8318,1.8549,1.9575,2.0142,1.9556,2.0043,1.9957,1.8715,1.8537,1.8604,1.8891,1.8925,1.9165,1.9753,1.9599,1.9479,1.9479,1.9406,1.9399,1.9472,1.9406,1.9366,1.9366,1.9072,1.8738,1.837,1.807,1.7809,1.7582,1.7508,1.7468,1.7442,1.6927,1.666,1.656,1.6119,1.5899,1.5832,1.5832,1.5832,1.5832,1.5832,1.5832,1.5832,0.0,0.0,0.0,0.0,0.0,0.0,0.0,0.0,0.0,0.0,0.0,0.0,0.0,0.0,0.0,0.0,0.0,0.0,0.0,1.6638,1.7763,1.8562,1.8946,1.9505,2.0141,1.9915,1.9526,1.9049,1.9321,1.9118,1.8388,1.8178,1.8128,1.825,1.7564,1.7235,1.707,1.6643,1.6447,0.0,0.0,1.5085,1.5065,1.4173,1.3488,1.3085,1.2914,1.277,1.2815,1.3304,1.3457,1.3393,1.3895,1.4229,1.4482,1.4942,1.5611,1.6293,1.6786,1.7403,1.8056,1.8357,1.8677,1.8858,1.8486,1.8399,1.8453,1.8022,1.7542,1.7237,1.7348,1.7272,1.7302,1.7626,1.8672,1.9283,1.8712,1.9388,1.9686,1.8957,1.8758,1.8798,1.9092,1.9232,1.9392,1.9593,1.9459,1.9419,1.9553,1.9432,1.9366,1.9366,1.9366,1.9366,1.9366,1.9072,1.8778,1.849,1.819,1.7883,1.7582,1.7582,1.7515,1.7375,1.7048,1.6754,1.6486,1.6159,1.5945,1.5832,1.5832,1.5832,1.5832,1.5832,1.5832,1.5832,0.0,0.0,0.0,0.0,0.0,0.0,0.0,0.0,0.0,0.0,0.0,0.0,0.0,0.0,0.0,0.0,0.0,0.0,0.0,0.0,0.0,1.7741,1.7707,1.808,1.8938,1.8961,1.8971,1.902,1.9375,1.9457,1.9283,1.8705,1.8248,1.7944,1.6869,1.6308,1.6043,1.5619,1.5839,1.6268,1.4872,1.46,1.4883,0.0,0.0,1.2599,1.2599,1.2844,1.338,1.4331,1.4434,1.4149,1.4569,1.5212,1.5895,1.6587,1.7116,1.7549,1.7943,1.8323,1.8597,1.8811,1.8865,1.8599,1.7797,1.8014,1.8057,1.6982,1.6904,1.7077,1.7284,1.6989,1.6756,1.7315,1.7458,1.7741,1.8381,1.8476,1.8671,1.9387,1.9138,1.9085,1.9339,1.9593,1.9659,1.9439,1.9392,1.9472,1.9726,1.9506,1.9366,1.9366,1.9366,1.9366,1.9366,1.9072,1.8778,1.849,1.819,1.7883,1.7582,1.7582,1.7422,1.725,1.7108,1.6881,1.6558,1.633,1.6155,1.6015,1.5825,1.5832,1.5832,1.5832,1.5832,1.5832,0.0,0.0,0.0,0.0,0.0,0.0,0.0,0.0,0.0,0.0,0.8892,0.9144,0.0,0.0,0.0,0.0,0.0,0.0,0.0,0.0,0.0,1.6114,1.5857,1.5953,1.6554,1.5913,1.6052,1.7092,1.6419,1.6511,1.7349,1.7288,1.7033,1.6688,1.6661,1.627,1.5641,1.546,1.5017,1.4561,1.4286,1.391,1.3484,0.0,0.0,0.0,1.2599,1.2844,1.3333,1.4416,1.4906,1.5197,1.5785,1.6263,1.6626,1.7271,1.7533,1.7748,1.825,1.8624,1.8804,1.8611,1.8564,1.841,1.7502,1.7348,1.7197,1.6826,1.6882,1.7058,1.7058,1.7127,1.7253,1.742,1.7709,1.8129,1.8762,1.8771,1.8918,1.9319,1.9325,1.9312,1.9366,1.9412,1.9519,1.9713,1.9506,1.9392,1.9439,1.9399,1.9366,1.9366,1.9366,1.9366,1.9366,1.9072,1.8778,1.849,1.819,1.7883,1.7582,1.7582,1.7422,1.7134,1.6894,1.7168,1.7676,1.6382,1.6434,1.7225,1.6204,1.5832,1.5832,1.5832,1.5832,1.5832,0.0,0.0,0.0,0.0,0.0,0.0,0.0,0.7213,0.7472,0.768,0.8458,0.904,0.9211,0.9521,1.0047,0.0,0.0,0.0,0.0,0.0,0.0,0.0,0.0,0.0,1.5604,1.5365,1.5574,1.6333,0.0,1.6236,1.6464,1.6735,1.6462,1.5671,1.5863,1.5615,1.499,1.4569,1.4308,1.4055,1.3807,1.341,1.3046,0.0,0.0,0.0,1.2526,1.2946,1.352,1.4432,1.5144,1.5752,1.6493,1.6827,1.7054,1.7649,1.7929,1.815,1.8597,1.8931,1.9085,1.8791,1.8604,1.8147,1.6938,1.6718,1.6738,1.6027,1.6386,1.6784,1.6784,1.7032,1.7239,1.7244,1.7476,1.7833,1.8577,1.8709,1.8865,1.9312,1.9366,1.9366,1.9366,1.9506,1.9586,1.9579,1.9586,1.9593,1.9593,1.9452,1.9366,1.9366,1.9366,1.9366,1.9366,1.9225,1.8931,1.849,1.8343,1.8036,1.7582,1.7582,1.7341,1.6907,1.6767,1.6742,1.6873,1.6069,1.6204,1.6669,1.6015,1.5832,1.5832,1.5832,1.5832,1.5832,0.0,0.0,0.0,0.0,0.0,0.0,0.0,0.6865,0.7133,0.7066,0.7886,0.8652,0.9017,0.928,0.9728,0.0,0.0,0.0,0.0,0.0,0.0,0.0,0.0,0.0,1.484,0.0,0.0,1.57,1.6008,0.0,0.0,0.0,0.0,0.0,1.4932,1.463,1.4087,1.3639,1.3613,0.0,0.0,1.3056,0.0,0.0,0.0,0.0,0.0,1.3029,1.3514,1.4345,1.4987,1.5604,1.6487,1.6852,1.7058,1.7596,1.8008,1.836,1.8831,1.9138,1.9285,1.8918,1.8564,1.7895,1.6272,1.6275,1.6306,1.5271,1.5912,1.6683,1.6588,1.6777,1.6966,1.694,1.7059,1.7421,1.8144,1.8353,1.8637,1.9292,1.9366,1.9366,1.9366,1.9573,1.9613,1.9386,1.9579,1.9706,1.9706,1.9492,1.9366,1.9366,1.9366,1.9366,1.9366,1.9305,1.9038,1.8577,1.8457,1.8143,1.7669,1.7609,1.7261,1.6707,1.6707,1.6464,1.6204,1.592,1.592,1.6204,1.5927,1.5832,1.5832,1.5832,1.5832,1.5832,0.0,0.0,0.0,0.0,0.0,0.0,0.0,0.6044,0.5936,0.6807,0.7116,0.7512,0.8047,0.8823,0.9658,0.0,0.0,0.0,0.0,0.0,0.0,0.0,0.0,0.0,0.0,0.0,0.0,1.4489,1.3937,0.0,0.0,0.0,0.0,0.0,0.0,1.372,1.2803,1.2869,0.0,0.0,0.0,0.0,0.0,0.0,0.0,0.0,0.0,1.2832,1.303,1.4042,1.4329,1.4435,1.5201,1.5836,1.6423,1.6846,1.7331,1.7991,1.8658,1.9138,1.9232,1.8671,1.8096,1.7324,1.5937,1.5926,1.6015,1.5279,1.6099,1.6885,1.6683,1.6805,1.6926,1.6725,1.6724,1.7061,1.7889,1.807,1.8404,1.9265,1.9366,1.9366,1.9366,1.9392,1.9399,1.9372,1.9392,1.9406,1.9406,1.9379,1.9366,1.9366,1.9366,1.9366,1.9366,1.9098,1.8938,1.8878,1.8343,1.805,1.7963,1.7702,1.7261,1.6707,1.6707,1.7044,1.7412,1.6292,1.648,1.7412,1.6292,1.5832,1.5832,1.5832,1.5832,1.5832,0.0,0.0,0.0,0.0,0.0,0.0,0.6126,0.5949,0.5898,0.624,0.6544,0.6999,0.7727,0.8166,0.8737,0.9646,0.0,0.0,0.0,0.0,0.0,0.0,0.0,0.0,0.0,0.0,1.3031,1.3977,1.3932,0.0,0.0,0.0,0.0,0.0,0.0,1.3107,1.239,1.2406,0.0,0.0,0.0,0.0,0.0,0.0,0.0,0.0,0.0,0.0,1.2762,1.352,1.3765,1.3707,1.3869,1.4362,1.5064,1.6247,1.7121,1.781,1.8439,1.8878,1.8764,1.7546,1.6996,1.64,1.4787,1.5032,1.5445,1.514,1.5819,1.6407,1.6211,1.6312,1.6487,1.6243,1.6191,1.6434,1.7096,1.7237,1.7635,1.8711,1.8844,1.8978,1.9332,1.9366,1.9366,1.9366,1.9366,1.9366,1.9366,1.9366,1.9366,1.9366,1.9366,1.9366,1.9366,1.9252,1.9098,1.8918,1.851,1.8217,1.8023,1.7722,1.7261,1.6707,1.6707,1.666,1.648,1.6015,1.6109,1.648,1.6015,1.5832,1.5832,1.5832,1.5832,1.5832,0.0,0.0,0.0,0.0,0.0,0.584,0.5754,0.5739,0.5697,0.565,0.6121,0.6613,0.7138,0.77,0.8364,0.9104,0.9646,0.0,0.0,0.0,0.0,0.0,0.0,0.0,0.0,0.0,1.2598,1.3506,1.3724,1.3886,0.0,0.0,1.3774,1.2569,0.0,0.0,0.0,0.0,0.0,0.0,0.0,0.0,0.0,0.0,0.0,0.0,0.0,0.0,0.0,0.0,0.0,1.3008,1.3002,1.3293,1.3944,1.5351,1.6438,1.731,1.7906,1.8393,1.8354,1.6501,1.633,1.6004,1.4051,1.4459,1.51,1.4832,1.5565,1.6103,1.5819,1.6062,1.6129,1.5828,1.5738,1.5939,1.6531,1.6533,1.7018,1.8332,1.8496,1.8857,1.9401,1.9562,1.9459,1.9372,1.9366,1.9366,1.9366,1.9366,1.9366,1.9366,1.9366,1.9366,1.9366,1.9366,1.9219,1.8918,1.8631,1.8337,1.8036,1.7722,1.7308,1.6834,1.674,1.642,1.5952,1.5865,1.5832,1.5832,1.5832,1.5832,1.5832,1.5832,1.5832,1.5832,0.0,0.0,0.0,0.0,0.0,0.0,0.5588,0.5348,0.5085,0.5114,0.5849,0.6284,0.5958,0.7502,0.8698,0.8984,0.9303,0.0,0.0,0.0,0.0,0.0,0.0,0.0,0.0,0.0,1.1423,1.2779,1.2822,1.3186,1.3871,1.3319,1.2895,1.2617,0.0,0.0,0.0,0.0,0.0,0.0,0.0,0.0,0.0,0.0,0.0,0.0,0.0,0.0,0.0,0.0,0.0,0.0,0.0,1.2898,1.3236,1.405,1.5177,1.6151,1.7029,1.7826,1.8013,1.6114,1.6212,1.6209,1.3791,1.4382,1.5276,1.443,1.5239,1.6135,1.5841,1.6026,1.6129,1.5828,1.5645,1.5645,1.6233,1.6335,1.685,1.8372,1.8632,1.9034,1.9699,1.9854,1.9679,1.9392,1.9366,1.9366,1.9366,1.9366,1.9366,1.9366,1.9366,1.9366,1.9366,1.9366,1.9219,1.8918,1.8631,1.8337,1.8036,1.7722,1.7422,1.723,1.6834,1.654,1.6246,1.5952,1.5832,1.5832,1.5832,1.5832,1.5832,1.5832,1.5832,1.5832,0.0,0.0,0.0,0.0,0.0,0.0,0.0,0.4958,0.4809,0.5142,0.5304,0.5528,0.5841,0.6229,0.6977,0.8359,0.9336,0.0,0.0,0.0,0.0,0.0,0.0,0.0,0.0,0.0,1.1283,1.1737,1.2157,1.255,1.2777,1.3059,1.2714,1.1941,1.1877,1.1796,0.0,0.0,0.0,0.0,0.0,0.0,1.2077,0.0,0.0,0.0,0.0,0.0,0.0,0.0,0.0,0.0,0.0,0.0,0.0,1.3616,1.4534,1.5607,1.6387,1.6866,1.6679,1.479,1.4514,1.4258,1.2767,1.3153,1.3963,1.4148,1.4845,1.5405,1.551,1.557,1.5597,1.551,1.5645,1.5697,1.5685,1.6175,1.6859,1.7748,1.8693,1.9292,1.9557,1.9569,1.9466,1.9372,1.9366,1.9366,1.9366,1.9366,1.9366,1.9366,1.9366,1.9366,1.9366,1.9366,1.9219,1.8918,1.8631,1.8337,1.8036,1.7722,1.7315,1.684,1.6747,1.6426,1.5965,1.5872,1.5832,1.5832,1.5832,1.5832,1.5832,1.5832,1.5832,1.5832,0.0,0.0,0.0,0.0,0.0,0.0,0.0,0.465,0.4542,0.4756,0.4758,0.4944,0.5378,0.5571,0.6056,0.7068,0.8443,0.0,0.0,0.0,0.0,0.0,0.0,0.0,0.0,1.0334,1.0738,1.1129,1.1484,1.1924,1.2458,1.2758,1.2557,1.205,1.1833,1.1746,0.0,0.0,0.0,0.0,0.0,0.0,1.2378,0.0,0.0,0.0,0.0,0.0,0.0,0.0,0.0,0.0,0.0,0.0,0.0,0.0,1.3773,1.45,1.5569,1.6008,1.5682,1.3625,1.3562,1.3402,1.1548,1.2276,1.3324,1.333,1.4187,1.491,1.4903,1.5066,1.5139,1.5231,1.5385,1.5544,1.5571,1.6319,1.7197,1.8105,1.904,1.9503,1.9501,1.9564,1.9486,1.9372,1.9366,1.9366,1.9366,1.9366,1.9366,1.9366,1.9366,1.9366,1.9366,1.9259,1.9052,1.8758,1.8457,1.8156,1.7862,1.7669,1.7321,1.6867,1.6754,1.6433,0.0,1.5879,1.5832,1.5832,1.5832,1.5832,1.5832,1.5832,1.5832,1.5832,0.0,0.0,0.0,0.0,0.0,0.0,0.0,0.4465,0.4323,0.4036,0.4314,0.4601,0.4611,0.5441,0.5862,0.546,0.0,0.0,0.0,0.0,0.0,0.0,0.0,0.0,0.0,0.9491,0.9945,1.0925,1.0777,1.1375,1.2624,1.2407,1.2489,1.2714,1.2248,1.1978,0.0,0.0,0.0,0.0,0.0,0.0,0.0,0.0,0.0,0.0,0.0,0.0,0.0,0.0,0.0,0.0,0.0,0.0,0.0,0.0,0.0,0.0,0.0,1.5216,1.4985,1.2694,1.3232,1.3429,1.0409,1.1621,0.0,1.2302,1.3379,1.448,1.4219,1.4382,1.4668,1.4894,1.5035,1.5318,1.5724,1.666,1.7769,1.8992,1.9527,1.9711,1.9519,1.9713,1.9659,1.9392,1.9366,1.9366,1.9366,1.9366,1.9366,1.9366,1.9345,1.9345,1.9366,1.9072,1.8778,1.849,1.817,1.7862,1.7582,1.7582,1.7415,1.7101,1.6827,1.6526,1.6219,1.5945,1.5832,1.5832,1.5832,1.5832,1.5832,1.5832,1.5832,1.5832,0.0,0.0,0.0,0.0,0.0,0.0,0.0,0.0,0.0,0.0,0.4219,0.436,0.4405,0.4915,0.5363,0.0,0.0,0.0,0.0,0.0,0.0,0.0,0.0,0.0,0.0,0.9514,0.9379,0.9081,1.0631,1.1272,1.1142,1.1891,1.2305,1.2383,1.2116,1.2043,0.0,0.0,0.0,0.0,0.0,0.0,0.0,0.0,0.0,0.0,1.1409,1.1335,0.0,0.0,0.0,0.0,0.0,0.0,0.0,0.0,1.2924,1.2892,1.364,0.0,1.4034,1.2915,1.2559,1.2325,0.0,1.1765,1.221,1.2769,1.3318,1.3799,1.3911,1.395,1.4135,1.4662,1.5068,1.5478,1.5796,1.7218,1.8303,1.8657,1.9292,1.9488,1.8551,1.9078,1.9439,1.9372,1.9366,1.9366,1.9366,1.9366,1.9366,1.9366,1.9145,1.9138,1.9366,1.9072,1.8778,1.849,1.8183,1.7883,1.7582,1.7582,1.7301,1.6807,1.6734,1.6413,1.5925,1.5858,1.5832,1.5832,1.5832,1.5832,1.5832,1.5832,1.5832,1.5832,0.0,0.0,0.0,0.0,0.0,0.0,0.0,0.0,0.0,0.0,0.0,0.0,0.0,0.0,0.0,0.0,0.0,0.0,0.0,0.0,0.0,0.0,0.0,0.7516,0.8042,0.806,0.8091,0.8055,0.9005,0.9669,1.0236,1.1043,1.1407,1.1484,1.1781,1.2087,0.0,0.0,0.0,0.0,1.2991,0.0,0.0,0.0,0.0,0.0,1.126,1.1186,0.0,1.1262,1.1576,1.1944,0.0,0.0,0.0,0.0,1.279,1.2679,1.3212,1.3501,1.3454,1.2258,1.2068,1.2026,1.1106,1.1271,1.179,1.2359,1.3003,1.3542,1.363,1.3818,1.4097,1.4396,1.514,1.5899,1.6546,1.7134,1.7856,1.8669,1.8929,1.8935,1.8863,1.9259,1.9366,1.9366,1.9366,1.9366,1.9366,1.9366,1.9366,1.9366,1.9078,1.8998,1.9165,1.8738,1.8444,1.8283,1.7976,1.7749,1.7582,1.7582,1.7261,1.6707,1.6707,1.6373,1.5832,1.5832,1.5832,1.5832,1.5832,1.5832,1.5832,1.5832,1.5832,1.5832,0.0,0.0,0.0,0.0,0.0,0.0,0.0,0.0,0.0,0.0,0.0,0.0,0.0,0.0,0.0,0.0,0.0,0.0,0.0,0.0,0.0,0.0,0.0,0.6403,0.6378,0.6429,0.6772,0.753,0.7256,0.7962,0.9441,1.0036,1.0422,1.0571,1.1616,1.2282,0.0,0.0,0.0,0.0,1.3461,0.0,0.0,0.0,0.0,0.0,0.0,0.0,0.0,1.1236,1.1564,1.1822,1.2038,0.0,0.0,0.0,0.0,0.0,1.2645,1.2921,1.2723,1.133,1.1615,1.1748,0.9995,1.0599,1.1543,1.1682,1.2655,1.3454,1.3454,1.3824,1.4084,1.4212,1.5238,1.6511,1.7781,1.7324,1.7417,1.8859,1.8617,1.8691,1.9422,1.9459,1.9366,1.9366,1.9366,1.9352,1.9299,1.9299,1.9279,1.9239,1.8945,1.8791,1.8791,1.8297,1.805,1.8043,1.7736,1.7582,1.7582,1.7582,1.7261,1.6707,1.6707,1.6373,1.5832,1.5832,1.5832,1.5832,1.5832,1.5832,1.5832,1.5832,1.5832,1.5832,0.0,0.0,0.0,0.0,0.0,0.0,0.0,0.0,0.0,0.0,0.0,0.0,0.0,0.0,0.0,0.0,0.0,0.0,0.0,0.0,0.0,0.5844,0.6157,0.6395,0.6428,0.6416,0.6763,0.7477,0.8014,0.8312,0.8364,0.9051,0.9933,1.0878,1.2516,1.3078,1.2905,0.0,0.0,0.0,1.2952,0.0,0.0,0.0,0.0,0.0,0.0,0.0,0.0,1.0564,1.0906,1.1438,1.0998,0.0,0.0,0.0,0.0,0.0,1.111,1.1169,1.1201,1.0968,1.1074,1.0856,0.9809,1.0201,1.0947,1.1543,1.2487,1.3203,1.3461,1.341,1.3521,1.4372,1.5668,1.7257,1.9057,1.9159,1.8997,1.8978,1.9265,1.9236,1.8407,1.8984,1.9366,1.9366,1.9366,1.9259,1.9005,1.8991,1.8878,1.8631,1.8337,1.8183,1.8183,1.809,1.805,1.8043,1.7736,1.7582,1.7582,1.7582,1.7261,1.6707,1.6707,1.6373,1.5832,1.5832,1.5832,1.5832,1.5832,1.5832,1.5832,1.5832,1.5832,1.5832,0.0,0.0,0.0,0.0,0.0,0.0,0.0,0.0,0.0,0.0,0.0,0.0,0.0,0.0,0.0,0.0,0.0,0.0,0.0,0.0,0.0,0.5951,0.6148,0.6116,0.5782,0.6205,0.677,0.7501,0.7431,0.7521,0.7792,0.8548,0.9655,1.108,1.2296,1.2891,1.3046,1.3273,0.0,0.0,0.0,0.0,0.0,0.0,0.0,0.0,0.0,0.0,0.0,0.0,1.0958,1.0996,1.0892,0.0,0.0,0.0,0.0,0.0,1.0619,1.0604,1.0612,1.0085,1.0186,1.0263,0.9418,0.9704,1.0357,1.1217,1.1982,1.2693,1.3416,1.3938,1.4646,1.5953,1.6268,1.6859,1.8346,1.8282,1.8138,1.8715,1.8869,1.8882,1.8955,1.9299,1.9366,1.9366,1.9366,1.9239,1.8938,1.8925,1.8791,1.8504,1.8203,1.805,1.805,1.7883,1.7796,1.7796,1.7649,1.7502,1.7348,1.7348,1.7027,1.6473,1.6473,1.6226,1.5832,1.5832,1.5832,1.5832,1.5832,1.5832,1.5832,1.5832,1.5832,1.5832,0.0,0.0,0.0,0.0,0.0,0.0,0.0,0.0,0.0,0.0,0.0,0.0,0.0,0.0,0.0,0.0,0.0,0.0,0.0,0.0,0.5971,0.5906,0.5919,0.5716,0.5337,0.6217,0.6852,0.7226,0.6957,0.7007,0.7531,0.8255,0.9428,1.0798,1.173,1.2428,1.2933,1.3013,1.3013,0.0,0.0,0.0,0.0,0.0,0.0,0.0,0.0,0.0,0.0,0.0,0.0,0.0,0.0,0.0,0.0,0.9898,1.0008,1.0129,0.9961,0.999,0.9777,0.891,0.9325,0.9664,0.9013,0.9225,0.9819,1.0619,1.1496,1.2395,1.3238,1.4465,1.5693,1.7001,1.6819,1.6866,1.798,1.776,1.7728,1.8682,1.8525,1.8724,1.9633,1.9499,1.9366,1.9366,1.9366,1.9212,1.8844,1.8824,1.8657,1.829,1.8056,1.7943,1.7943,1.7702,1.7582,1.7582,1.7515,1.7368,1.725,1.7074,1.676,1.6273,1.6273,1.6106,1.5832,1.5832,1.5832,1.5832,1.5832,1.5832,1.5832,1.5832,1.5832,1.5832,0.0,0.0,0.0,0.0,0.0,0.0,0.0,0.0,0.0,0.0,0.0,0.0,0.0,0.0,0.0,0.0,0.0,0.0,0.0,0.0,0.5943,0.5463,0.5453,0.5422,0.531,0.6703,0.7092,0.6457,0.7399,0.7722,0.7531,0.8412,0.905,0.9502,1.1089,1.1942,1.2182,1.2395,1.2324,1.2203,0.0,0.0,0.0,0.0,0.0,0.0,0.0,0.0,0.0,0.0,0.0,0.0,0.0,0.0,1.0601,0.9434,0.9318,0.9456,0.862,0.8277,0.8144,0.7734,0.8408,0.903,0.8162,0.8578,0.9237,0.9389,1.116,1.2642,1.2736,1.4376,1.5846,1.6079,1.6995,1.8239,1.9472,1.9419,1.9366,1.97,1.9479,1.9325,1.9392,1.9379,1.9366,1.9366,1.9366,1.9118,1.8551,1.8524,1.8257,1.7662,1.7622,1.7615,1.7615,1.7595,1.7582,1.7582,1.7308,1.7174,1.7141,1.6867,1.6567,1.6273,1.6273,1.6106,1.5832,1.5832,1.5832,1.5832,1.5832,1.5832,1.5832,1.5832,1.5832,1.5832,0.0,0.0,0.0,0.0,0.0,0.0,0.0,0.0,0.0,0.0,0.0,0.0,0.0,0.0,0.0,0.0,0.0,0.0,0.0,0.5826,0.5864,0.5686,0.5414,0.5246,0.5342,0.6603,0.7054,0.6723,0.7521,0.7593,0.7012,0.8088,0.8772,0.9258,1.0408,1.1262,1.1793,1.1864,1.1971,1.1999,1.1883,0.0,0.0,0.0,0.0,0.0,0.0,0.0,0.0,0.0,1.0288,1.0003,0.993,0.9478,0.9,0.9051,0.9057,0.8949,0.8621,0.8554,0.8446,0.8114,0.8274,0.8332,0.783,0.8072,0.8604,0.9206,0.9969,1.0958,1.2288,1.4666,1.6315,1.6317,1.743,1.8521,1.9152,1.9319,1.9406,1.9519,1.9432,1.9366,1.9366,1.9366,1.9366,1.9366,1.9366,1.9112,1.8524,1.849,1.821,1.7602,1.7582,1.7582,1.7582,1.7582,1.7582,1.7582,1.7468,1.7228,1.6867,1.676,1.6446,1.5999,1.5999,1.5932,1.5832,1.5832,1.5832,1.5832,1.5832,1.5832,1.5832,1.5832,1.5832,1.5832,0.0,0.0,0.0,0.0,0.0,0.0,0.0,0.0,0.0,0.0,0.0,0.0,0.0,0.0,0.0,0.0,0.0,0.0,0.5348,0.5457,0.5583,0.5728,0.5389,0.529,0.556,0.6425,0.6769,0.658,0.7109,0.7172,0.6768,0.7642,0.8349,0.8953,0.9451,1.0236,1.1144,1.0907,1.1169,1.1653,1.1372,1.1335,0.0,0.0,0.0,0.0,0.0,0.0,0.0,0.0,1.0137,0.963,0.9638,0.8976,0.8205,0.864,0.8591,0.844,0.8414,0.8414,0.8325,0.8163,0.8048,0.7855,0.7725,0.7787,0.8157,0.8806,0.9156,1.0022,1.2395,1.455,1.6087,1.6497,1.7622,1.8484,1.8871,1.9098,1.9265,1.9359,1.9366,1.9332,1.9239,1.9225,1.9192,1.9098,1.9092,1.8871,1.8377,1.835,1.8116,1.7595,1.7495,1.7442,1.7442,1.7355,1.7355,1.7442,1.7348,1.7094,1.67,1.6613,1.6299,1.5832,1.5832,1.5832,1.5832,1.5832,1.5832,1.573,1.5343,1.5242,1.5146,1.4758,1.4567,1.4567,0.0,0.0,0.0,0.0,0.0,0.0,0.0,0.0,0.0,0.0,0.0,0.0,0.0,0.0,0.0,0.0,0.0,0.0,0.4394,0.4904,0.5269,0.5414,0.5399,0.5531,0.5885,0.6233,0.6207,0.5903,0.627,0.6576,0.689,0.7163,0.7674,0.8413,0.8118,0.8816,1.0257,0.9498,0.989,1.0881,1.0638,1.0588,1.0812,0.0,0.0,0.0,0.0,0.0,0.0,0.0,1.0223,0.9992,0.8784,0.8556,0.8627,0.8255,0.7935,0.7801,0.7881,0.7644,0.7346,0.7389,0.7485,0.7638,0.778,0.7889,0.7967,0.798,0.8825,1.0448,1.3232,1.4087,1.4861,1.6491,1.745,1.8141,1.8718,1.8805,1.9032,1.9332,1.9366,1.9252,1.8838,1.8811,1.8804,1.851,1.849,1.8357,1.7955,1.8043,1.7903,1.7589,1.7295,1.725,1.725,1.6854,1.6854,1.7141,1.6847,1.6707,1.6693,1.6406,1.6112,1.5825,1.5825,1.5737,1.573,1.573,1.573,1.5635,1.4364,1.3878,1.368,1.2431,1.1945,1.1945,0.0,0.0,0.0,0.0,0.0,0.0,0.0,0.0,0.0,0.0,0.0,0.0,0.0,0.0,0.0,0.0,0.0,0.0,0.3999,0.4528,0.4861,0.4832,0.4865,0.5135,0.5557,0.5905,0.6201,0.6586,0.6643,0.6695,0.689,0.7305,0.7537,0.7784,0.765,0.8255,0.939,0.9118,0.9728,1.0775,1.0559,1.0738,1.1037,0.0,0.0,0.0,0.0,0.0,0.0,0.0,0.0,0.0,0.9207,0.8709,0.8205,0.881,0.8604,0.8204,0.8332,0.8158,0.7878,0.7884,0.7759,0.7638,0.778,0.7858,0.8062,0.816,0.94,1.051,1.0663,1.2069,1.3226,1.3241,1.4174,1.5038,1.5355,1.5554,1.587,1.5998,1.6026,1.5931,1.5797,1.5775,1.5669,1.5417,1.6422,1.687,1.649,1.7281,1.7589,1.7288,1.6994,1.684,1.684,1.6747,1.6332,1.5485,1.5405,1.5878,1.6693,1.6406,1.5616,1.4459,1.4459,1.3974,1.3011,1.3011,1.3011,1.3011,1.2624,1.2522,1.2431,1.2042,1.1945,1.1945,0.0,0.0,0.0,0.0,0.0,0.0,0.0,0.0,0.0,0.0,0.0,0.0,0.0,0.0,0.0,0.0,0.0,0.0,0.0,0.4187,0.448,0.4611,0.4779,0.4997,0.5289,0.5491,0.5815,0.64,0.6518,0.6611,0.668,0.7022,0.7225,0.7219,0.6937,0.7509,0.8714,0.8245,0.8945,1.0288,0.9986,1.0137,1.0513,0.0,0.0,0.0,0.0,0.0,0.0,0.0,0.0,0.0,0.8918,0.8515,0.8036,0.8626,0.8371,0.7865,0.8085,0.7928,0.7678,0.7869,0.7757,0.7723,0.7868,0.7974,0.8099,0.8309,0.9222,0.9945,1.0048,1.1142,1.2077,1.235,1.2989,1.3683,1.3886,1.4048,1.433,1.4442,1.4468,1.4463,1.4142,1.4111,1.402,1.379,1.4657,1.4998,1.4747,1.5446,1.5791,1.5421,1.5245,1.501,1.5008,1.4904,1.4501,1.3886,1.3691,1.4096,1.5002,1.4844,1.4131,1.3102,1.3102,1.2624,1.1945,1.1945,1.1945,1.1848,1.1365,1.117,1.1068,1.0583,1.0395,1.0306,0.0,0.0,0.0,0.0,0.0,0.0,0.0,0.0,0.0,0.0,0.0,0.0,0.0,0.0,0.0,0.0,0.0,0.0,0.0,0.0,0.4199,0.4623,0.495,0.509,0.5153,0.5087,0.5226,0.5572,0.6106,0.6392,0.6405,0.6647,0.6735,0.6769,0.6202,0.6806,0.8139,0.7266,0.7906,0.9513,0.9125,0.9216,0.9695,1.0196,0.0,0.0,0.0,0.0,0.0,0.0,0.0,0.0,0.8197,0.8028,0.8016,0.8012,0.7574,0.7207,0.7447,0.7197,0.7054,0.7506,0.7726,0.7868,0.8007,0.8038,0.8123,0.8421,0.8401,0.8863,1.0562,1.0737,1.122,1.2665,1.293,1.2979,1.3389,1.3448,1.364,1.3857,1.3887,1.3719,1.33,1.3261,1.3172,1.296,1.3053,1.3056,1.2831,1.3103,1.3118,1.2797,1.2654,1.2446,1.2353,1.2051,1.1948,1.2149,1.1845,1.186,1.2054,1.2248,1.2137,1.1755,1.1556,1.156,1.156,1.156,1.156,1.1468,1.0297,0.9809,0.971,0.8435,0.7955,0.7975,0.0,0.0,0.0,0.0,0.0,0.0,0.0,0.0,0.0,0.0,0.0,0.0,0.0,0.0,0.0,0.0,0.0,0.0,0.0,0.0,0.3991,0.4249,0.4626,0.5027,0.5359,0.5156,0.5078,0.5127,0.574,0.6234,0.6607,0.6776,0.6579,0.6037,0.6146,0.6324,0.6653,0.7112,0.8005,0.8985,0.8975,0.9304,0.9825,0.9633,0.9755,0.0,0.0,0.0,0.0,0.0,0.0,0.0,0.8354,0.8305,0.8271,0.8098,0.7663,0.7386,0.7624,0.7446,0.72,0.7655,0.7879,0.7997,0.8031,0.8038,0.8123,0.8421,0.8648,0.8893,0.919,0.9261,0.9399,0.9626,0.9828,0.9987,1.0183,1.0209,1.0273,1.0443,1.0461,1.0382,1.0175,1.0156,1.0088,0.9816,1.0891,1.1562,1.1358,1.2287,1.2617,1.246,1.2178,1.2066,1.2021,1.197,1.1385,1.0551,1.0408,0.9933,0.9003,1.1049,1.1409,1.0391,0.9312,0.8832,0.8851,0.8851,0.8858,0.8766,0.8571,0.8475,0.8375,0.8079,0.7982,0.7679,0.0,0.0,0.0,0.0,0.0,0.0,0.0,0.0,0.0,0.0,0.0,0.0,0.0,0.0,0.0,0.0,0.0,0.0,0.0,0.0,0.3748,0.4007,0.4527,0.4894,0.5027,0.4758,0.4794,0.5209,0.5274,0.5474,0.5962,0.6106,0.6082,0.5875,0.6015,0.6342,0.6929,0.7183,0.7816,0.8621,0.8396,0.8532,0.8926,0.906,0.9205,0.9342,0.9408,0.0,0.0,0.0,0.0,0.0,0.0,0.0,0.7983,0.7727,0.748,0.7366,0.7432,0.7375,0.7356,0.7807,0.798,0.8038,0.8038,0.8096,0.8194,0.835,0.8509,0.8615,0.8604,0.8726,0.8777,0.8625,0.8791,0.8964,0.9042,0.911,0.9184,0.9262,0.9273,0.9215,0.9066,0.8984,0.894,0.894,0.9443,0.9846,0.9754,1.0285,1.0527,1.0271,1.025,1.0108,1.0027,1.0027,0.9731,0.9046,0.9046,0.8041,0.6137,0.8829,0.9636,0.9046,0.8261,0.7969,0.7879,0.6648,0.6039,0.6044,0.6044,0.6044,0.6044,0.6044,0.6865,0.7802,0.0,0.0,0.0,0.0,0.0,0.0,0.0,0.0,0.0,0.0,0.0,0.0,0.0,0.0,0.0,0.0,0.0,0.0,0.0,0.0,0.0,0.4223,0.4628,0.4761,0.4758,0.4295,0.4439,0.5266,0.4697,0.4613,0.4823,0.5168,0.546,0.5699,0.5623,0.6197,0.72,0.6872,0.7256,0.8033,0.7586,0.7603,0.7943,0.8595,0.8746,0.8727,0.9131,0.9223,0.9072,0.8338,0.0,0.0,0.0,0.0,0.768,0.7488,0.7328,0.73,0.7099,0.7292,0.7536,0.7909,0.8021,0.8038,0.8038,0.814,0.8231,0.8231,0.8272,0.8336,0.8428,0.857,0.8621,0.8469,0.8679,0.8859,0.8859,0.896,0.9045,0.9072,0.9055,0.9001,0.891,0.876,0.8723,0.8852,0.8625,0.8472,0.8452,0.8448,0.8333,0.7985,0.7671,0.7471,0.7272,0.7272,0.7272,0.7272,0.7788,0.6865,0.4728,0.6461,0.7278,0.7272,0.7272,0.7578,0.7792,0.5639,0.4121,0.3316,0.3316,0.3316,0.3316,0.3316,0.4738,0.6586,0.0,0.0,0.0,0.0,0.0,0.0,0.0,0.0,0.0,0.0,0.0,0.0,0.0,0.0,0.0,0.0,0.0,0.0,0.3278,0.0,0.0,0.5153,0.496,0.4964,0.5292,0.4631,0.4346,0.4654,0.4186,0.3944,0.383,0.477,0.4997,0.4654,0.4798,0.488,0.4983,0.5527,0.6197,0.6849,0.7138,0.768,0.8344,0.8277,0.8328,0.8403,0.8119,0.8398,0.8638,0.7957,0.8384,0.0,0.0,0.0,0.8336,0.7768,0.7494,0.73,0.7099,0.7441,0.7767,0.7828,0.794,0.8038,0.8038,0.8055,0.8069,0.8069,0.8275,0.8421,0.8319,0.8418,0.8465,0.8323,0.8435,0.8543,0.8543,0.856,0.8621,0.8754,0.8652,0.8615,0.873,0.8604,0.852,0.854,0.8506,0.8431,0.8319,0.8313,0.8245,0.7992,0.5749,0.4531,0.4522,0.4522,0.4522,0.4522,0.6877,0.7811,0.7403,0.5466,0.4543,0.4522,0.4522,0.5849,0.8019,0.7607,0.4748,0.0504,0.0504,0.0504,0.0504,0.0504,0.0808,0.1111,0.0,0.0,0.0,0.0,0.0,0.0,0.0,0.0,0.0,0.0,0.0,0.0,0.0,0.0,0.0,0.1676,0.1654,0.2058,0.2905,0.3732,0.4366,0.4755,0.4898,0.4901,0.4758,0.4222,0.4044,0.4368,0.3827,0.3587,0.3847,0.4008,0.4141,0.4236,0.4311,0.4617,0.5078,0.5135,0.5777,0.6697,0.6088,0.6533,0.759,0.6945,0.6901,0.7131,0.6743,0.6976,0.745,0.6824,0.7164,0.7732,0.7511,0.0,0.0,0.0,0.7008,0.7038,0.7183,0.7414,0.7624,0.7875,0.7926,0.7933,0.8021,0.8038,0.8038,0.8038,0.8143,0.8214,0.8153,0.8262,0.8313,0.8167,0.8333,0.8455,0.8374,0.8431,0.8506,0.8574,0.8523,0.8509,0.8574,0.8452,0.8404,0.8601,0.8347,0.8269,0.8412,0.6765,0.6505,0.7908,0.6877,0.4841,0.1812,0.1711,0.1711,0.1812,0.5977,0.8042,0.7837,0.3641,0.1716,0.1711,0.1711,0.242,0.3536,0.3536,0.2121,0.0,0.0,0.0,0.0,0.0,0.0,0.0,0.0,0.0,0.0,0.0,0.0,0.0,0.0,0.0,0.0,0.0,0.0,0.0,0.0,0.0,0.0,0.0,0.0646,0.1323,0.2663,0.3526,0.4177,0.4506,0.4763,0.4719,0.4425,0.3968,0.39,0.4156,0.3491,0.3388,0.3787,0.3417,0.3503,0.3995,0.3805,0.4207,0.4961,0.4409,0.4969,0.6149,0.5133,0.5519,0.671,0.5535,0.5541,0.6091,0.5558,0.5529,0.578,0.5845,0.6149,0.6549,0.6788,0.6759,0.0,0.0,0.0,0.6732,0.7058,0.7195,0.7319,0.7724,0.7771,0.7754,0.8004,0.8038,0.8038,0.8038,0.8038,0.8038,0.8038,0.8133,0.8174,0.8058,0.8225,0.8333,0.8225,0.8303,0.8384,0.8425,0.8394,0.8384,0.8425,0.8303,0.8272,0.8397,0.7576,0.7412,0.8371,0.6199,0.5343,0.5972,0.5974,0.4041,0.0,0.0,0.0,0.0,0.4051,0.5992,0.5787,0.1819,0.0,0.0,0.0,0.0,0.0,0.0,0.0,0.0,0.0,0.0,0.0,0.0,0.0,0.0,0.0,0.0,0.0,0.0,0.0,0.0,0.0,0.0,0.0,0.0,0.0,0.0,-0.0452,-0.0692,-0.0854,-0.0827,-0.0236,0.0895,0.2707,0.3046,0.3737,0.5014,0.4763,0.0,0.4764,0.4431,0.4095,0.3823,0.3426,0.3182,0.3207,0.299,0.3222,0.3771,0.3041,0.2896,0.332,0.2915,0.3432,0.452,0.4571,0.5277,0.6081,0.4398,0.4798,0.6092,0.4994,0.4208,0.3822,0.5445,0.6131,0.6496,0.7622,0.7618,0.7081,0.0,0.0,0.0,0.6606,0.6699,0.6876,0.7163,0.7334,0.7566,0.7908,0.8038,0.8038,0.8038,0.8038,0.8038,0.8038,0.8045,0.8048,0.8041,0.8052,0.8062,0.8052,0.8058,0.8116,0.8262,0.815,0.8119,0.8269,0.816,0.7989,0.7995,0.5636,0.5338,0.7928,0.7922,0.5564,0.0606,0.0404,0.0303,0.0,0.0,0.0,0.0,0.0303,0.0404,0.0404,0.0101,0.0,0.0,0.0,0.0,0.0,0.0,0.0,0.0,0.0,0.0,0.0,0.0,0.0,0.0,0.0,0.0,0.0,0.0,0.0,0.0,0.0,0.0,0.0,0.0,0.0,0.0,0.0,-0.1222,-0.1253,-0.1121,-0.0177,0.0716,0.1597,0.2468,0.3372,0.4221,0.4344,0.4308,0.4298,0.4097,0.3961,0.3825,0.3426,0.3223,0.3343,0.3088,0.304,0.3064,0.2597,0.2702,0.3331,0.2393,0.3028,0.447,0.3511,0.3714,0.4489,0.3189,0.2479,0.2288,0.2984,0.3021,0.2758,0.3374,0.4157,0.5084,0.5983,0.6277,0.6211,0.5983,0.5962,0.6112,0.6053,0.6291,0.6552,0.7005,0.7182,0.7423,0.7761,0.7892,0.7919,0.8018,0.7963,0.7923,0.8021,0.8038,0.8038,0.8038,0.8038,0.8038,0.8038,0.8038,0.8065,0.8136,0.7995,0.7985,0.815,0.8012,0.7992,0.8006,0.7083,0.5527,0.2978,0.2876,0.1983,0.0099,0.0,0.0,0.0,0.0,0.0,0.0,0.0,0.0,0.0,0.0,0.0,0.0,0.0,0.0,0.0,0.0,0.0,0.0,0.0,0.0,0.0,0.0,0.0,0.0,0.0,0.0,0.0,0.0,0.0,0.0,0.0,0.0,0.0,0.0,0.0,0.0,0.0,0.0,-0.1366,-0.1104,-0.0232,0.0467,0.0834,0.186,0.2815,0.3586,0.3924,0.3968,0.3825,0.3963,0.3895,0.3625,0.336,0.3275,0.3367,0.3123,0.3004,0.3103,0.2542,0.258,0.3006,0.2393,0.2783,0.3916,0.3051,0.2516,0.216,0.1581,0.1191,0.0882,0.1479,0.1729,0.1864,0.1889,0.2707,0.3842,0.4794,0.5378,0.5677,0.5506,0.5617,0.5796,0.5601,0.5814,0.6064,0.6502,0.6578,0.6807,0.7324,0.7452,0.7574,0.7774,0.7811,0.7787,0.7936,0.7963,0.798,0.8031,0.8038,0.8038,0.8038,0.8045,0.7955,0.7972,0.7156,0.6648,0.6656,0.7441,0.8035,0.8048,0.6286,0.3746,0.0195,0.0,0.0,0.0,0.0,0.0,0.0,0.0,0.0,0.0,0.0,0.0,0.0,0.0,0.0,0.0,0.0,0.0,0.0,0.0,0.0,0.0,0.0,0.0,0.0,0.0,0.0,0.0,0.0,0.0,0.0,0.0,0.0,0.0,0.0,0.0,0.0,-0.1673,0.0,0.0,0.0,0.0,0.0,-0.0904,-0.0337,0.0168,0.0561,0.1311,0.2097,0.3087,0.3519,0.3689,0.3487,0.402,0.3956,0.3226,0.3226,0.3273,0.336,0.3151,0.3309,0.3852,0.2866,0.2302,0.227,0.2679,0.2727,0.2511,0.337,0.1995,-0.0547,-0.0153,0.0999,0.2205,0.0645,0.0569,0.1219,0.1213,0.1835,0.2752,0.4144,0.5002,0.5559,0.5559,0.5559,0.5509,0.0,0.0,0.0,0.5481,0.5541,0.5844,0.6708,0.6929,0.7026,0.7503,0.7597,0.7638,0.778,0.7811,0.7862,0.8011,0.8038,0.8041,0.8041,0.7959,0.7972,0.7969,0.5729,0.4012,0.3909,0.6251,0.7791,0.7791,0.2987,0.0,0.0,0.0,0.0,0.0,0.0,0.0,0.0,0.0,0.0,0.0,0.0,0.0,0.0,0.0,0.0,0.0,0.0,0.0,0.0,0.0,0.0,0.0,0.0,0.0,0.0,0.0,0.0,0.0,0.0,0.0,0.0,0.0,0.0,0.0,-0.1232,-0.1676,-0.1856,0.0,0.0,0.0,-0.1188,-0.1217,-0.1186,-0.0932,-0.0523,0.0,0.0744,0.1199,0.167,0.2166,0.2598,0.2954,0.3291,0.3424,0.3627,0.3761,0.336,0.324,0.3264,0.3053,0.3035,0.3083,0.2773,0.253,0.2324,0.2609,0.2322,0.1723,0.0787,0.0233,-0.0233,-0.1067,-0.0525,0.0822,0.1563,0.0476,-0.1109,-0.0079,0.0408,0.0926,0.2812,0.4101,0.4935,0.4935,0.4935,0.494,0.4656,0.0,0.0,0.0,0.0,0.0,0.5998,0.6438,0.6814,0.701,0.7323,0.7485,0.7739,0.775,0.7838,0.8014,0.8004,0.7962,0.7962,0.7975,0.7952,0.796,0.7343,0.5412,0.1453,0.1734,0.221,0.221,0.0861,0.0,0.0,0.0,0.0,0.0,0.0,0.0,0.0,0.0,0.0,0.0,0.0,0.0,0.0,0.0,0.0,0.0,0.0,0.0,0.0,0.0,0.0,0.0,0.0,0.0,0.0,0.0,0.0,0.0,0.0,0.0,0.0,0.0,0.0,-0.1612,-0.154,-0.1853,-0.2023,0.0,0.0,0.0,-0.1134,-0.1103,-0.0957,-0.0531,-0.0775,-0.0485,0.0435,0.0636,0.0908,0.1454,0.1802,0.2281,0.2956,0.3291,0.356,0.3763,0.356,0.336,0.3228,0.3143,0.2979,0.2804,0.2748,0.2595,0.2278,0.2534,0.2116,0.1154,0.0317,-0.0395,-0.1042,-0.299,-0.2958,-0.1475,0.0712,-0.0481,-0.2986,-0.2136,-0.1299,-0.0252,0.2195,0.3441,0.3966,0.4323,0.4467,0.4389,0.4231,0.4146,0.4138,0.4221,0.0,0.0,0.5313,0.5801,0.6142,0.6668,0.6976,0.716,0.7394,0.7495,0.7621,0.7945,0.8048,0.7611,0.6537,0.7325,0.8007,0.7997,0.6033,0.3421,0.029,0.0,0.0,0.0,0.0,0.0,0.0,0.0,0.0,0.0,0.0,0.0,0.0,0.0,0.0,0.0,0.0,0.0,0.0,0.0,0.0,0.0,0.0,-0.1313,-0.3131,-0.0909,0.0,0.0,0.0,0.0,0.0,0.0,0.0,0.0,0.0,0.0,-0.1498,-0.1395,-0.179,-0.2121,-0.2097,-0.2129,-0.2093,0.0,-0.1749,-0.1465,-0.1166,-0.1009,-0.0614,-0.0119,-0.1098,-0.1349,-0.042,-0.0252,0.0129,0.0908,0.1193,0.1812,0.2686,0.3355,0.3627,0.3565,0.3694,0.3625,0.3226,0.3226,0.3065,0.2788,0.2797,0.2593,0.2188,0.2646,0.2022,0.0729,0.071,-0.0401,-0.2418,-0.5081,-0.5437,-0.4172,-0.1553,-0.2225,-0.4353,-0.4107,-0.2803,-0.0803,0.193,0.2821,0.2978,0.3787,0.4079,0.4001,0.3763,0.3742,0.3724,0.3327,0.3297,0.0,0.4694,0.4946,0.528,0.6197,0.645,0.6538,0.6832,0.6894,0.695,0.7171,0.7359,0.6813,0.47,0.5955,0.7137,0.7144,0.2861,0.0,0.0,0.0,0.0,0.0,0.0,0.0,0.0,0.0,0.0,0.0,0.0,0.0,0.0,0.0,0.0,0.0,0.0,0.0,0.0,0.0,0.0,-0.0,-0.0606,-0.3636,-0.7613,-0.2826,-0.0707,-0.0404,-0.0101,0.0,0.0,0.0,0.0,0.0,-0.1144,-0.1164,-0.1183,-0.119,-0.1421,-0.1643,-0.1546,-0.1742,-0.1653,-0.1078,-0.1145,-0.1267,-0.1553,-0.0963,-0.0511,-0.0318,-0.1914,-0.2775,-0.2568,-0.1526,-0.0467,0.0535,0.0941,0.1615,0.2686,0.282,0.3155,0.3758,0.3758,0.3625,0.3226,0.3226,0.31,0.2982,0.2842,0.2707,0.2572,0.3222,0.2252,0.0243,-0.0473,-0.1589,-0.3013,-0.4135,-0.5148,-0.5753,-0.4622,-0.4659,-0.4849,-0.3147,-0.1543,-0.0158,0.0319,0.1671,0.3158,0.369,0.3847,0.3771,0.3368,0.3146,0.3016,0.2994,0.3019,0.0,0.3597,0.4028,0.436,0.4527,0.4944,0.5328,0.5664,0.5585,0.4788,0.2514,0.3603,0.5312,0.7012,0.3936,0.1563,0.1545,0.0663,0.0,0.0,0.0,0.0,0.0,0.0,0.0,0.0,0.0,0.0,0.0,0.0,0.0,0.0,0.0,0.0,0.0,0.0,0.0,0.0,0.0,0.0,-0.0202,-0.4549,-0.6997,-0.7918,-0.6877,-0.5138,-0.3015,-0.0807,0.0,0.0,0.0,0.0,0.0,-0.1264,-0.1275,-0.1292,-0.1164,-0.1386,-0.1743,-0.2223,-0.2404,-0.229,-0.1688,-0.1481,-0.1339,-0.1385,-0.1252,-0.1114,-0.1033,-0.2517,-0.3418,-0.3243,-0.2232,-0.1295,-0.0472,0.0403,0.1344,0.2281,0.3021,0.3489,0.3825,0.3892,0.3625,0.3092,0.3092,0.3004,0.2772,0.2819,0.2416,0.1825,0.2504,0.1504,-0.0412,0.0555,-0.0951,-0.3812,-0.4833,-0.5665,-0.6244,-0.5924,-0.4407,-0.2485,-0.1478,-0.0493,0.0325,0.0,0.0894,0.2025,0.2402,0.277,0.2904,0.2743,0.2586,0.2518,0.2391,0.2418,0.0,0.0,0.3413,0.3608,0.4026,0.4238,0.4401,0.46,0.4529,0.3898,0.2082,0.2297,0.3167,0.4474,0.2002,0.0,0.0,0.0,0.0,0.0,0.0,0.0,0.0,0.0,0.0,0.0,-0.2013,-0.3148,-0.3183,-0.2096,-0.1047,-0.0,0.0,-0.1184,-0.3479,-0.115,0.0,0.0,0.0,-0.1414,-0.4144,-0.6793,-0.8016,-0.7999,-0.7992,-0.7117,-0.5745,-0.4514,-0.2402,0.0,0.0,0.0,0.0,-0.1528,-0.1599,-0.1544,-0.1357,-0.149,-0.1981,-0.3072,-0.3216,-0.3059,-0.2703,-0.2085,-0.1544,-0.1402,-0.1535,-0.1654,-0.1485,-0.2811,-0.3659,-0.3558,-0.2843,-0.212,-0.1548,-0.0201,0.0936,0.1997,0.3145,0.3692,0.3758,0.3828,0.356,0.3025,0.2956,0.279,0.2541,0.2657,0.2056,0.0956,0.1373,0.0718,-0.0416,0.1592,-0.008,-0.3924,-0.5604,-0.6205,-0.6284,-0.626,-0.3549,-0.0079,-0.0889,-0.0577,-0.0,-0.0082,0.0249,0.0754,0.1068,0.1367,0.1579,0.1658,0.1731,0.1729,0.1429,0.1442,0.17,0.0,0.0,0.0,0.3098,0.321,0.3184,0.3178,0.3381,0.3397,0.2812,0.2128,0.1605,0.1451,0.0818,0.0367,0.0284,0.0093,0.0,0.0,0.0184,-0.0181,-0.1316,-0.0872,-0.0609,-0.0608,-0.3833,-0.587,-0.6328,-0.4582,-0.2873,-0.1204,-0.0879,-0.2608,-0.6379,-0.2958,-0.1165,-0.0682,-0.0795,-0.3111,-0.726,-0.7798,-0.7982,-0.7928,-0.7935,-0.7835,-0.779,-0.7908,-0.5376,-0.137,-0.0399,0.0,0.0,-0.1699,-0.1795,-0.1912,-0.1735,-0.1587,-0.1947,-0.33,-0.3283,-0.3192,-0.3105,-0.2353,-0.1933,-0.2275,-0.1622,-0.1167,-0.1163,-0.2478,-0.3699,-0.4732,-0.3749,-0.2765,-0.195,-0.0873,0.0597,0.2399,0.252,0.2887,0.3565,0.3362,0.3226,0.3159,0.2889,0.2681,0.2674,0.256,0.1829,0.0524,0.059,0.0994,0.1545,0.0316,-0.0803,-0.2083,-0.4804,-0.5913,-0.6086,-0.6215,-0.3586,-0.0485,-0.3908,-0.3922,-0.2296,-0.0916,-0.0252,0.0168,0.0754,0.033,-0.0243,-0.0162,0.008,0.0079,-0.0494,-0.0081,0.024,-0.0509,0.0,0.0164,-0.025,0.0,0.0899,0.092,0.0,0.0,0.2108,0.2373,0.229,0.1445,0.1617,0.1742,0.1291,0.0539,0.0,0.0,0.0728,-0.0898,-0.5927,-0.4132,-0.2777,-0.2771,-0.3223,-0.4371,-0.6263,-0.6074,-0.5817,-0.5577,-0.3961,-0.3429,-0.4045,-0.553,-0.5165,-0.3239,-0.3403,-0.3925,-0.462,-0.7009,-0.7898,-0.7771,-0.7754,-0.7756,-0.7655,-0.7868,-0.7588,-0.6477,-0.1796,0.0,0.0,-0.2143,-0.2124,-0.2243,-0.2194,-0.2146,-0.2368,-0.3161,-0.3424,-0.3416,-0.3311,-0.2892,-0.2758,-0.3388,-0.318,-0.3021,-0.2976,-0.4138,-0.4549,-0.372,-0.3908,-0.37,-0.2886,-0.1317,-0.0068,0.0743,0.2085,0.2889,0.3159,0.2956,0.2824,0.2758,0.2622,0.2601,0.2829,0.2628,0.2011,0.0963,-0.023,-0.0642,-0.0589,-0.0985,-0.2322,-0.4162,-0.5278,-0.4384,-0.2864,-0.5373,-0.5151,-0.3748,-0.4062,-0.3844,-0.3286,-0.2236,-0.1365,-0.0793,-0.1189,-0.1937,-0.2524,-0.1824,-0.13,-0.0966,-0.158,-0.1475,-0.1214,-0.1095,-0.0847,-0.0675,-0.084,0.0,0.0,0.0,0.0,0.0,0.0,0.1666,0.2102,0.126,0.1665,0.1762,0.1048,0.1295,0.1118,0.0088,0.036,-0.1431,-0.6257,-0.5617,-0.4994,-0.4951,-0.4989,-0.5361,-0.628,-0.6273,-0.6267,-0.6273,-0.5647,-0.5422,-0.5452,-0.6563,-0.6599,-0.5611,-0.5731,-0.5878,-0.6064,-0.7193,-0.7671,-0.7604,-0.7692,-0.76,-0.7489,-0.7716,-0.787,-0.7736,-0.5513,-0.2655,0.0,-0.255,-0.2564,-0.2627,-0.2649,-0.2689,-0.2835,-0.3235,-0.3514,-0.3688,-0.3788,-0.379,-0.3958,-0.4533,-0.4954,-0.5263,-0.5313,-0.5241,-0.4676,-0.354,-0.406,-0.4285,-0.3843,-0.198,-0.0982,-0.0967,0.1093,0.2249,0.2403,0.2367,0.2362,0.2313,0.2296,0.2474,0.2849,0.2886,0.2262,0.0969,-0.1643,-0.2951,-0.3235,-0.2908,-0.4074,-0.5892,-0.517,-0.3634,-0.2116,-0.519,-0.6312,-0.6081,-0.4499,-0.4003,-0.4069,-0.3471,-0.2566,-0.187,-0.281,-0.3553,-0.4085,-0.3384,-0.2898,-0.2699,-0.2963,-0.2834,-0.2541,-0.2102,-0.1784,-0.1619,-0.1697,-0.1688,0.0,0.0,0.0,-0.1062,-0.0806,0.0,0.1495,0.1073,0.1546,0.1793,0.1174,0.1853,0.1772,0.0339,0.0089,-0.1509,-0.5098,-0.5278,-0.5608,-0.6309,-0.5808,-0.5689,-0.6284,-0.6332,-0.6325,-0.6278,-0.6466,-0.6696,-0.681,-0.7015,-0.7067,-0.7067,-0.7124,-0.7276,-0.7359,-0.7402,-0.7486,-0.7536,-0.7536,-0.7448,-0.7319,-0.7431,-0.7602,-0.7861,-0.7941,-0.5106,-0.1237,-0.303,-0.3098,-0.3088,-0.294,-0.3106,-0.3306,-0.3441,-0.3497,-0.3889,-0.4798,-0.5268,-0.5492,-0.5473,-0.6649,-0.7542,-0.7915,-0.4812,-0.3542,-0.5287,-0.4585,-0.425,-0.464,-0.3182,-0.2271,-0.222,-0.062,0.0495,0.1088,0.1448,0.184,0.2233,0.1975,0.2181,0.2652,0.3434,0.2557,0.0234,-0.3832,-0.5575,-0.556,-0.5592,-0.5861,-0.6041,-0.3867,-0.4316,-0.6122,-0.6237,-0.6315,-0.6237,-0.6045,-0.5606,-0.4981,-0.4322,-0.3602,-0.3023,-0.3353,-0.3886,-0.444,-0.4709,-0.5129,-0.538,-0.5105,-0.4346,-0.3781,-0.4291,-0.3775,-0.3378,-0.3959,-0.3158,-0.227,-0.2353,-0.1766,-0.1492,-0.2136,-0.072,0.0,0.0,0.1649,0.2237,0.2343,0.1849,0.127,0.0691,0.0348,-0.0783,-0.2859,-0.2719,-0.3741,-0.6435,-0.4437,-0.4142,-0.6268,-0.6285,-0.6291,-0.6285,-0.6491,-0.6646,-0.6676,-0.6937,-0.7071,-0.7098,-0.7319,-0.738,-0.7387,-0.7536,-0.7516,-0.738,-0.738,-0.7288,-0.7146,-0.7153,-0.7248,-0.74,-0.766,-0.6558,-0.445,-0.3536,-0.3499,-0.3426,-0.3401,-0.3111,-0.2999,-0.3151,-0.4029,-0.4664,-0.4701,-0.4873,-0.5398,-0.6201,-0.6659,-0.7088,-0.7378,-0.6504,-0.5791,-0.5541,-0.5463,-0.5275,-0.4756,-0.3949,-0.3593,-0.3697,-0.1429,-0.0504,-0.109,0.0644,0.1354,0.1075,0.1399,0.2103,0.302,0.3672,0.376,0.3064,-0.0462,-0.3399,-0.5635,-0.4916,-0.5106,-0.5912,-0.5371,-0.5626,-0.6149,-0.4711,-0.5098,-0.6291,-0.625,-0.607,-0.5867,-0.5654,-0.5432,-0.5208,-0.5237,-0.5499,-0.5762,-0.5849,-0.6239,-0.6433,-0.5975,-0.5317,-0.4849,-0.5155,-0.4889,-0.4561,-0.4499,-0.4482,-0.4236,-0.3487,-0.3462,-0.3228,-0.2212,-0.1199,-0.0242,0.0,0.1647,0.2352,0.2743,0.2743,0.205,0.0407,0.0678,-0.0256,-0.3265,-0.1823,-0.2476,-0.6238,-0.5686,-0.4307,-0.2187,-0.4862,-0.5652,-0.4222,-0.4826,-0.5699,-0.6732,-0.6912,-0.7054,-0.7061,-0.7099,-0.7078,-0.7085,-0.7231,-0.7214,-0.7085,-0.718,-0.7187,-0.7139,-0.7139,-0.7173,-0.7238,-0.7315,-0.7003,-0.6233,-0.3921,-0.3789,-0.3684,-0.3628,-0.3589,-0.3673,-0.3801,-0.4988,-0.5783,-0.5722,-0.5831,-0.6328,-0.7336,-0.717,-0.6983,-0.7156,-0.7118,-0.6801,-0.6064,-0.5942,-0.5754,-0.5387,-0.4686,-0.4382,-0.4539,-0.2555,-0.1777,-0.2392,-0.0593,0.0074,-0.0298,0.0505,0.1369,0.2361,0.3475,0.4281,0.4699,0.265,-0.0316,-0.37,-0.3681,-0.4605,-0.5984,-0.612,-0.588,-0.5474,-0.457,-0.509,-0.6278,-0.6264,-0.6311,-0.6273,-0.6329,-0.629,-0.6276,-0.6173,-0.6299,-0.6443,-0.6453,-0.6695,-0.6827,-0.6348,-0.5871,-0.5572,-0.5777,-0.5532,-0.5218,-0.5189,-0.5239,-0.5199,-0.4668,-0.4125,-0.3421,-0.2451,-0.1359,-0.0241,0.0,0.1705,0.2225,0.2692,0.2728,0.2322,0.1271,0.091,0.0,-0.1812,-0.0731,-0.122,-0.3891,-0.4064,-0.3134,-0.1173,-0.3054,-0.4079,-0.4233,-0.4059,-0.4884,-0.6661,-0.6787,-0.6898,-0.6903,-0.6892,-0.6848,-0.6854,-0.6946,-0.6963,-0.6936,-0.7027,-0.7095,-0.7139,-0.7139,-0.7139,-0.7058,-0.7029,-0.7145,-0.7055,-0.4164,-0.4022,-0.3862,-0.3638,-0.4394,-0.5121,-0.5236,-0.6182,-0.7049,-0.7793,-0.7929,-0.8082,-0.8709,-0.8063,-0.7535,-0.7375,-0.6763,-0.6507,-0.6957,-0.6053,-0.5754,-0.6459,-0.5433,-0.4874,-0.4842,-0.3903,-0.3211,-0.2824,-0.2145,-0.1839,-0.1801,-0.0822,0.0074,0.083,0.2572,0.3919,0.4886,0.4886,0.2986,-0.0157,-0.2267,-0.4399,-0.6264,-0.5973,-0.5156,-0.4493,-0.5817,-0.6278,-0.6278,-0.6264,-0.6338,-0.6338,-0.6338,-0.6338,-0.6338,-0.6338,-0.6271,-0.6335,-0.6607,-0.6671,-0.6563,-0.6241,-0.6105,-0.5944,-0.6074,-0.5682,-0.5468,-0.5985,-0.5529,-0.5209,-0.5816,-0.3779,-0.2284,-0.285,-0.1277,0.0558,0.1904,0.1969,0.1951,0.2265,0.1901,0.2051,0.3144,0.1052,0.0161,0.1255,0.048,-0.0079,-0.0,0.0,-0.094,-0.289,-0.1019,-0.1963,-0.593,-0.3932,-0.4059,-0.6309,-0.6562,-0.6705,-0.6646,-0.6702,-0.6688,-0.6688,-0.6698,-0.6783,-0.6919,-0.6926,-0.701,-0.7139,-0.7132,-0.7126,-0.7102,-0.6983,-0.6949,-0.7066,-0.4538,-0.4332,-0.3906,-0.3178,-0.4411,-0.5277,-0.4919,-0.5366,-0.6126,-0.7274,-0.6972,-0.7035,-0.7717,-0.7365,-0.7079,-0.7038,-0.6778,-0.662,-0.6662,-0.6616,-0.6426,-0.5902,-0.611,-0.5832,-0.5117,-0.3901,-0.3669,-0.4389,-0.3117,-0.2493,-0.2582,-0.1974,-0.105,0.0075,0.0452,0.153,0.3141,0.3141,0.1962,-0.0157,-0.2267,-0.4405,-0.6289,-0.6202,-0.5879,-0.5496,-0.606,-0.6274,-0.6264,-0.6264,-0.6338,-0.6338,-0.6338,-0.6338,-0.6338,-0.6338,-0.6264,-0.6281,-0.6352,-0.6428,-0.6369,-0.6384,-0.6367,-0.6351,0.0,-0.642,-0.621,-0.5975,-0.6071,-0.6172,-0.5832,-0.5261,-0.4565,-0.371,-0.1025,0.1169,0.1855,0.2097,0.2088,0.178,0.2003,0.1902,0.1351,0.1068,0.0688,0.0372,-0.0457,-0.0691,-0.0,0.0,-0.0235,-0.0784,-0.0314,-0.055,-0.1571,-0.1041,-0.2674,-0.6283,-0.6549,-0.661,-0.6705,-0.6583,-0.6529,-0.6536,-0.6651,-0.6722,-0.6766,-0.6881,-0.701,-0.7129,-0.7024,-0.6912,-0.6837,-0.7017,-0.7088,-0.7099,-0.4945,-0.4704,-0.4173,-0.3107,-0.4334,-0.5378,-0.4957,-0.6011,-0.7093,-0.7923,-0.732,-0.7118,-0.7622,-0.7248,-0.6997,-0.6932,-0.6851,-0.6846,-0.7005,-0.6869,-0.6677,-0.6342,-0.6296,-0.5755,-0.4544,-0.4362,-0.461,-0.5257,-0.4155,-0.3644,-0.3712,-0.3124,-0.2458,-0.1763,-0.184,-0.1314,-0.0157,0.0941,0.0868,-0.0159,-0.2276,-0.4379,0.0,-0.6335,-0.6205,-0.6083,-0.6247,-0.6268,-0.6338,-0.6338,-0.6338,-0.6338,-0.6338,-0.6338,-0.6338,-0.6338,-0.6338,-0.6338,-0.6338,-0.6338,-0.6281,-0.6359,-0.638,-0.65,-0.6813,-0.6763,-0.6576,-0.6491,-0.6593,-0.6532,-0.609,-0.6143,-0.5784,-0.4166,-0.1175,0.1085,0.1267,0.1487,0.1548,0.136,0.1464,0.1333,0.0876,0.097,0.0746,0.0072,-0.0593,-0.0975,-0.0953,-0.0383,0.0,0.0,0.0,0.0,0.0,-0.0881,-0.2576,-0.4877,-0.5997,-0.652,-0.6505,-0.642,-0.6413,-0.6478,-0.6563,-0.6675,-0.6807,-0.6895,-0.701,-0.7126,-0.6983,-0.6875,-0.6814,-0.6912,-0.6949,-0.6966,-0.5288,-0.5126,-0.4818,-0.3398,-0.476,-0.5917,-0.5617,-0.7246,-0.856,-0.8846,-0.8091,-0.7688,-0.7985,-0.7496,-0.7092,-0.6966,-0.6956,-0.7125,-0.7547,-0.6915,-0.6729,-0.7088,-0.6257,-0.5222,-0.3885,-0.4918,-0.55,-0.5649,-0.5002,-0.4713,-0.476,-0.4008,-0.3686,-0.3754,-0.3767,-0.3767,-0.3679,-0.1495,-0.0318,-0.0161,-0.2282,-0.4384,-0.6295,-0.6271,-0.6338,-0.6338,-0.6338,-0.6338,-0.6338,-0.6338,-0.6338,-0.6338,-0.6338,-0.6338,-0.6338,-0.6338,-0.6338,-0.6338,-0.6338,-0.6338,-0.6338,-0.6338,-0.6338,-0.645,-0.6976,-0.6766,-0.6607,-0.7005,-0.6877,-0.6566,-0.6308,-0.6599,-0.6314,-0.438,-0.172,0.0078,0.0152,0.0148,0.0365,0.1021,0.0438,0.0,0.1016,0.0668,0.0296,-0.0141,-0.0514,-0.1109,-0.2191,-0.098,-0.0155,-0.0,0.0,0.0,0.0,-0.2299,-0.341,-0.3517,-0.5378,-0.6244,-0.6338,-0.6338,-0.6329,-0.6444,-0.6464,-0.6634,-0.6902,-0.6919,-0.699,-0.7075,-0.699,-0.6932,-0.6888,-0.6793,-0.6746,-0.6766,-0.5704,-0.6028,-0.6025,-0.4801,-0.7048,-0.8718,-0.7866,-0.732,-0.7323,-0.8329,-0.7833,-0.7489,-0.7471,-0.7231,-0.7129,-0.7105,-0.7102,-0.7102,-0.719,-0.6824,-0.6634,-0.6464,-0.6138,-0.5688,-0.5065,-0.5208,-0.5475,-0.5867,-0.5143,-0.483,-0.4971,-0.4288,-0.388,-0.3654,-0.3732,-0.3803,-0.3825,-0.3588,-0.2142,-0.0153,-0.2252,-0.4384,-0.6295,-0.6271,-0.6338,-0.6338,-0.6338,-0.6338,-0.6338,-0.6338,-0.6338,-0.6338,-0.6338,-0.6338,-0.6338,-0.6338,-0.6338,-0.6338,-0.6338,-0.6338,-0.6338,-0.6338,-0.6338,-0.6345,-0.6447,-0.6376,-0.6376,-0.6454,-0.6397,-0.6322,-0.6349,-0.6928,-0.6698,-0.4513,-0.3195,-0.248,-0.2424,-0.2481,-0.1562,0.0802,-0.133,-0.1916,0.085,-0.0145,-0.095,-0.0942,-0.1095,-0.1536,-0.2394,-0.1797,-0.098,-0.0,0.0,0.0,0.0,-0.33,-0.524,-0.5733,-0.5917,-0.6146,-0.6338,-0.6338,-0.6274,-0.6305,-0.642,-0.6573,-0.6749,-0.6875,-0.6868,-0.68,-0.7017,-0.6953,-0.6766,-0.6983,-0.699,-0.6895,-0.6294,-0.6291,-0.6425,-0.636,-0.7311,-0.8046,-0.8026,-0.7527,-0.7397,-0.7889,-0.7397,-0.7161,-0.7524,-0.7276,-0.7139,-0.7139,-0.7071,-0.7031,-0.7031,-0.6749,-0.6485,-0.6349,-0.6046,-0.5779,-0.5484,-0.5338,-0.5657,-0.6402,-0.5645,-0.5446,-0.5755,-0.5076,-0.4489,-0.4002,-0.4002,-0.4217,-0.448,-0.4193,-0.3306,-0.2201,-0.1722,-0.3443,-0.6295,-0.6278,-0.6268,-0.6338,-0.6338,-0.6338,-0.6338,-0.6338,-0.6338,-0.6338,-0.6338,-0.6338,-0.6338,-0.6338,-0.6338,-0.6338,-0.6338,-0.6338,-0.6338,-0.6338,-0.6338,-0.6338,-0.6338,-0.6338,-0.6338,-0.6338,-0.6338,-0.6416,-0.6721,-0.7688,-0.7807,-0.6177,-0.5283,-0.4739,-0.4794,-0.473,-0.4218,-0.2674,-0.3187,-0.3618,-0.3366,-0.1677,-0.0937,-0.1541,-0.1017,-0.1388,-0.3089,-0.2505,-0.1787,-0.1144,-0.0366,0.0,0.0,-0.2673,-0.4638,-0.5832,-0.5969,-0.6074,-0.6142,-0.6224,-0.6302,-0.6373,-0.6441,-0.6603,-0.6831,-0.6976,-0.7204,-0.7575,-0.7055,-0.7108,-0.7311,-0.6819,-0.6736,-0.6831,-0.7341,-0.7097,-0.7215,-0.7609,-0.7285,-0.7134,-0.7692,-0.7719,-0.7716,-0.7667,-0.7151,-0.696,-0.7577,-0.7319,-0.7139,-0.7139,-0.7037,-0.6959,-0.6929,-0.6671,-0.6441,-0.6345,-0.5966,-0.5735,-0.5593,-0.544,-0.5828,-0.6684,-0.6214,-0.6153,-0.6388,-0.5822,-0.5146,-0.4384,-0.425,-0.4403,-0.4728,-0.3744,-0.3352,-0.3204,-0.0945,-0.227,-0.5652,-0.6122,-0.6271,-0.6338,-0.6338,-0.6338,-0.6338,-0.6338,-0.6338,-0.6338,-0.6338,-0.6338,-0.6338,-0.6338,-0.6338,-0.6338,-0.6338,-0.6338,-0.6338,-0.6338,-0.6338,-0.6338,-0.6338,-0.6338,-0.6338,-0.6338,-0.6338,-0.6493,-0.7103,-0.7956,-0.8343,-0.7545,-0.6759,-0.6321,-0.6302,-0.6242,-0.6149,-0.5845,-0.4888,-0.4773,-0.6296,-0.3176,-0.1506,-0.272,-0.1725,-0.1963,-0.4059,-0.3024,-0.2401,-0.2385,-0.087,0.0,0.0,-0.1759,-0.3597,-0.5406,-0.5759,-0.5969,-0.6034,-0.6156,-0.6291,-0.643,-0.6491,-0.6857,-0.7325,-0.7701,-0.8257,-0.8763,-0.7907,-0.7737,-0.8011,-0.7138,-0.6767,-0.6732,-0.8931,-0.9463,-0.9504,-0.7757,-0.8113,-0.8478,-0.7994,-0.7705,-0.7563,-0.7414,-0.7356,-0.7282,-0.7153,-0.7139,-0.7139,-0.7139,-0.7129,-0.7065,-0.6939,-0.6773,-0.6556,-0.6274,-0.5966,-0.5735,-0.5593,-0.544,-0.5586,-0.5913,-0.6478,-0.6412,-0.5932,-0.628,-0.5708,-0.4399,-0.4163,-0.4073,0.0,-0.2313,-0.1162,-0.0382,-0.0078,-0.1329,-0.3595,-0.5562,-0.6271,-0.6338,-0.6338,-0.6338,-0.6338,-0.6338,-0.6338,-0.6338,-0.6338,-0.6338,-0.6338,-0.6338,-0.6338,-0.6338,-0.6338,-0.6338,-0.6338,-0.6338,-0.6338,-0.6338,-0.6338,-0.6338,-0.6338,-0.6338,-0.6338,-0.6493,-0.7103,-0.6894,-0.6747,-0.7188,-0.6736,-0.6278,-0.6268,-0.6132,-0.6037,-0.5972,-0.5908,-0.5182,-0.3313,-0.3732,-0.4415,-0.5054,-0.4652,-0.4711,-0.5231,-0.3132,-0.2259,-0.3,-0.1029,0.0,0.0,-0.1803,-0.3615,-0.5406,-0.5557,-0.5772,-0.603,-0.6044,-0.6135,-0.6295,-0.6563,-0.7432,-0.8777,-0.9826,-1.0223,-1.0208,-1.0218,-0.9447,-0.8393,-0.8472,-0.77,-0.6705,-0.8893,-0.8767,-0.8543,-0.7564,-0.7695,-0.7886,-0.7842,-0.774,-0.7645,-0.7234,-0.7205,-0.721,-0.7146,-0.7139,-0.7139,-0.7139,-0.698,-0.6851,-0.6797,-0.6569,-0.6342,-0.6132,-0.5915,-0.5735,-0.5593,-0.544,-0.5777,-0.6448,-0.715,-0.7488,-0.7501,-0.7408,-0.6551,-0.5126,0.0,-0.3721,-0.3507,-0.1422,-0.0373,0.0,0.0,-0.1139,-0.3147,-0.5427,-0.6225,-0.6122,-0.6122,-0.6183,-0.6234,-0.6047,-0.6108,-0.6338,-0.6338,-0.6338,-0.6338,-0.6338,-0.6338,-0.6338,-0.6338,-0.6338,-0.6338,-0.6338,-0.6338,-0.6338,-0.6338,-0.6338,-0.6338,-0.6338,-0.6338,-0.6338,-0.6644,-0.6876,-0.6909,-0.6736,-0.6876,-0.6794,-0.6222,-0.6067,-0.5966,-0.5793,-0.5792,-0.545,-0.4407,-0.4922,-0.5472,-0.5901,-0.4617,-0.4168,-0.4907,-0.4369,-0.3723,-0.3156,-0.3554,-0.3606,-0.3277,-0.2895,-0.3691,-0.556,-0.5641,-0.5827,-0.6034,-0.6125,-0.6633,-0.7497,-0.8295,-0.905,-0.9828,-1.0383,-1.0905,-1.1272,-1.0476,-1.0101,-0.9905,-0.8599,-0.7893,-0.7362,-0.8782,-0.8425,-0.8169,-0.7594,-0.7541,-0.7564,-0.7738,-0.7828,-0.7614,-0.7244,-0.7192,-0.719,-0.7146,-0.7139,-0.7139,-0.7139,-0.6912,-0.6749,-0.6705,-0.6464,-0.6237,-0.6037,-0.5884,-0.5735,-0.5593,-0.544,-0.5734,-0.6441,-0.7505,-0.8129,-0.8115,-0.7922,0.0,0.0,-0.466,-0.4166,-0.3988,-0.1737,-0.0505,0.0,0.0,-0.0739,-0.2182,-0.499,-0.5996,-0.5969,-0.5962,-0.6034,-0.6091,-0.5874,-0.5945,-0.6125,-0.6125,-0.6156,-0.6193,-0.6193,-0.6193,-0.6203,-0.6247,-0.6338,-0.6338,-0.6338,-0.6338,-0.6338,-0.6338,-0.6338,-0.6338,-0.6338,-0.6338,-0.6321,-0.6576,-0.7042,-0.7219,-0.6601,-0.7198,-0.7339,-0.6138,-0.6141,-0.6104,-0.5689,-0.5765,-0.5809,-0.5877,-0.6165,-0.6316,-0.6145,-0.5011,-0.4478,-0.4904,-0.5117,-0.4859,-0.3964,-0.4889,-0.5256,-0.4963,-0.4134,-0.4354,-0.5682,-0.5742,-0.5881,-0.6034,-0.6615,-0.7367,-0.8465,-0.9892,-1.0661,-1.0974,-1.1401,-1.1928,-1.2346,-1.1339,-1.1073,-1.1016,-0.9376,-0.8449,-0.789,-0.9152,-0.9276,-0.9255,-0.8141,-0.7969,-0.8018,-0.7969,-0.7925,-0.7706,-0.7411,-0.737,-0.7312,-0.7156,-0.7139,-0.7139,-0.7139,-0.7007,-0.6861,-0.6712,-0.6556,-0.6339,-0.604,-0.5884,-0.5735,-0.5593,-0.544,-0.5428,-0.5435,-0.732,-0.7863,-0.7099,0.0,-0.6821,-0.5493,-0.581,-0.5745,-0.5272,-0.3426,-0.163,0.0,0.0,-0.0,-0.0436,-0.4007,-0.5692,-0.5971,-0.5882,-0.5803,-0.5806,-0.5803,-0.5803,-0.5806,-0.5806,-0.5911,-0.6034,-0.6034,-0.6034,-0.6064,-0.622,-0.6338,-0.6338,-0.6338,-0.6338,-0.6338,-0.6338,-0.6338,-0.6338,-0.6338,-0.6338,-0.6517,-0.7158,-0.727,-0.7285,-0.7115,-0.7858,-0.7783,-0.6015,-0.6437,-0.6611,-0.5814,-0.5929,-0.6354,-0.7043,-0.7458,-0.7142,-0.5841,-0.6633,-0.6764,-0.5768,-0.5127,-0.5092,-0.5721,-0.4104,-0.3461,-0.3905,-0.5297,-0.5891,-0.5682,-0.5742,-0.5881,-0.604,-0.7496,-0.8333,-0.8852,-1.1117,-1.2182,-1.2407,-1.3561,-1.3908,-1.3559,-1.3559,-1.2628,-1.1194,-1.1188,-0.9715,-0.794,-0.8361,-0.8368,-0.8389,-0.8041,-0.8048,-0.8038,-0.8007,-0.7892,-0.7647,-0.7563,-0.7441,-0.7312,-0.7156,-0.7139,-0.7139,-0.7139,-0.6915,-0.6753,-0.6705,-0.6468,-0.624,-0.6037,-0.5884,-0.5735,-0.5593,-0.544,-0.5428,-0.5428,-0.7445,0.0,0.0,-0.8413,-0.7535,-0.6289,-0.5837,-0.5488,-0.5393,-0.4789,-0.4242,-0.3591,-0.2315,-0.2588,-0.3802,-0.5157,-0.5617,-0.5601,-0.5671,-0.5725,-0.5772,-0.5569,-0.5633,-0.5766,-0.5566,-0.5674,-0.5874,-0.5874,-0.5945,-0.604,-0.6091,-0.6179,-0.6338,-0.6338,-0.6338,-0.6338,-0.6338,-0.6338,-0.6338,-0.6338,-0.6872,-0.7343,-0.7302,-0.7846,-0.822,-0.8018,-0.7708,-0.7311,-0.663,-0.6229,-0.5848,-0.5373,-0.546,-0.5909,-0.6566,-0.6959,-0.7263,-0.746,-0.7992,-0.7406,-0.5183,-0.5394,-0.5549,-0.5351,-0.5304,0.0,-0.5149,-0.5725,-0.594,-0.5742,-0.5888,-0.646,-0.7573,-0.8705,-0.9867,-1.1122,-1.2548,-1.3297,-1.3542,-1.3695,-1.3728,-1.3519,-1.3193,-1.2758,-1.2177,-1.1286,-1.0483,-0.9788,-0.8038,-0.8045,-0.7952,-0.7952,-0.7952,-0.7939,-0.7895,-0.7788,-0.7644,-0.755,-0.7434,-0.7292,-0.7085,-0.7061,-0.7061,-0.7061,-0.6841,-0.6675,-0.6617,-0.6339,-0.6105,-0.5949,-0.58,-0.5654,-0.5508,-0.541,0.0,-0.5428,-0.7364,-0.8921,-1.0086,-0.9197,-0.8225,-0.7177,-0.6268,-0.569,-0.5379,-0.5403,-0.5396,-0.5329,-0.4172,-0.4365,-0.5406,-0.5569,-0.5528,-0.545,-0.5515,-0.5638,-0.5606,-0.5423,-0.5484,-0.5603,-0.542,-0.5488,-0.5647,-0.5705,-0.5789,-0.5888,-0.6,-0.6101,-0.6186,-0.6247,-0.6338,-0.6338,-0.6338,-0.6338,-0.6338,-0.6338,-0.7099,-0.7795,-0.7886,-0.8582,-0.9177,-0.8949,-0.8363,-0.765,-0.6916,-0.6368,-0.5829,-0.5243,-0.5498,-0.6106,-0.7222,-0.7489,-0.7889,-0.8643,-0.8654,-0.7941,-0.6216,-0.643,-0.6371,-0.601,-0.6084,-0.604,-0.5819,-0.6006,-0.6026,-0.5888,-0.6547,-0.7328,-0.8315,-0.9912,-1.1213,-1.226,-1.3181,-1.3748,-1.3901,-1.3601,-1.3414,-1.3273,-1.2893,-1.2755,-1.2477,-1.1683,-1.1027,-1.0545,-0.8038,-0.7955,-0.7972,-0.7972,-0.7972,-0.7918,-0.7768,-0.7717,-0.7695,-0.7407,-0.7363,-0.7244,-0.6959,-0.6929,-0.6919,-0.6898,-0.6766,-0.6624,-0.6481,-0.6203,-0.5973,-0.581,-0.5674,-0.5528,-0.5432,-0.5428,-0.5428,-0.5491,-0.7181,-0.8871,-1.0491,-0.9658,-0.8877,-0.8027,-0.7111,-0.6268,-0.5557,-0.5428,-0.5435,-0.5509,-0.5446,-0.5382,-0.5393,-0.5382,-0.5379,-0.5376,-0.5432,-0.5428,-0.5428,-0.5428,-0.5428,-0.5428,-0.5428,-0.5428,-0.5456,-0.5532,-0.5583,-0.565,-0.5935,-0.602,-0.6067,-0.622,-0.6338,-0.6338,-0.6338,-0.6338,-0.6338,-0.6338,-0.7165,-0.8081,-0.869,-0.9477,-0.9937,-0.9825,-0.945,-0.8635,-0.7046,-0.6654,-0.6334,-0.5491,-0.5752,-0.6741,-0.8463,-0.863,-0.8818,-0.9321,-0.8863,-0.8607,-0.8638,-0.7969,-0.7582,-0.7495,-0.6555,-0.604,-0.603,-0.6183,-0.6263,-0.6122,-0.7484,-0.8293,-0.8733,-1.0975,-1.2147,-1.2486,-1.3233,-1.3546,-1.3621,-1.3307,-1.3006,-1.2822,-1.2802,-1.2545,-1.2298,-1.2278,-1.1503,-1.0617,-0.8038,-0.8045,-0.8048,-0.8048,-0.8048,-0.7895,-0.7744,-0.7624,-0.7389,-0.7207,-0.7175,-0.7126,-0.6949,-0.6929,-0.6834,-0.66,-0.6549,-0.6512,-0.6474,-0.6305,-0.6084,-0.5813,-0.5769,-0.563,-0.5432,-0.5428,-0.5752,-0.6396,-0.7437,-0.8549,-0.9594,-0.9402,-0.921,-0.8947,-0.7372,-0.6981,-0.7312,-0.5951,-0.5752,-0.6338,-0.569,-0.5372,-0.5382,-0.5379,-0.5379,-0.5379,-0.5376,-0.5369,-0.5428,-0.5428,-0.5428,-0.5428,-0.5428,-0.5428,-0.5435,-0.5406,-0.5498,-0.563,-0.5806,-0.5939,-0.6067,-0.622,-0.6338,-0.6338,-0.6338,-0.6338,-0.6338,-0.6338,-0.7509,-0.8641,-0.8807,-1.0049,-1.0983,-1.0704,-0.9524,-0.8419,-0.7787,-0.6531,-0.5577,-0.5203,-0.5422,-0.5902,-0.6858,-0.7673,-0.8564,-0.9616,-1.0305,-1.0804,-1.1159,-0.9675,-0.8468,-0.7495,-0.667,-0.6149,-0.603,-0.6183,-0.67,-0.7415,-0.7727,-0.8954,-1.0922,-1.1277,-1.2227,-1.362,-1.3371,-1.344,-1.3519,-1.3073,-1.2889,-1.2802,-1.2492,-1.2365,-1.2278,-1.2051,-1.1781,-1.1514,-0.8038,-0.8038,-0.8038,-0.8038,-0.7984,-0.7885,-0.7736,-0.7493,-0.7342,-0.7101,-0.7101,-0.7085,-0.7032,-0.6868,-0.6729,-0.6491,-0.6471,-0.6444,-0.638,-0.6237,-0.6051,-0.5813,-0.5739,-0.5596,-0.5432,-0.5428,-0.5815,-0.6719,-0.7567,-0.842,-0.9338,-0.9722,-0.9658,-0.9274,-0.8291,-0.7962,-0.7962,-0.699,-0.6859,-0.7242,-0.6334,-0.6013,-0.5954,-0.5568,-0.5369,-0.5369,-0.5369,-0.5432,-0.5428,-0.5428,-0.5428,-0.5428,-0.5428,-0.5428,-0.5428,-0.5428,-0.542,-0.5532,-0.5742,-0.5864,-0.5979,-0.6203,-0.6338,-0.6338,-0.6338,-0.6338,-0.6338,-0.6338,-0.7395,-0.851,-0.8956,-1.0079,-1.1032,-1.1168,-0.972,-0.842,-0.8057,-0.6531,-0.546,-0.5247,-0.5311,-0.572,-0.6454,-0.7521,-0.8615,-0.9701,-1.049,-1.1313,-1.205,-1.0346,-0.9015,-0.837,-0.7427,-0.69,-0.681,-0.7351,-0.7936,-0.8466,-0.9096,-1.0178,-1.1742,-1.2123,-1.2849,-1.3861,-1.3407,-1.322,-1.32,-1.2732,-1.2545,-1.2512,-1.2218,-1.2104,-1.2064,-1.1777,-1.1583,-1.1423,-0.8038,-0.8038,-0.8038,-0.8038,-0.8014,-0.7863,-0.7719,-0.7564,-0.7316,-0.716,-0.7139,-0.7088,-0.7035,-0.6877,-0.6637,-0.6485,-0.6454,-0.639,-0.6345,-0.6115,-0.5962,-0.581,-0.5664,-0.5518,-0.5432,-0.5428,-0.5752,-0.6527,-0.7372,-0.8156,-0.8941,-0.9779,-0.9913,-0.9274,-0.9139,-0.8812,-0.835,-0.8091,-0.8091,-0.8091,-0.7242,-0.685,-0.6588,-0.5881,-0.5491,-0.5428,-0.5428,-0.5428,-0.5428,-0.5428,-0.5428,-0.5428,-0.5428,-0.5428,-0.5428,-0.5428,-0.5428,-0.5426,-0.5722,-0.5833,-0.5935,-0.6196,-0.6338,-0.6338,-0.6338,-0.6338,-0.6338,-0.6338,-0.7153,-0.8197,-0.914,-0.9996,-1.0855,-1.1451,-1.0,-0.8596,-0.8159,-0.6676,-0.5547,-0.5463,-0.548,-0.5758,-0.6477,-0.7553,-0.8628,-0.9558,-1.009,-1.0979,-1.2277,-1.0594,-0.9539,-0.9575,-0.8403,-0.7795,-0.7825,-0.8889,-0.9438,-0.9708,-1.0755,-1.1546,-1.2055,-1.3024,-1.3554,-1.3539,-1.324,-1.2946,-1.2802,-1.2425,-1.2278,-1.2211,-1.1964,-1.1844,-1.1764,-1.147,-1.1209,-1.0982,-0.8038,-0.8038,-0.8038,-0.8038,-0.7913,-0.7763,-0.7621,-0.7472,-0.7316,-0.716,-0.7139,-0.7085,-0.6946,-0.6793,-0.6637,-0.6485,-0.6363,-0.6285,-0.6264,-0.6115,-0.5962,-0.581,-0.5664,-0.5518,-0.5432,-0.5428,-0.5491,-0.5624,-0.6461,-0.6981,-0.7111,-0.8021,-0.8742,-0.9274,-0.8549,-0.8935,-1.0104,-0.8608,-0.842,-0.9005,-0.8156,-0.7372,-0.6654,-0.6527,-0.6009,-0.5428,-0.5428,-0.5428,-0.5428,-0.5428,-0.5428,-0.5428,-0.5428,-0.5428,-0.5428,-0.5428,-0.5428,-0.5426,-0.5722,-0.5993,-0.62,-0.6247,-0.6338,-0.6338,-0.6338,-0.6338,-0.6338,-0.6338,-0.7572,-0.8763,-0.9185,-1.0589,-1.1787,-1.2131,-1.0388,-0.8918,-0.8687,-0.6987,-0.5688,-0.5569,-0.5661,-0.5803,-0.5941,-0.6738,-0.7806,-0.9129,-0.9929,-1.1059,-1.2645,-1.1364,-1.0668,-1.0893,-0.8861,-0.7936,-0.8168,-0.9106,-1.022,-1.13,-1.15,-1.2228,-1.331,-1.3014,-1.316,-1.3601,-1.2792,-1.2559,-1.2802,-1.2425,-1.2158,-1.1931,-1.1891,-1.1717,-1.1456,-1.1169,-1.1035,-1.0955,-0.8038,-0.7974,-0.7916,-0.7916,-0.7825,-0.765,-0.7489,-0.7346,-0.7221,-0.7149,-0.7139,-0.6997,-0.6857,-0.679,-0.6637,-0.6485,-0.6342,-0.6338,-0.6338,-0.6115,-0.5962,-0.581,-0.5664,-0.5518,-0.5432,-0.5428,-0.5428,-0.5428,-0.6268,-0.6719,-0.6719,-0.7567,-0.8484,-0.9274,-0.8877,-0.9396,-1.0555,-0.9716,-0.9652,-0.9919,-0.9069,-0.8484,-0.8027,-0.7567,-0.7181,-0.6728,-0.6272,-0.6071,-0.6009,-0.5557,-0.5428,-0.5428,-0.5428,-0.5428,-0.5428,-0.5428,-0.542,-0.5515,-0.565,-0.5908,-0.6135,-0.6135,-0.6257,-0.6356,-0.6278,-0.6322,-0.6352,-0.6278,-0.7335,-0.8491,-0.92,-1.029,-1.1325,-1.1972,-1.0808,-0.9738,-0.955,-0.792,-0.6698,-0.6546,-0.6115,-0.58,-0.58,-0.6736,-0.7838,-0.9025,-1.0019,-1.123,-1.2719,-1.2078,-1.1752,-1.2037,-1.0456,-0.9983,-1.0634,-1.1251,-1.1866,-1.2479,-1.2479,-1.2788,-1.34,-1.312,-1.306,-1.314,-1.2719,-1.2525,-1.2485,-1.2191,-1.1991,-1.1837,-1.1523,-1.1316,-1.1156,-1.0868,-1.0755,-1.0742,-0.7943,-0.7841,-0.776,-0.7664,-0.7643,-0.7559,-0.737,-0.7238,-0.7139,-0.7139,-0.7139,-0.6997,-0.6857,-0.679,-0.6637,-0.6485,-0.6342,-0.6338,-0.6338,-0.6081,-0.5925,-0.5806,-0.5633,-0.5481,-0.5428,-0.5428,-0.5428,-0.5428,-0.6075,-0.6527,-0.6719,-0.7181,-0.7962,-0.9011,-0.9011,-0.946,-1.0301,-1.0498,-1.0624,-1.0561,-0.9849,-0.9466,-0.921,-0.8549,-0.8156,-0.7897,-0.7242,-0.685,-0.6588,-0.5947,-0.5557,-0.5428,-0.5428,-0.5428,-0.5428,-0.5428,-0.5443,-0.5552,-0.562,-0.583,-0.6037,-0.6074,-0.6254,-0.6393,-0.6285,-0.6346,-0.6472,-0.6588,-0.748,-0.8466,-0.9448,-1.0336,-1.1106,-1.1985,0.0,-1.0419,-1.0355,-0.9,-0.7839,-0.7427,-0.6672,-0.6197,-0.5908,-0.667,-0.7786,-0.9038,-0.9985,-1.1193,-1.2732,-1.2525,-1.2512,-1.2815,-1.1972,-1.1874,-1.2629,-1.3028,-1.3347,-1.3414,-1.3347,-1.3313,-1.3307,-1.3166,-1.2973,-1.2822,-1.2748,-1.2472,-1.2184,-1.1957,-1.179,-1.1623,-1.1169,-1.0955,-1.0868,-1.0705,-1.0624,-1.0624,-0.7658,-0.7624,-0.7614,-0.7422,-0.7386,-0.737,-0.7181,-0.7148,-0.7139,-0.7139,-0.7139,-0.7085,-0.6946,-0.6793,-0.6637,-0.6485,-0.6342,-0.6338,-0.6338,-0.5983,-0.5813,-0.58,-0.5532,-0.5439,-0.5428,-0.5428,-0.5428,-0.5428,-0.5491,-0.5881,-0.6654,-0.5947,-0.647,-0.8091,-0.8091,-0.8549,-0.9466,-1.0238,-1.0624,-1.0561,-1.0561,-1.0047,-0.9274,-0.921,-0.8683,-0.7962,-0.7897,-0.7372,-0.6719,-0.6654,-0.6075,-0.5428,-0.5428,-0.5428,-0.5428,-0.5428,-0.5435,-0.5437,-0.5711,-0.5905,-0.6064,-0.6207,-0.6261,-0.6352,-0.6342,-0.6271,-0.6581,-0.748,-0.8466,-0.9523,-1.049,-1.1527,-1.2284,-1.2639,0.0,0.0,-1.0891,-0.9921,-0.8721,-0.7638,-0.7555,-0.7287,-0.6377,-0.6314,-0.723,-0.912,-0.9627,-1.0695,-1.2669,-1.2802,-1.2802,-1.2822,-1.2746,-1.2531,-1.2152,-1.3097,-1.3754,-1.4015,-1.3741,-1.3614,-1.3512,-1.3033,-1.2842,-1.2808,-1.2452,-1.2171,-1.1897,-1.1877,-1.155,-1.1056,-1.1009,-1.0828,-1.0651,-1.0631,-1.0624,-1.0624,-0.7886,-0.8069,-0.8268,-0.7547,-0.7959,-0.8023,-0.7224,-0.7705,-0.7929,-0.7228,-0.7578,-0.7881,-0.7712,-0.762,-0.7449,-0.7282,-0.6677,-0.6338,-0.6338,-0.6152,-0.5922,-0.5545,-0.542,-0.5428,-0.5428,-0.5428,-0.5428,-0.5428,-0.5428,-0.5557,-0.5881,-0.5557,-0.6013,-0.7177,-0.7177,-0.7962,-0.9338,-0.9658,-1.011,-1.0624,-1.0624,-1.0428,-1.011,-1.011,-0.9913,-0.9518,-0.9005,-0.8613,-0.8156,-0.7046,-0.6461,-0.6141,-0.5557,-0.5428,-0.5428,-0.5428,-0.543,-0.5545,-0.5745,-0.5844,-0.5925,-0.6081,-0.6257,-0.6369,-0.6281,-0.6329,-0.6677,-0.7577,-0.8618,-0.9599,-1.0634,-1.1481,-1.2131,-1.2425,0.0,-1.1576,-1.1755,-1.087,-1.0077,-0.9612,-0.9085,-0.8618,-0.8161,-0.8161,-0.8765,-1.0115,-1.05,-1.1266,-1.2746,-1.2926,-1.3113,-1.3293,-1.33,-1.3246,-1.3048,-1.3655,-1.3975,-1.4082,-1.3781,-1.3547,-1.336,-1.2939,-1.2721,-1.2465,-1.2351,-1.2428,-1.2621,-1.2429,-1.2423,-1.2436,-1.2302,-1.2204,-1.2027,-1.1531,-1.1351,-1.1351,-0.8826,-0.907,-0.9335,-0.8543,-0.897,-0.9144,-0.8356,-0.8882,-0.9122,-0.8198,-0.8602,-0.8844,-0.8671,-0.852,-0.8438,-0.825,-0.7629,-0.7249,-0.7249,-0.7071,-0.673,-0.5992,-0.6136,-0.621,-0.621,-0.621,-0.621,-0.621,-0.621,-0.621,-0.621,-0.5947,-0.6268,-0.7111,-0.7111,-0.7897,-0.9338,-0.9594,-1.0047,-1.0624,-1.0624,-1.0624,-1.0624,-1.0624,-1.0624,-1.0491,-0.9913,-0.953,-0.9139,-0.7897,-0.7177,-0.6588,-0.6009,-0.562,-0.5428,-0.5428,-0.5471,-0.5623,-0.5762,-0.5837,-0.5911,-0.6064,-0.6254,-0.6458,-0.6743,-0.6876,-0.723,-0.8484,-0.9291,-1.0045,-1.1087,-1.1687,-1.2071,-1.2271,-1.2211,-1.2218,-1.2412,-1.191,-1.1423,-1.1112,-1.0505,-0.989,-0.9586,-0.9581,-0.9935,-1.0843,-1.1235,-1.1915,-1.3026,-1.3233,-1.344,-1.3552,-1.3734,-1.3781,-1.3781,-1.3981,-1.4088,-1.4082,-1.3694,-1.34,-1.32,-1.2792,-1.2716,-1.2732,-1.2732,-1.3006,-1.3431,-1.3201,-1.3168,-1.3285,-1.3046,-1.3009,-1.2948,-1.2389,-1.2205,-1.2205,-1.0656,-1.0611,-1.0611,-1.0611,-1.0611,-1.0611,-1.0611,-1.0611,-1.053,-1.0228,-1.0198,-1.0023,-0.9582,-0.9531,-0.9446,-0.9316,-0.9296,-0.9296,-0.9296,-0.8877,-0.8136,-0.7149,-0.7664,-0.8027,-0.8027,-0.8027,-0.8027,-0.8027,-0.8027,-0.8027,-0.7962,-0.7111,-0.7177,-0.8027,-0.8027,-0.8484,-0.9338,-1.0238,-1.0561,-1.0624,-1.0624,-1.0624,-1.0624,-1.0624,-1.0624,-1.0624,-1.0624,-1.004,-0.9338,-0.9274,-0.8156,-0.6719,-0.6719,-0.6141,-0.5428,-0.5428,-0.5471,-0.5623,-0.5762,-0.5911,-0.6067,-0.622,-0.6338,-0.6567,-0.7553,-0.7783,-0.8385,-1.0409,-1.0783,-1.1087,-1.2077,-1.2305,-1.2305,-1.2305,-1.2552,-1.2822,-1.2822,-1.3013,-1.2803,-1.1828,-1.1742,-1.1335,-1.0282,-1.0201,-1.0509,-1.1134,-1.1751,-1.2548,-1.3559,-1.3559,-1.3559,-1.3566,-1.3935,-1.4088,-1.4088,-1.4082,-1.4082,-1.4075,-1.3487,-1.3206,-1.3186,-1.2579,-1.2806,-1.3665,-1.3665,-1.3847,-1.4082,-1.4082,-1.3661,-1.3009,-1.3009,-1.3009,-1.3009,-1.3009,-1.3009,-1.3009,-1.0971,-1.1209,-1.1552,-1.0783,-1.13,-1.1552,-1.0697,-1.1155,-1.1193,-1.0292,-1.0497,-1.0712,-1.0567,-1.0472,-1.0413,-1.0346,-0.9744,-0.9296,-0.9296,-0.9448,-0.9388,-0.9109,-0.8394,-0.8027,-0.8027,-0.8027,-0.8027,-0.8027,-0.8027,-0.8027,-0.8027,-0.7762,-0.7767,-0.8027,-0.8027,-0.8484,-0.9338,-0.9594,-1.004,-1.0624,-1.0624,-1.0624,-1.0624,-1.0624,-1.0624,-1.0624,-1.0624,-1.0428,-1.011,-0.953,-0.8941,-0.8291,-0.7111,-0.6523,-0.6203,-0.5554,-0.5471,-0.5623,-0.5762,-0.6415,-0.6951,-0.6451,-0.6338,-0.6567,-0.7553,-0.7783,-0.8385,-1.0409,-1.0783,-1.1087,-1.2077,-1.2305,-1.2305,-1.2305,-1.2552,-1.2822,-1.2822,-1.3013,-1.3127,-1.2803,-1.2724,-1.2638,-1.2313,-1.2313,-1.2274,-1.2299,-1.2512,-1.287,-1.3539,-1.3559,-1.3741,-1.3948,-1.4041,-1.4088,-1.4088,-1.3881,-1.3774,-1.3768,-1.3173,-1.2886,-1.295,-1.3135,-1.3266,-1.3338,-1.3956,-1.4371,-1.4539,-1.4539,-1.4612,-1.4688,-1.4688,-1.4688,-1.4628,-1.4025,-1.3846,-1.3846,-1.2388,-1.2582,-1.2772,-1.2083,-1.2516,-1.2772,-1.2083,-1.229,-1.2252,-1.1489,-1.1599,-1.1686,-1.1499,-1.1415,-1.1391,-1.1391,-1.087,-1.0496,-1.0496,-1.0456,-1.051,-1.051,-0.9532,-0.9,-0.9,-0.9,-0.9,-0.9,-0.9,-0.8871,-0.8484,-0.8484,-0.8484,-0.8484,-0.8484,-0.9005,-0.9786,-0.9786,-1.011,-1.0624,-1.0624,-1.0624,-1.0624,-1.0624,-1.0624,-1.0624,-1.0624,-1.0624,-1.0491,-0.9983,-0.9594,-0.9075,-0.7632,-0.6981,-0.6588,-0.6075,-0.5777,-0.5761,-0.6272,-0.6972,-0.7559,-0.7528,-0.748,-0.7783,-0.8761,-0.8983,-0.9437,-1.1087,-1.1391,-1.162,-1.2224,-1.2305,-1.2305,-1.2305,-1.2652,-1.2886,-1.2842,-1.3113,-1.334,-1.3227,-1.3213,-1.3213,-1.3213,-1.3213,-1.3133,-1.2946,-1.2926,-1.314,-1.3621,-1.3559,-1.3728,-1.3908,-1.3915,-1.4151,-1.4552,-1.3858,-1.3534,-1.3634,-1.3416,-1.3341,-1.341,-1.4041,-1.4261,-1.4207,-1.4823,-1.5129,-1.5241,-1.5241,-1.5311,-1.541,-1.541,-1.541,-1.5352,-1.4864,-1.4688,-1.4688,-1.4436,-1.4289,-1.4115,-1.4088,-1.4088,-1.4088,-1.4088,-1.3834,-1.354,-1.3253,-1.2966,-1.2665,-1.2338,-1.2325,-1.2331,-1.2305,-1.2305,-1.2305,-1.2305,-1.175,-1.1423,-1.1423,-1.0868,-1.0624,-1.0624,-1.0624,-1.0624,-1.0624,-1.0624,-1.0174,-0.9402,-0.9402,-0.9402,-0.9402,-0.9402,-0.9849,-1.0624,-1.0624,-1.0624,-1.0624,-1.0624,-1.0624,-1.0624,-1.0624,-1.0624,-1.0624,-1.0624,-1.0624,-1.0624,-1.0624,-1.0047,-0.9268,-0.842,-0.7567,-0.6915,-0.685,-0.6435,-0.6204,-0.7137,-0.7699,-0.8291,-0.9216,-0.9523,-0.975,-1.0634,-1.0783,-1.1087,-1.2077,-1.2305,-1.2305,-1.2305,-1.2305,-1.2305,-1.2305,-1.2792,-1.308,-1.2903,-1.326,-1.3514,-1.328,-1.3227,-1.3213,-1.3213,-1.3213,-1.3213,-1.3213,-1.3213,-1.334,-1.3627,-1.3559,-1.3641,-1.3722,-1.3743,-1.4286,-1.5332,-1.4108,-1.3573,-1.3824,-1.4055,-1.4194,-1.4335,-1.5033,-1.5497,-1.5842,-1.5918,-1.6002,-1.6066,-1.6066,-1.5771,-1.541,-1.541,-1.541,-1.541,-1.541,-1.541,-1.541,-1.4215,-1.4315,-1.4355,-1.4128,-1.4088,-1.4088,-1.4088,-1.3834,-1.354,-1.3253,-1.3153,-1.2906,-1.2358,-1.2512,-1.2559,-1.2318,-1.2305,-1.2305,-1.2305,-1.175,-1.1423,-1.1423,-1.0868,-1.0624,-1.0624,-1.0624,-1.0624,-1.0624,-1.0624,-1.0498,-1.0301,-1.0301,-1.0301,-1.0301,-1.0301,-1.0428,-1.0624,-1.0624,-1.0624,-1.0624,-1.0624,-1.0624,-1.0624,-1.0624,-1.0624,-1.0624,-1.0624,-1.0624,-1.0624,-1.0624,-1.0498,-1.0174,-0.9268,-0.8877,-0.8613,-0.7897,-0.775,-0.7917,-0.8229,-0.9113,-1.0104,-1.037,-1.1093,-1.1471,-1.0938,-1.0783,-1.1087,-1.2077,-1.2305,-1.2305,-1.2305,-1.2305,-1.2305,-1.2305,-1.2605,-1.2906,-1.3086,-1.322,-1.3367,-1.3534,-1.3347,-1.3213,-1.3213,-1.3213,-1.3213,-1.3213,-1.3213,-1.334,-1.3627,-1.3559,-1.396,-1.4743,-1.5063,-1.5425,-1.5814,-1.5658,-1.5581,-1.5652,-1.438,-1.4206,-1.4992,-1.5903,-1.5975,-1.5447,-1.6196,-1.6172,-1.5557,-1.5557,-1.5498,-1.541,-1.541,-1.541,-1.541,-1.541,-1.541,-1.541,-1.4295,-1.4302,-1.4262,-1.4115,-1.4088,-1.4088,-1.4088,-1.3834,-1.3587,-1.344,-1.3166,-1.2866,-1.2552,-1.2525,-1.2472,-1.2318,-1.2318,-1.2311,-1.2298,-1.2333,-1.2055,-1.1423,-1.1625,-1.1358,-1.0624,-1.0989,-1.0989,-1.0624,-1.0624,-1.0624,-1.0624,-1.0624,-1.0624,-1.0624,-1.0624,-1.0698,-1.0755,-1.0678,-1.0641,-1.0755,-1.0678,-1.0624,-1.0624,-1.0624,-1.0624,-1.0624,-1.0624,-1.0624,-1.0624,-1.0624,-1.0624,-1.0491,-1.004,-0.9658,-0.9204,-0.8748,-0.8527,-0.861,-0.9152,-1.0016,-1.0845,-1.136,-1.1922,-1.215,-1.162,-1.1539,-1.1694,-1.2224,-1.2305,-1.2305,-1.2305,-1.2305,-1.2305,-1.2305,-1.2672,-1.2973,-1.2986,-1.312,-1.3213,-1.3213,-1.2959,-1.2779,-1.2779,-1.2906,-1.2986,-1.2986,-1.3253,-1.3716,-1.4346,-1.4434,-1.4904,-1.592,-1.6165,-1.6555,-1.7192,-1.6715,-1.6936,-1.7665,-1.5935,-1.5367,-1.593,-1.6853,-1.6768,-1.5991,-1.6465,-1.623,-1.541,-1.541,-1.541,-1.541,-1.541,-1.541,-1.541,-1.541,-1.541,-1.5468,-1.4409,-1.4295,-1.4142,-1.4095,-1.4088,-1.4088,-1.4088,-1.3874,-1.3619,-1.3654,-1.3206,-1.2936,-1.2835,-1.2478,-1.2372,-1.2519,-1.2563,-1.2622,-1.2799,-1.3271,-1.3025,-1.1887,-1.2569,-1.2397,-1.1052,-1.1707,-1.1589,-1.0624,-1.0624,-1.0624,-1.0624,-1.0624,-1.0624,-1.0624,-1.0624,-1.0695,-1.0902,-1.0661,-1.0701,-1.0902,-1.0719,-1.0624,-1.0624,-1.0624,-1.0624,-1.0624,-1.0624,-1.0658,-1.0692,-1.0645,-1.0658,-1.0692,-1.0638,-1.011,-0.953,-0.953,-0.9264,-0.9194,-1.0036,-1.0622,-1.1169,-1.1998,-1.2265,-1.2305,-1.2305,-1.2305,-1.2305,-1.2305,-1.2305,-1.2305,-1.2305,-1.2305,-1.2318,-1.2371,-1.2799,-1.308,-1.2919,-1.3033,-1.3073,-1.2919,-1.2592,-1.2358,-1.2305,-1.2619,-1.2973,-1.3119,-1.3687,-1.443,-1.5622,-1.5622,-1.6142,-1.7086,-1.7232,-1.7674,-1.8653,-1.7837,-1.8069,-1.9277,-1.7675,-1.6917,-1.6853,-1.7647,-1.7539,-1.6665,-1.6665,-1.623,-1.541,-1.541,-1.541,-1.541,-1.541,-1.541,-1.541,-1.541,-1.541,-1.5526,-1.4188,-1.4315,-1.4382,-1.4128,-1.4088,-1.4088,-1.4088,-1.4055,-1.3935,-1.3674,-1.3574,-1.3327,-1.2882,-1.2478,-1.2666,-1.3455,-1.3513,-1.386,-1.4736,-1.4274,-1.3942,-1.3751,-1.3263,-1.2887,-1.2704,-1.3119,-1.2436,-1.0624,-1.0624,-1.0624,-1.0624,-1.0624,-1.0624,-1.0624,-1.0624,-1.0645,-1.0678,-1.0645,-1.0645,-1.0678,-1.0638,-1.0624,-1.0624,-1.0624,-1.0624,-1.0624,-1.0624,-1.0722,-1.0895,-1.0705,-1.0728,-1.0895,-1.0641,-1.0491,-1.0428,-1.0428,-1.0529,-1.0711,-1.085,-1.1339,-1.1781,-1.1924,-1.2118,-1.2305,-1.2305,-1.2305,-1.2305,-1.2305,-1.2305,-1.2305,-1.2305,-1.2305,-1.2385,-1.2721,-1.2835,-1.2973,-1.3454,-1.3113,-1.2986,-1.3467,-1.3026,-1.2585,-1.2325,-1.2812,-1.3526,-1.4425,-1.5102,-1.5883,-1.6944,-1.7017,-1.7359,-1.8053,-1.853,-1.8861,-1.9228,-1.9418,-1.9399,-1.9277,-1.8637,-1.8141,-1.7794,-1.794,-1.7539,-1.6665,-1.6665,-1.623,-1.541,-1.541,-1.541,-1.541,-1.541,-1.541,-1.541,-1.541,-1.541,-1.5526,-1.4115,-1.4195,-1.4242,-1.4108,-1.4088,-1.4088,-1.4088,-1.4088,-1.4041,-1.3908,-1.3748,-1.348,-1.3053,-1.303,-1.3237,-1.3673,-1.4498,-1.5067,-1.5163,-1.5277,-1.498,-1.4148,-1.4259,-1.3906,-1.3009,-1.3587,-1.328,-1.1911,-1.1721,-1.1467,-1.1288,-1.08,-1.0624,-1.0624,-1.0624,-1.0648,-1.0788,-1.0628,-1.0719,-1.0788,-1.0692,-1.0624,-1.0624,-1.0624,-1.0624,-1.0624,-1.0624,-1.0705,-1.0735,-1.0665,-1.0712,-1.0728,-1.0665,-1.0624,-1.0624,-1.0624,-1.0768,-1.0995,-1.0995,-1.1303,-1.1663,-1.183,-1.1964,-1.2104,-1.2265,-1.2432,-1.2505,-1.2338,-1.2305,-1.2305,-1.2305,-1.2305,-1.2398,-1.2775,-1.2893,-1.3153,-1.3581,-1.328,-1.3039,-1.3133,-1.306,-1.2953,-1.2819,-1.3731,-1.454,-1.508,-1.5994,-1.709,-1.823,-1.823,-1.8629,-1.9571,-1.9818,-1.9907,-2.001,-2.0185,-1.9941,-1.9287,-1.9092,-1.8779,-1.835,-1.8115,-1.7539,-1.6665,-1.6665,-1.623,-1.541,-1.541,-1.541,-1.541,-1.541,-1.541,-1.541,-1.541,-1.5633,-1.6151]}]]